[[{"header":{"parameterUnit":"m.s-1","parameterCategory":1,"la1":31.0,"la2":29.5877,"lo1":-88.7671,"lo2":-86.6584,"dy":0.0162,"dx":0.0185,"nx":115,"ny":88,"refTime":"2024-03-09T06:00:00:Z","depth":0,"parameterNumber":2,"parameterNumberName":"U-component_of_WINDS"},"data":[0.0,0.0,0.0,0.0,0.0,0.0,0.0,0.0,0.0,0.0,0.0,0.0,0.0,0.0,0.0,0.0,0.0,0.0,0.0,0.0,0.0,0.0,0.0,0.0,0.0,0.0,0.0,0.0,0.0,0.0,0.0,0.0,0.0,0.0,0.0,0.0,0.0,0.0,0.0,0.0,0.0,0.0,0.0,0.0,0.0,0.0,0.0,0.0,0.0,0.0,0.0,0.0,0.0,0.0,0.0,0.0,0.0,0.0,0.0,0.0,0.0,0.0,0.0,0.0,0.0,0.0,0.0,0.0,0.0,0.0,0.0,0.0,0.0,0.0,0.0,0.0,0.0,0.0,0.0,0.0,0.0,0.0,0.0,0.0,0.0,0.0,0.0,0.0,0.0,0.0,0.0,0.0,0.0,0.0,0.0,0.0,0.0,0.0,0.0,0.0,0.0,0.0,0.0,0.0,0.0,0.0,0.0,0.0,0.0,0.0,0.0,0.0,0.0,0.0,0.0,0.0,0.0,0.0,0.0,0.0,0.0,0.0,0.0,0.0,0.0,0.0,0.0,0.0,0.0,0.0,0.0,0.0,0.0,0.0,0.0,0.0,0.0,0.0,0.0,0.0,0.0,0.0,0.0,0.0,0.0,0.0,0.0,0.0,0.0,0.0,0.0,0.0,0.0,0.0,0.0,0.0,0.0,0.0,0.0,0.0,0.0,0.0,0.0,0.0,0.0,0.0,0.0,0.0,0.0,0.0,0.0,0.0,0.0,0.0,0.0,0.0,0.0,0.0,0.0,0.0,0.0,0.0,0.0,0.0,0.0,0.0,0.0,0.0,0.0,0.0,0.0,0.0,0.0,0.0,0.0,0.0,0.0,0.0,0.0,0.0,0.0,0.0,0.0,0.0,0.0,0.0,0.0,0.0,0.0,0.0,0.0,0.0,0.0,0.0,0.0,0.0,0.0,0.0,0.0,0.0,0.0,0.0,0.0,0.0,0.0,0.0,0.0,0.0,0.0,0.0,0.0,0.0,0.0,0.0,0.0,0.0,0.0,0.0,0.0,0.0,0.0,0.0,0.0,0.0,0.0,0.0,0.0,0.0,0.0,0.0,0.0,0.0,0.0,0.0,0.0,0.0,0.0,0.0,0.0,0.0,0.0,0.0,0.0,0.0,0.0,0.0,0.0,0.0,0.0,0.0,0.0,0.0,0.0,0.0,0.0,0.0,0.0,0.0,0.0,0.0,0.0,0.0,0.0,0.0,0.0,0.0,0.0,0.0,0.0,0.0,0.0,0.0,0.0,0.0,0.0,0.0,0.0,0.0,0.0,0.0,0.0,0.0,0.0,0.0,0.0,0.0,0.0,0.0,0.0,0.0,0.0,0.0,0.0,0.0,0.0,0.0,0.0,0.0,0.0,0.0,0.0,0.0,0.0,0.0,0.0,0.0,0.0,0.0,0.0,0.0,0.0,0.0,0.0,0.0,0.0,0.0,0.0,0.0,0.0,0.0,0.0,0.0,0.0,0.0,0.0,0.0,0.0,0.0,0.0,0.0,0.0,0.0,0.0,0.0,0.0,0.0,0.0,0.0,0.0,0.0,0.0,0.0,0.0,0.0,0.0,0.0,0.0,0.0,0.0,0.0,0.0,0.0,0.0,0.0,0.0,0.0,0.0,0.0,0.0,0.0,0.0,0.0,0.0,0.0,0.0,0.0,0.0,0.0,0.0,0.0,0.0,0.0,0.0,0.0,0.0,0.0,0.0,0.0,0.0,0.0,0.0,0.0,0.0,0.0,0.0,0.0,0.0,0.0,0.0,0.0,0.0,0.0,0.0,0.0,0.0,0.0,0.0,0.0,0.0,0.0,0.0,0.0,0.0,0.0,0.0,0.0,0.0,0.0,0.0,0.0,0.0,0.0,0.0,0.0,0.0,0.0,0.0,0.0,0.0,0.0,0.0,0.0,0.0,0.0,0.0,0.0,0.0,0.0,0.0,0.0,0.0,0.0,0.0,0.0,0.0,0.0,0.0,0.0,0.0,0.0,0.0,0.0,0.0,0.0,0.0,0.0,0.0,0.0,0.0,0.0,0.0,0.0,0.0,0.0,0.0,0.0,0.0,0.0,0.0,0.0,0.0,0.0,0.0,0.0,0.0,0.0,0.0,0.0,0.0,0.0,0.0,0.0,0.0,0.0,0.0,0.0,0.0,0.0,0.0,0.0,0.0,0.0,0.0,0.0,0.0,0.0,0.0,0.0,0.0,0.0,0.0,0.0,0.0,0.0,0.0,0.0,0.0,0.0,0.0,0.0,0.0,0.0,0.0,0.0,0.0,0.0,0.0,0.0,0.0,0.0,0.0,0.0,0.0,0.0,0.0,0.0,0.0,0.0,0.0,0.0,0.0,0.0,0.0,0.0,0.0,0.0,0.0,0.0,0.0,0.0,0.0,0.0,0.0,0.0,0.0,0.0,0.0,0.0,0.0,0.0,0.0,0.0,0.0,0.0,0.0,0.0,0.0,0.0,0.0,0.0,0.0,0.0,0.0,0.0,0.0,0.0,0.0,0.0,0.0,0.0,0.0,0.0,0.0,0.0,0.0,0.0,0.0,0.0,0.0,0.0,0.0,0.0,0.0,0.0,0.0,0.0,0.0,0.0,0.0,0.0,0.0,0.0,0.0,0.0,0.0,0.0,0.0,0.0,0.0,0.0,0.0,0.0,0.0,0.0,0.0,0.0,0.0,0.0,0.0,0.0,0.0,0.0,0.0,0.0,0.0,0.0,0.0,0.0,0.0,0.0,0.0,0.0,0.0,0.0,0.0,0.0,0.0,0.0,0.0,0.0,0.0,0.0,0.0,0.0,0.0,0.0,0.0,0.0,0.0,0.0,0.0,0.0,0.0,0.0,0.0,0.0,0.0,0.0,0.0,0.0,0.0,0.0,0.0,0.0,0.0,0.0,0.0,0.0,0.0,0.0,0.0,0.0,0.0,0.0,0.0,0.0,0.0,0.0,0.0,0.0,0.0,0.0,0.0,0.0,0.0,0.0,0.0,0.0,0.0,0.0,0.0,0.0,0.0,0.0,0.0,0.0,0.0,0.0,0.0,0.0,0.0,0.0,0.0,0.0,0.0,0.0,0.0,0.0,0.0,0.0,0.0,0.0,0.0,0.0,0.0,0.0,0.0,0.0,0.0,0.0,0.0,0.0,0.0,0.0,0.0,0.0,0.0,0.0,0.0,0.0,0.0,0.0,0.0,0.0,0.0,0.0,0.0,0.0,0.0,0.0,0.0,0.0,0.0,0.0,0.0,0.0,0.0,0.0,0.0,0.0,0.0,0.0,0.0,0.0,0.0,0.0,0.0,0.0,0.0,0.0,0.0,0.0,0.0,0.0,0.0,0.0,0.0,0.0,0.0,0.0,0.0,0.0,0.0,0.0,0.0,0.0,0.0,0.0,0.0,0.0,0.0,0.0,0.0,0.0,0.0,0.0,0.0,0.0,0.0,0.0,0.0,0.0,0.0,0.0,0.0,0.0,0.0,0.0,0.0,0.0,0.0,0.0,0.0,0.0,0.0,0.0,0.0,0.0,0.0,0.0,0.0,0.0,0.0,0.0,0.0,0.0,0.0,0.0,0.0,0.0,0.0,0.0,0.0,0.0,0.0,0.0,0.0,0.0,0.0,0.0,0.0,0.0,0.0,0.0,0.0,0.0,0.0,0.0,0.0,0.0,0.0,0.0,0.0,0.0,0.0,0.0,0.0,0.0,0.0,0.0,0.0,0.0,0.0,0.0,0.0,0.0,0.0,0.0,0.0,0.0,0.0,0.0,0.0,0.0,0.0,0.0,0.0,0.0,0.0,0.0,0.0,0.0,0.0,0.0,0.0,0.0,0.0,0.0,0.0,0.0,0.0,0.0,0.0,0.0,0.0,0.0,0.0,0.0,0.0,0.0,0.0,0.0,0.0,0.0,0.0,0.0,0.0,0.0,0.0,0.0,0.0,0.0,0.0,0.0,0.0,0.0,0.0,0.0,0.0,0.0,0.0,0.0,0.0,0.0,0.0,0.0,0.0,0.0,0.0,0.0,0.0,0.0,0.0,0.0,0.0,0.0,0.0,0.0,0.0,0.0,0.0,0.0,0.0,0.0,0.0,0.0,0.0,0.0,0.0,0.0,0.0,0.0,0.0,0.0,0.0,0.0,0.0,0.0,0.0,0.0,0.0,0.0,0.0,0.0,0.0,0.0,0.0,0.0,0.0,0.0,0.0,0.0,0.0,0.0,0.0,0.0,3.2942,0.0,0.0,0.0,0.0,0.0,0.0,0.0,0.0,0.0,0.0,0.0,0.0,0.0,0.0,0.0,0.0,0.0,0.0,0.0,0.0,0.0,0.0,0.0,0.0,0.0,0.0,0.0,0.0,0.0,0.0,0.0,0.0,0.0,0.0,0.0,0.0,0.0,0.0,0.0,0.0,0.0,0.0,0.0,0.0,0.0,0.0,0.0,0.0,0.0,0.0,0.0,0.0,0.0,0.0,0.0,0.0,0.0,0.0,0.0,0.0,0.0,0.0,0.0,0.0,0.0,0.0,0.0,0.0,0.0,0.0,0.0,0.0,0.0,0.0,0.0,0.0,0.0,0.0,0.0,0.0,0.0,0.0,0.0,0.0,0.0,0.0,0.0,0.0,0.0,0.0,0.0,0.0,0.0,0.0,0.0,0.0,0.0,0.0,0.0,0.0,0.0,0.0,0.0,0.0,0.0,0.0,0.0,0.0,0.0,0.0,3.5341,3.4943,3.4931,3.4777,3.4404,0.0,0.0,0.0,0.0,0.0,0.0,0.0,0.0,0.0,0.0,0.0,0.0,0.0,0.0,0.0,0.0,0.0,0.0,0.0,0.0,0.0,0.0,0.0,0.0,0.0,0.0,0.0,0.0,0.0,0.0,0.0,0.0,0.0,0.0,0.0,0.0,0.0,0.0,0.0,0.0,0.0,0.0,0.0,0.0,0.0,0.0,0.0,0.0,0.0,0.0,0.0,0.0,0.0,0.0,0.0,0.0,0.0,0.0,0.0,0.0,0.0,0.0,0.0,0.0,0.0,0.0,0.0,0.0,0.0,0.0,0.0,0.0,0.0,0.0,0.0,0.0,0.0,0.0,0.0,0.0,0.0,0.0,0.0,0.0,0.0,0.0,0.0,0.0,0.0,0.0,0.0,0.0,0.0,0.0,0.0,0.0,0.0,0.0,0.0,0.0,0.0,0.0,0.0,0.0,0.0,0.0,0.0,0.0,0.0,0.0,0.0,0.0,3.556,3.5624,3.5611,0.0,0.0,0.0,0.0,0.0,0.0,0.0,0.0,0.0,0.0,0.0,0.0,0.0,0.0,0.0,0.0,0.0,0.0,0.0,0.0,0.0,0.0,0.0,0.0,0.0,0.0,0.0,0.0,0.0,0.0,0.0,0.0,0.0,0.0,0.0,0.0,0.0,0.0,0.0,0.0,0.0,0.0,0.0,0.0,0.0,0.0,0.0,0.0,0.0,0.0,0.0,0.0,0.0,0.0,0.0,0.0,0.0,0.0,0.0,0.0,0.0,0.0,0.0,0.0,0.0,0.0,0.0,0.0,0.0,0.0,0.0,0.0,0.0,0.0,0.0,0.0,0.0,0.0,0.0,0.0,0.0,0.0,0.0,0.0,0.0,0.0,0.0,0.0,0.0,0.0,0.0,0.0,0.0,0.0,0.0,0.0,0.0,0.0,0.0,0.0,0.0,0.0,0.0,0.0,0.0,0.0,0.0,0.0,0.0,0.0,3.5496,3.5509,3.5572,0.0,3.5611,0.0,0.0,0.0,0.0,0.0,0.0,0.0,0.0,0.0,0.0,0.0,0.0,0.0,0.0,0.0,0.0,0.0,0.0,0.0,0.0,0.0,0.0,0.0,0.0,0.0,0.0,0.0,0.0,0.0,0.0,0.0,0.0,0.0,0.0,0.0,0.0,0.0,0.0,0.0,0.0,0.0,0.0,0.0,0.0,0.0,0.0,0.0,0.0,0.0,0.0,0.0,0.0,0.0,0.0,0.0,0.0,0.0,0.0,0.0,0.0,0.0,0.0,0.0,0.0,0.0,0.0,0.0,0.0,0.0,0.0,0.0,0.0,0.0,0.0,0.0,0.0,0.0,0.0,0.0,0.0,0.0,0.0,0.0,0.0,0.0,0.0,0.0,0.0,0.0,0.0,0.0,0.0,0.0,0.0,0.0,0.0,0.0,0.0,0.0,0.0,0.0,0.0,0.0,0.0,0.0,0.0,0.0,0.0,0.0,0.0,3.6537,3.7102,3.6636,3.6377,0.0,0.0,0.0,0.0,0.0,0.0,0.0,0.0,0.0,0.0,0.0,0.0,0.0,0.0,0.0,0.0,0.0,0.0,0.0,0.0,0.0,0.0,0.0,0.0,0.0,0.0,0.0,0.0,0.0,0.0,0.0,0.0,0.0,0.0,0.0,0.0,0.0,0.0,0.0,0.0,0.0,0.0,0.0,0.0,0.0,0.0,0.0,0.0,0.0,0.0,0.0,0.0,0.0,0.0,0.0,0.0,0.0,0.0,0.0,0.0,0.0,0.0,0.0,0.0,0.0,0.0,0.0,0.0,0.0,0.0,0.0,0.0,0.0,0.0,0.0,0.0,0.0,0.0,0.0,0.0,0.0,0.0,0.0,0.0,0.0,0.0,0.0,0.0,0.0,0.0,0.0,0.0,0.0,0.0,0.0,0.0,0.0,0.0,0.0,0.0,0.0,0.0,0.0,0.0,0.0,0.0,0.0,0.0,0.0,0.0,3.6794,3.7257,3.8117,3.739,3.6936,3.6925,0.0,0.0,0.0,0.0,0.0,0.0,0.0,0.0,0.0,0.0,0.0,0.0,0.0,0.0,0.0,0.0,0.0,0.0,0.0,0.0,0.0,0.0,0.0,0.0,0.0,0.0,0.0,0.0,0.0,0.0,0.0,0.0,0.0,0.0,0.0,0.0,0.0,0.0,0.0,0.0,0.0,0.0,0.0,0.0,0.0,0.0,0.0,0.0,0.0,0.0,0.0,0.0,0.0,0.0,0.0,0.0,0.0,0.0,0.0,0.0,0.0,0.0,0.0,0.0,0.0,0.0,0.0,0.0,0.0,0.0,0.0,0.0,0.0,0.0,0.0,0.0,0.0,0.0,0.0,0.0,0.0,0.0,0.0,0.0,0.0,0.0,0.0,0.0,0.0,0.0,0.0,0.0,0.0,0.0,0.0,0.0,0.0,0.0,0.0,0.0,0.0,0.0,0.0,0.0,0.0,0.0,0.0,0.0,3.6806,3.6832,3.7281,3.8302,3.7461,3.7006,0.0,0.0,0.0,0.0,0.0,0.0,0.0,0.0,0.0,0.0,0.0,0.0,0.0,0.0,0.0,0.0,0.0,0.0,0.0,0.0,0.0,0.0,0.0,0.0,0.0,0.0,0.0,0.0,0.0,0.0,0.0,0.0,0.0,0.0,0.0,0.0,0.0,0.0,0.0,0.0,0.0,0.0,0.0,0.0,0.0,0.0,0.0,0.0,0.0,0.0,0.0,0.0,0.0,0.0,0.0,0.0,0.0,0.0,0.0,0.0,0.0,0.0,0.0,0.0,0.0,0.0,0.0,0.0,0.0,0.0,0.0,0.0,0.0,0.0,0.0,0.0,0.0,0.0,0.0,0.0,0.0,0.0,0.0,0.0,0.0,0.0,0.0,0.0,0.0,0.0,0.0,0.0,0.0,0.0,0.0,0.0,0.0,0.0,0.0,0.0,0.0,0.0,0.0,0.0,0.0,0.0,0.0,0.0,0.0,3.8414,3.9032,3.9569,3.9945,3.911,3.8412,0.0,0.0,0.0,0.0,0.0,0.0,0.0,0.0,0.0,0.0,0.0,0.0,0.0,0.0,0.0,0.0,0.0,0.0,0.0,0.0,0.0,0.0,0.0,0.0,0.0,0.0,0.0,0.0,0.0,0.0,0.0,0.0,0.0,0.0,0.0,0.0,0.0,0.0,0.0,0.0,0.0,0.0,0.0,0.0,0.0,0.0,0.0,0.0,0.0,0.0,0.0,0.0,0.0,0.0,0.0,0.0,0.0,0.0,0.0,0.0,0.0,0.0,0.0,0.0,0.0,0.0,0.0,0.0,0.0,0.0,0.0,0.0,0.0,0.0,0.0,0.0,0.0,0.0,0.0,0.0,0.0,0.0,0.0,0.0,0.0,0.0,0.0,0.0,0.0,0.0,0.0,0.0,0.0,0.0,0.0,0.0,0.0,0.0,0.0,0.0,0.0,0.0,0.0,0.0,0.0,0.0,0.0,0.0,0.0,3.9393,0.0,4.1147,4.0878,4.0354,3.9645,0.0,0.0,0.0,0.0,0.0,0.0,0.0,0.0,0.0,0.0,0.0,0.0,0.0,0.0,0.0,0.0,0.0,0.0,0.0,0.0,0.0,0.0,0.0,0.0,0.0,0.0,0.0,0.0,0.0,0.0,0.0,0.0,0.0,0.0,0.0,0.0,0.0,0.0,0.0,0.0,0.0,0.0,0.0,0.0,0.0,0.0,0.0,0.0,0.0,0.0,0.0,0.0,0.0,0.0,0.0,0.0,0.0,0.0,0.0,0.0,0.0,0.0,0.0,0.0,0.0,0.0,0.0,0.0,0.0,0.0,0.0,0.0,0.0,0.0,0.0,0.0,0.0,0.0,0.0,0.0,0.0,0.0,0.0,0.0,0.0,0.0,0.0,0.0,0.0,0.0,0.0,0.0,0.0,0.0,0.0,0.0,0.0,0.0,0.0,0.0,0.0,0.0,0.0,0.0,0.0,0.0,0.0,0.0,3.8659,3.9584,4.1285,4.184,4.0985,4.0985,4.0558,0.0,0.0,0.0,0.0,0.0,0.0,0.0,0.0,0.0,0.0,0.0,0.0,0.0,0.0,0.0,0.0,0.0,0.0,0.0,0.0,0.0,0.0,0.0,0.0,0.0,0.0,0.0,0.0,0.0,0.0,0.0,0.0,0.0,0.0,0.0,0.0,0.0,0.0,0.0,0.0,0.0,0.0,0.0,0.0,0.0,0.0,0.0,0.0,0.0,0.0,0.0,0.0,0.0,0.0,0.0,0.0,0.0,0.0,0.0,0.0,0.0,0.0,0.0,0.0,0.0,0.0,0.0,0.0,0.0,0.0,0.0,0.0,0.0,0.0,0.0,0.0,0.0,0.0,0.0,0.0,0.0,0.0,0.0,0.0,0.0,0.0,0.0,0.0,0.0,0.0,0.0,0.0,0.0,0.0,0.0,0.0,0.0,0.0,0.0,0.0,0.0,0.0,0.0,0.0,0.0,0.0,0.0,0.0,0.0,4.138,4.251,4.2983,4.2774,4.2174,4.1505,0.0,0.0,0.0,0.0,0.0,0.0,0.0,0.0,0.0,0.0,0.0,0.0,0.0,0.0,0.0,0.0,0.0,0.0,0.0,0.0,0.0,0.0,0.0,0.0,0.0,0.0,0.0,0.0,0.0,0.0,0.0,0.0,0.0,0.0,0.0,0.0,0.0,0.0,0.0,0.0,0.0,0.0,0.0,0.0,0.0,0.0,0.0,0.0,0.0,0.0,0.0,0.0,0.0,0.0,0.0,0.0,0.0,0.0,0.0,0.0,0.0,0.0,0.0,0.0,0.0,0.0,0.0,0.0,0.0,0.0,0.0,0.0,0.0,0.0,0.0,0.0,0.0,0.0,0.0,0.0,0.0,0.0,0.0,0.0,0.0,0.0,0.0,0.0,0.0,0.0,0.0,0.0,0.0,0.0,0.0,0.0,0.0,0.0,0.0,0.0,0.0,0.0,0.0,0.0,0.0,0.0,0.0,0.0,0.0,4.5133,4.5312,4.5305,4.5085,4.454,4.3513,4.2018,0.0,0.0,0.0,0.0,0.0,0.0,0.0,0.0,0.0,0.0,0.0,0.0,0.0,0.0,0.0,0.0,0.0,0.0,0.0,0.0,0.0,0.0,0.0,0.0,0.0,0.0,0.0,0.0,0.0,0.0,0.0,0.0,0.0,0.0,0.0,0.0,0.0,0.0,0.0,0.0,0.0,0.0,0.0,0.0,0.0,0.0,0.0,0.0,0.0,0.0,0.0,0.0,0.0,0.0,0.0,0.0,0.0,0.0,0.0,0.0,0.0,0.0,0.0,0.0,0.0,0.0,0.0,0.0,0.0,0.0,0.0,0.0,0.0,0.0,0.0,0.0,0.0,0.0,0.0,0.0,0.0,0.0,0.0,0.0,0.0,0.0,0.0,0.0,0.0,0.0,0.0,0.0,0.0,0.0,0.0,0.0,0.0,0.0,0.0,0.0,0.0,0.0,0.0,0.0,0.0,0.0,0.0,0.0,5.0265,4.9627,4.8839,4.7813,4.7669,4.6454,0.0,0.0,0.0,0.0,0.0,0.0,0.0,0.0,0.0,0.0,0.0,0.0,0.0,0.0,0.0,0.0,0.0,0.0,0.0,0.0,0.0,0.0,0.0,0.0,0.0,0.0,0.0,0.0,0.0,0.0,0.0,0.0,0.0,0.0,0.0,0.0,0.0,0.0,0.0,0.0,0.0,0.0,0.0,0.0,0.0,0.0,0.0,0.0,0.0,0.0,0.0,0.0,0.0,0.0,0.0,0.0,0.0,0.0,0.0,0.0,0.0,0.0,0.0,0.0,0.0,0.0,0.0,0.0,0.0,0.0,0.0,0.0,0.0,0.0,0.0,0.0,0.0,0.0,0.0,0.0,0.0,0.0,0.0,0.0,0.0,0.0,0.0,0.0,0.0,0.0,0.0,0.0,0.0,0.0,0.0,0.0,0.0,0.0,0.0,0.0,0.0,0.0,0.0,0.0,0.0,0.0,0.0,0.0,0.0,5.3744,5.5477,5.4752,5.1469,5.0117,4.8478,0.0,0.0,0.0,0.0,0.0,0.0,0.0,0.0,0.0,0.0,0.0,0.0,0.0,0.0,0.0,0.0,0.0,0.0,0.0,0.0,0.0,0.0,0.0,0.0,0.0,0.0,0.0,0.0,0.0,0.0,0.0,0.0,0.0,0.0,0.0,0.0,0.0,0.0,0.0,0.0,0.0,0.0,0.0,0.0,0.0,0.0,0.0,0.0,0.0,0.0,0.0,0.0,0.0,0.0,0.0,0.0,0.0,0.0,0.0,0.0,0.0,0.0,0.0,0.0,0.0,0.0,0.0,0.0,0.0,0.0,0.0,0.0,0.0,0.0,0.0,0.0,0.0,0.0,0.0,0.0,0.0,0.0,0.0,0.0,0.0,0.0,0.0,0.0,0.0,0.0,0.0,0.0,0.0,0.0,0.0,0.0,0.0,0.0,0.0,0.0,0.0,0.0,0.0,0.0,0.0,0.0,0.0,0.0,5.3828,5.7268,5.9944,6.011,5.7612,5.4498,5.1496,0.0,0.0,0.0,0.0,0.0,0.0,0.0,0.0,0.0,0.0,0.0,0.0,0.0,0.0,0.0,0.0,0.0,0.0,0.0,0.0,0.0,0.0,0.0,0.0,0.0,0.0,0.0,0.0,0.0,0.0,0.0,0.0,0.0,0.0,0.0,0.0,0.0,0.0,0.0,0.0,0.0,0.0,0.0,0.0,0.0,0.0,0.0,0.0,0.0,0.0,0.0,0.0,0.0,0.0,0.0,0.0,0.0,0.0,0.0,0.0,0.0,0.0,0.0,0.0,0.0,0.0,0.0,0.0,0.0,0.0,0.0,0.0,0.0,0.0,0.0,0.0,0.0,0.0,0.0,0.0,0.0,0.0,0.0,0.0,0.0,0.0,0.0,0.0,0.0,0.0,0.0,0.0,0.0,0.0,0.0,0.0,0.0,0.0,0.0,0.0,0.0,0.0,0.0,0.0,0.0,0.0,0.0,0.0,5.6961,6.0473,6.3202,6.4638,6.4552,5.9777,5.5091,0.0,0.0,0.0,0.0,0.0,0.0,0.0,0.0,0.0,0.0,0.0,0.0,0.0,0.0,0.0,0.0,0.0,0.0,0.0,0.0,0.0,0.0,0.0,0.0,0.0,0.0,0.0,0.0,0.0,0.0,0.0,0.0,0.0,0.0,0.0,0.0,0.0,0.0,0.0,0.0,0.0,0.0,0.0,0.0,0.0,0.0,0.0,0.0,0.0,0.0,0.0,0.0,0.0,0.0,0.0,0.0,0.0,0.0,0.0,0.0,0.0,0.0,0.0,0.0,0.0,0.0,0.0,0.0,0.0,0.0,0.0,0.0,0.0,0.0,0.0,0.0,0.0,0.0,0.0,0.0,0.0,0.0,0.0,0.0,0.0,0.0,0.0,0.0,0.0,0.0,0.0,0.0,0.0,0.0,0.0,0.0,0.0,0.0,0.0,0.0,0.0,0.0,0.0,0.0,0.0,0.0,0.0,0.0,5.8148,6.2265,6.4958,6.6683,6.7328,6.3007,5.859,0.0,0.0,0.0,0.0,0.0,0.0,0.0,0.0,0.0,0.0,0.0,0.0,0.0,0.0,0.0,0.0,0.0,0.0,0.0,0.0,0.0,0.0,0.0,0.0,0.0,0.0,0.0,0.0,0.0,0.0,0.0,0.0,0.0,0.0,0.0,0.0,0.0,0.0,0.0,0.0,0.0,0.0,0.0,0.0,0.0,0.0,0.0,0.0,4.2437,0.0,0.0,0.0,0.0,0.0,0.0,0.0,0.0,0.0,0.0,0.0,0.0,0.0,0.0,0.0,0.0,0.0,0.0,0.0,0.0,0.0,0.0,0.0,0.0,0.0,0.0,0.0,0.0,0.0,0.0,0.0,0.0,0.0,0.0,0.0,0.0,0.0,0.0,0.0,0.0,0.0,0.0,0.0,0.0,0.0,0.0,0.0,0.0,0.0,0.0,0.0,0.0,0.0,0.0,0.0,0.0,0.0,0.0,0.0,6.0551,6.4076,6.7497,6.9342,6.9255,6.6348,6.2145,0.0,0.0,0.0,0.0,0.0,0.0,0.0,0.0,0.0,0.0,0.0,0.0,0.0,0.0,0.0,0.0,0.0,0.0,0.0,0.0,0.0,0.0,0.0,0.0,0.0,0.0,0.0,0.0,0.0,0.0,0.0,0.0,0.0,0.0,0.0,0.0,0.0,0.0,0.0,0.0,0.0,0.0,0.0,0.0,0.0,0.0,0.0,0.0,0.0,0.0,0.0,0.0,0.0,0.0,0.0,0.0,0.0,0.0,0.0,0.0,0.0,0.0,0.0,0.0,0.0,0.0,0.0,0.0,0.0,0.0,0.0,0.0,0.0,0.0,0.0,0.0,0.0,0.0,0.0,0.0,0.0,0.0,0.0,0.0,0.0,0.0,0.0,0.0,0.0,0.0,0.0,0.0,0.0,0.0,0.0,0.0,0.0,0.0,0.0,0.0,0.0,0.0,0.0,0.0,0.0,0.0,0.0,5.8744,6.3038,6.6091,6.9957,7.1694,7.1089,6.9132,6.513,5.8904,0.0,0.0,0.0,0.0,0.0,0.0,0.0,0.0,0.0,0.0,0.0,0.0,0.0,0.0,0.0,0.0,0.0,0.0,0.0,0.0,0.0,0.0,0.0,0.0,0.0,0.0,0.0,0.0,0.0,0.0,0.0,0.0,0.0,0.0,0.0,0.0,0.0,0.0,4.0654,4.3101,0.0,0.0,0.0,0.0,0.0,0.0,0.0,0.0,4.3662,0.0,0.0,0.0,0.0,0.0,0.0,0.0,0.0,0.0,0.0,0.0,0.0,0.0,0.0,0.0,0.0,0.0,0.0,0.0,0.0,0.0,0.0,0.0,0.0,0.0,0.0,0.0,0.0,0.0,0.0,0.0,0.0,0.0,0.0,0.0,0.0,0.0,0.0,0.0,0.0,0.0,0.0,0.0,0.0,0.0,0.0,0.0,0.0,0.0,0.0,0.0,0.0,0.0,0.0,0.0,0.0,5.5745,5.9629,6.3923,6.863,7.0885,7.226,7.2768,6.9762,6.6219,6.2217,0.0,0.0,0.0,0.0,0.0,0.0,0.0,0.0,0.0,0.0,0.0,0.0,0.0,0.0,0.0,0.0,0.0,0.0,0.0,0.0,0.0,0.0,0.0,0.0,0.0,0.0,0.0,0.0,0.0,0.0,0.0,0.0,0.0,0.0,0.0,0.0,0.0,0.0,0.0,4.5592,4.6646,0.0,0.0,0.0,0.0,0.0,0.0,0.0,0.0,4.518,0.0,0.0,0.0,0.0,0.0,0.0,0.0,0.0,0.0,0.0,0.0,0.0,0.0,0.0,0.0,0.0,0.0,0.0,0.0,0.0,0.0,0.0,0.0,0.0,0.0,0.0,0.0,0.0,0.0,0.0,0.0,0.0,0.0,0.0,0.0,0.0,0.0,0.0,0.0,0.0,0.0,0.0,0.0,0.0,0.0,0.0,0.0,0.0,0.0,0.0,0.0,0.0,0.0,0.0,0.0,5.6425,6.1612,6.5936,6.9336,7.2401,7.3783,7.3275,7.0777,6.762,0.0,0.0,0.0,0.0,0.0,0.0,0.0,0.0,0.0,0.0,0.0,0.0,0.0,0.0,0.0,0.0,0.0,0.0,0.0,0.0,0.0,0.0,0.0,0.0,0.0,0.0,0.0,0.0,0.0,0.0,0.0,0.0,0.0,0.0,0.0,0.0,0.0,0.0,0.0,0.0,4.7953,4.9125,5.0009,0.0,0.0,0.0,0.0,0.0,0.0,4.8463,4.7636,0.0,0.0,0.0,0.0,0.0,0.0,0.0,0.0,0.0,0.0,0.0,0.0,0.0,0.0,0.0,0.0,0.0,0.0,0.0,0.0,0.0,0.0,0.0,0.0,0.0,0.0,0.0,0.0,0.0,0.0,0.0,0.0,0.0,0.0,0.0,0.0,0.0,0.0,0.0,0.0,0.0,0.0,0.0,0.0,0.0,0.0,0.0,0.0,0.0,0.0,0.0,0.0,0.0,0.0,0.0,5.726,6.352,6.7906,7.0195,7.3885,7.511,7.3588,7.1675,6.8669,0.0,0.0,0.0,0.0,0.0,0.0,0.0,0.0,0.0,0.0,0.0,0.0,0.0,0.0,0.0,0.0,0.0,0.0,0.0,0.0,0.0,0.0,0.0,0.0,0.0,0.0,0.0,0.0,0.0,0.0,0.0,0.0,0.0,0.0,0.0,0.0,0.0,0.0,0.0,0.0,0.0,5.1568,5.2415,5.2741,0.0,0.0,0.0,0.0,5.1833,5.0984,0.0,0.0,0.0,0.0,0.0,0.0,0.0,0.0,0.0,0.0,0.0,0.0,0.0,0.0,0.0,0.0,0.0,0.0,0.0,0.0,0.0,0.0,0.0,0.0,0.0,0.0,0.0,0.0,0.0,0.0,0.0,0.0,0.0,0.0,0.0,0.0,0.0,0.0,0.0,0.0,0.0,0.0,0.0,0.0,0.0,0.0,0.0,0.0,0.0,0.0,0.0,0.0,0.0,0.0,0.0,0.0,5.9802,6.4414,6.8783,7.2695,7.4783,7.5345,7.4369,7.1987,6.8708,0.0,0.0,0.0,0.0,0.0,0.0,0.0,0.0,0.0,0.0,0.0,0.0,0.0,0.0,0.0,0.0,0.0,0.0,0.0,0.0,0.0,0.0,0.0,0.0,0.0,0.0,0.0,0.0,0.0,0.0,0.0,0.0,0.0,0.0,0.0,0.0,0.0,0.0,0.0,0.0,0.0,5.3321,5.4262,5.5053,5.5516,0.0,0.0,5.54,5.54,5.4012,0.0,0.0,0.0,0.0,0.0,0.0,0.0,0.0,0.0,0.0,0.0,0.0,0.0,0.0,0.0,0.0,0.0,0.0,0.0,0.0,0.0,0.0,0.0,0.0,0.0,0.0,0.0,0.0,0.0,0.0,0.0,0.0,0.0,0.0,0.0,0.0,0.0,0.0,0.0,0.0,0.0,0.0,0.0,0.0,0.0,0.0,0.0,0.0,0.0,0.0,0.0,0.0,0.0,0.0,0.0,5.5887,6.098,6.5794,7.0155,7.3903,7.5668,7.6379,7.5996,7.2984,6.9354,0.0,0.0,0.0,0.0,0.0,0.0,0.0,0.0,0.0,0.0,0.0,0.0,0.0,0.0,0.0,0.0,0.0,0.0,0.0,0.0,0.0,0.0,0.0,0.0,0.0,0.0,0.0,0.0,0.0,0.0,0.0,0.0,0.0,0.0,0.0,0.0,0.0,0.0,0.0,0.0,0.0,0.0,5.7387,5.8445,0.0,0.0,0.0,5.9022,5.9022,0.0,0.0,0.0,0.0,0.0,0.0,0.0,0.0,0.0,0.0,0.0,0.0,0.0,0.0,0.0,0.0,0.0,0.0,0.0,0.0,0.0,0.0,0.0,0.0,0.0,0.0,0.0,0.0,0.0,0.0,0.0,0.0,0.0,0.0,0.0,0.0,0.0,0.0,0.0,0.0,0.0,0.0,0.0,0.0,0.0,0.0,0.0,0.0,0.0,0.0,0.0,0.0,0.0,0.0,0.0,0.0,0.0,6.1924,6.7093,7.1405,7.4783,7.6542,7.7301,7.7028,7.3899,0.0,0.0,0.0,0.0,0.0,0.0,0.0,0.0,0.0,0.0,0.0,0.0,0.0,0.0,0.0,0.0,0.0,0.0,0.0,0.0,0.0,0.0,0.0,0.0,0.0,0.0,0.0,3.547,0.0,0.0,0.0,0.0,0.0,0.0,0.0,0.0,0.0,0.0,0.0,0.0,0.0,0.0,5.7594,6.0222,6.1552,6.2322,0.0,0.0,6.2516,6.2283,6.0809,5.9204,0.0,0.0,0.0,0.0,0.0,0.0,0.0,0.0,0.0,0.0,0.0,0.0,0.0,0.0,0.0,0.0,0.0,0.0,0.0,0.0,0.0,0.0,0.0,0.0,0.0,0.0,0.0,0.0,0.0,0.0,0.0,0.0,0.0,0.0,0.0,0.0,0.0,0.0,0.0,0.0,0.0,0.0,0.0,0.0,0.0,0.0,0.0,0.0,0.0,0.0,0.0,0.0,0.0,0.0,0.0,6.2864,6.8002,7.2291,7.5608,7.7411,7.7918,7.7004,7.4476,7.1097,0.0,0.0,0.0,0.0,0.0,0.0,0.0,0.0,0.0,0.0,0.0,0.0,0.0,0.0,0.0,0.0,0.0,0.0,0.0,0.0,0.0,0.0,0.0,0.0,0.0,0.0,0.0,0.0,0.0,0.0,0.0,0.0,0.0,0.0,0.0,0.0,0.0,0.0,0.0,0.0,0.0,5.9409,6.2044,6.3812,6.5131,0.0,0.0,6.5756,6.4959,6.3408,6.1414,5.901,0.0,0.0,0.0,0.0,0.0,0.0,0.0,0.0,0.0,0.0,0.0,0.0,0.0,0.0,0.0,0.0,0.0,0.0,0.0,0.0,0.0,0.0,0.0,0.0,0.0,0.0,0.0,0.0,0.0,0.0,0.0,0.0,0.0,0.0,0.0,0.0,0.0,0.0,0.0,0.0,0.0,0.0,0.0,0.0,0.0,0.0,0.0,0.0,0.0,0.0,0.0,0.0,0.0,5.8819,6.4463,6.9135,7.3426,7.7238,7.8542,7.8945,7.8553,7.5551,7.1936,0.0,0.0,0.0,0.0,0.0,0.0,0.0,0.0,0.0,0.0,0.0,0.0,0.0,0.0,0.0,0.0,0.0,0.0,0.0,0.0,0.0,0.0,0.0,0.0,0.0,0.0,0.0,0.0,4.087,4.18,4.2305,0.0,0.0,0.0,0.0,0.0,0.0,0.0,0.0,0.0,0.0,6.1407,6.4551,6.6524,0.0,0.0,6.8108,6.7821,6.6897,6.577,6.4124,6.15,5.8676,0.0,0.0,0.0,0.0,0.0,0.0,0.0,0.0,0.0,0.0,0.0,0.0,0.0,0.0,0.0,0.0,0.0,0.0,0.0,0.0,0.0,0.0,0.0,0.0,0.0,0.0,0.0,0.0,0.0,0.0,0.0,0.0,0.0,0.0,0.0,0.0,0.0,0.0,0.0,0.0,0.0,0.0,0.0,0.0,0.0,0.0,0.0,0.0,0.0,0.0,0.0,0.0,5.9742,6.5457,7.0036,7.4324,7.8292,7.9431,7.9929,7.9793,7.6819,7.3274,0.0,0.0,0.0,0.0,0.0,0.0,0.0,0.0,0.0,0.0,0.0,0.0,0.0,0.0,0.0,0.0,0.0,0.0,0.0,0.0,0.0,0.0,0.0,0.0,0.0,0.0,0.0,0.0,4.241,4.3253,4.4071,0.0,0.0,0.0,0.0,0.0,0.0,0.0,0.0,0.0,0.0,6.3245,6.6475,6.8461,6.9669,6.9941,6.998,6.9656,6.8734,6.7709,6.6178,6.3789,0.0,0.0,0.0,0.0,0.0,0.0,0.0,0.0,0.0,0.0,0.0,0.0,0.0,0.0,0.0,0.0,0.0,0.0,0.0,0.0,0.0,0.0,0.0,0.0,0.0,0.0,0.0,0.0,0.0,0.0,0.0,0.0,0.0,0.0,0.0,0.0,0.0,0.0,0.0,0.0,0.0,0.0,0.0,0.0,0.0,0.0,0.0,0.0,0.0,0.0,0.0,0.0,0.0,6.0327,6.5495,7.0624,7.4904,7.8233,7.9929,8.0752,8.0688,7.8221,7.5184,7.1677,0.0,0.0,0.0,0.0,0.0,0.0,0.0,0.0,0.0,0.0,0.0,0.0,0.0,0.0,0.0,0.0,0.0,0.0,0.0,0.0,0.0,0.0,0.0,0.0,0.0,0.0,4.3394,4.421,4.5054,0.0,0.0,0.0,0.0,0.0,0.0,0.0,0.0,0.0,0.0,6.1662,6.4842,6.7502,6.9383,7.0759,7.1563,7.1667,7.1329,7.0512,6.8994,6.7269,0.0,0.0,0.0,0.0,0.0,0.0,0.0,0.0,0.0,0.0,0.0,0.0,0.0,0.0,0.0,0.0,0.0,0.0,0.0,0.0,0.0,0.0,0.0,0.0,0.0,0.0,0.0,4.369,4.3602,0.0,0.0,0.0,0.0,0.0,0.0,0.0,0.0,0.0,0.0,0.0,4.9248,4.9525,0.0,0.0,0.0,0.0,0.0,0.0,0.0,0.0,0.0,0.0,0.0,0.0,6.1467,6.7148,7.1753,7.5746,7.9062,8.0814,8.1377,8.0746,7.8761,7.5028,6.945,0.0,0.0,0.0,0.0,0.0,0.0,0.0,0.0,0.0,0.0,0.0,0.0,0.0,0.0,0.0,0.0,0.0,0.0,0.0,0.0,0.0,0.0,0.0,0.0,0.0,4.5084,0.0,0.0,0.0,0.0,0.0,0.0,0.0,0.0,0.0,0.0,0.0,5.6785,6.0808,6.3857,6.6672,6.9253,7.0614,7.1482,0.0,0.0,0.0,0.0,0.0,0.0,0.0,0.0,0.0,0.0,0.0,0.0,0.0,0.0,5.7899,5.5569,5.5127,5.5109,5.5109,0.0,0.0,0.0,0.0,0.0,0.0,0.0,0.0,0.0,0.0,0.0,0.0,0.0,0.0,0.0,0.0,4.532,0.0,0.0,0.0,0.0,0.0,0.0,0.0,0.0,5.0078,5.152,5.3203,5.3512,5.3664,0.0,5.3665,5.2928,0.0,0.0,0.0,0.0,0.0,0.0,0.0,0.0,6.268,6.8047,7.2631,7.645,7.95,8.1544,8.209,8.1158,7.8909,7.5181,6.9918,6.5644,6.1827,0.0,0.0,0.0,0.0,0.0,0.0,0.0,0.0,0.0,0.0,0.0,0.0,0.0,0.0,0.0,0.0,0.0,0.0,0.0,0.0,0.0,0.0,0.0,4.7202,0.0,0.0,0.0,0.0,0.0,0.0,0.0,0.0,0.0,5.36,5.6126,5.9328,6.3104,6.5842,6.8345,7.0641,0.0,0.0,0.0,0.0,0.0,0.0,0.0,7.1003,6.9876,6.8708,6.7578,6.6733,6.5607,6.4627,6.4067,0.0,0.0,5.8596,5.7843,5.7959,5.8213,5.8681,5.9127,5.9455,6.0615,6.1698,0.0,0.0,0.0,0.0,0.0,0.0,0.0,0.0,4.9062,4.9453,0.0,4.8432,0.0,0.0,0.0,0.0,0.0,0.0,0.0,0.0,5.3373,5.5088,5.6747,5.7586,5.8007,5.8007,5.7968,5.7538,5.6567,5.3396,0.0,0.0,0.0,0.0,0.0,0.0,6.3891,6.828,7.3264,7.7073,7.9686,8.2065,8.2878,8.1937,7.8781,7.5821,7.3157,6.9131,6.539,6.1993,5.8582,0.0,0.0,0.0,0.0,0.0,0.0,0.0,0.0,0.0,0.0,0.0,0.0,0.0,0.0,0.0,0.0,0.0,0.0,0.0,0.0,4.7774,0.0,0.0,0.0,0.0,0.0,0.0,0.0,0.0,0.0,0.0,5.6611,5.9449,6.2444,6.5061,0.0,0.0,0.0,0.0,7.3492,7.435,7.4478,7.4478,7.4466,7.3765,7.3258,7.3223,0.0,0.0,6.943,6.9173,6.9007,6.8972,6.8816,6.7441,6.261,6.1701,6.184,6.2525,6.2778,6.3011,6.3748,6.4619,6.5489,5.593,0.0,0.0,0.0,0.0,5.1157,5.1359,5.1636,5.2248,5.2292,5.1912,5.1443,0.0,0.0,0.0,0.0,0.0,0.0,5.375,5.5999,5.7143,5.8526,6.0158,6.0432,6.0555,6.0555,6.0555,6.0399,6.0138,5.9191,5.753,5.5156,0.0,0.0,0.0,0.0,6.5976,7.078,7.4753,7.8233,8.1343,8.2649,8.287,8.1929,7.9834,7.7515,7.4963,7.1984,6.8801,6.5468,6.208,0.0,0.0,0.0,0.0,0.0,0.0,0.0,0.0,0.0,0.0,0.0,0.0,0.0,0.0,0.0,0.0,0.0,0.0,0.0,5.0547,5.1218,5.1557,0.0,0.0,0.0,0.0,0.0,0.0,0.0,0.0,0.0,6.2458,6.3534,6.5375,0.0,0.0,7.1895,7.4255,7.4821,7.5347,7.6205,0.0,0.0,0.0,7.6118,7.5962,7.5923,7.4956,7.3885,7.2963,7.2312,7.1637,7.1038,7.0922,7.0377,6.9094,6.7603,6.6859,6.7074,6.754,6.8025,6.8335,6.9033,6.9692,6.1616,5.8665,5.6246,5.5191,5.5215,5.5235,5.5439,5.5751,5.5945,5.5717,5.5201,5.4853,5.4076,5.2953,5.2953,0.0,0.0,0.0,5.7387,5.9846,6.0683,6.2149,6.4003,6.409,6.4099,6.4099,6.4099,6.3951,6.3623,6.367,6.268,6.064,0.0,0.0,6.1952,6.449,6.8002,7.2417,7.5872,7.9042,8.2023,8.3205,8.3481,8.2864,8.1252,7.917,7.6675,7.4505,7.1807,6.845,6.5385,6.2158,0.0,0.0,0.0,0.0,0.0,0.0,0.0,0.0,0.0,0.0,0.0,4.3246,4.4443,0.0,0.0,0.0,4.9478,5.1624,5.393,5.4183,0.0,0.0,0.0,0.0,0.0,0.0,0.0,5.8732,6.1637,6.4509,6.7042,6.8327,6.9496,7.0859,7.2362,7.4031,7.601,0.0,7.709,7.7948,7.8096,7.8096,7.8105,7.8065,7.8065,7.8087,7.7618,7.7065,7.6469,7.5896,7.5337,7.4909,7.4753,7.4753,7.4753,7.3783,7.2397,7.0887,7.1162,7.1803,7.2134,7.2948,7.3627,6.6911,6.6493,6.1923,5.9844,5.9529,5.9592,6.0026,6.0737,6.0,5.9611,5.9435,5.8663,5.7349,5.5816,5.5777,0.0,0.0,5.8765,6.0893,6.3341,6.412,6.5795,6.8054,6.8132,6.8171,6.8093,6.8093,6.7686,6.6927,6.6936,6.7032,6.7032,6.4052,6.3263,6.4765,6.716,7.0119,7.3576,7.6864,7.9762,8.2323,8.3742,8.4456,8.4379,8.2708,8.0647,7.8279,7.6651,7.4255,7.0949,6.8379,6.5429,6.2032,0.0,0.0,0.0,0.0,0.0,0.0,0.0,0.0,0.0,0.0,0.0,0.0,0.0,0.0,0.0,5.2746,0.0,5.6659,5.686,0.0,0.0,0.0,5.7343,5.8148,5.9006,6.0522,6.3031,0.0,0.0,7.0589,0.0,7.4147,7.2539,7.4392,7.6322,7.7355,7.8183,7.8924,7.9977,8.0055,8.0016,8.0181,8.008,8.0009,7.9998,7.9762,7.9505,7.9429,7.9272,7.9336,7.9088,7.936,7.9282,7.936,7.8971,7.8163,7.4289,7.4106,7.4769,7.543,7.6187,7.6962,7.0855,7.0213,6.9072,6.675,6.3837,6.3856,6.4021,6.4228,6.4699,6.4165,6.2903,6.2726,6.1697,6.008,6.008,6.0932,6.2399,6.2734,6.4333,6.678,6.7626,6.8631,6.9837,7.0473,7.0486,6.9902,6.9824,6.937,6.8682,6.9262,6.9606,6.9626,6.9504,6.903,6.8293,7.0113,7.2756,7.6184,7.8837,8.1753,8.4777,8.4553,8.4339,8.4379,8.2087,8.0297,7.9151,7.7508,7.5385,7.2704,7.0161,6.7208,6.3823,6.0202,0.0,0.0,0.0,0.0,0.0,0.0,0.0,0.0,0.0,4.6573,4.8896,0.0,5.0927,0.0,5.5978,5.8337,5.9357,6.005,0.0,0.0,6.1043,6.1545,6.1759,6.3047,6.4726,6.6634,6.8502,7.0642,7.3236,7.5296,7.6583,7.6778,7.7372,7.8542,8.0618,8.118,8.1897,8.3139,8.3451,8.3568,8.3412,8.299,8.2521,8.2569,8.1468,8.0592,8.0541,7.9984,7.9544,7.9481,7.9468,7.9468,7.9546,7.9455,7.9506,7.8946,7.8513,7.817,7.8404,7.8637,7.8831,7.2943,7.2579,7.2599,7.1275,6.9119,6.8475,6.8004,6.7708,6.8175,6.7411,6.5773,6.5366,6.4695,6.3904,6.3873,6.4614,6.5853,6.5874,6.7219,6.9613,7.011,7.0951,7.2096,7.2578,7.2555,7.2166,7.2088,7.187,7.1457,7.1926,7.2198,7.2245,7.2773,7.2736,7.2288,7.284,7.4623,7.7645,8.0869,8.3579,8.5658,8.5233,8.4728,8.4379,8.2262,8.0413,7.8863,7.7586,7.5746,7.3289,7.1121,6.8756,6.6087,6.234,5.9273,0.0,0.0,0.0,0.0,0.0,0.0,0.0,0.0,0.0,0.0,0.0,5.3721,0.0,5.924,6.1359,6.2608,6.3134,6.3581,6.3982,6.4451,6.5035,6.5771,6.6664,6.8066,7.0175,7.1928,7.3637,7.5449,7.7504,7.9143,8.0016,8.0485,8.107,8.2046,8.2885,8.3799,8.4653,8.4798,8.4831,8.4831,8.4401,8.4083,8.3951,8.2968,8.2062,8.2026,8.1353,8.0758,8.0708,8.0697,8.0814,8.1154,8.1259,8.1519,8.2195,8.2104,8.1647,8.1228,8.1447,8.1719,7.4525,7.4569,7.453,7.4534,7.4363,7.3068,7.1885,7.0937,7.0953,7.0021,6.8475,6.7528,6.7124,6.7197,6.7073,6.753,6.8455,6.8483,6.9733,7.1962,7.2127,7.2935,7.4321,7.4455,7.4455,7.4339,7.4356,7.4295,7.4211,7.4328,7.4481,7.4728,7.4817,7.5367,7.6209,7.5527,7.6458,7.9032,8.2676,8.5043,8.5912,8.5661,8.5136,8.4359,8.2553,8.0455,7.8202,7.7248,7.5629,7.3319,7.1651,6.999,6.8273,6.4414,6.1768,0.0,5.6989,0.0,0.0,0.0,0.0,0.0,0.0,0.0,0.0,5.4976,5.6815,6.0578,6.2579,6.4301,6.5794,6.6032,6.6435,6.7265,6.75,6.8203,6.9687,6.9997,7.1048,7.3507,7.515,7.6433,7.7547,7.9645,8.1317,8.2215,8.3035,8.3386,8.3125,8.4116,8.5058,8.5092,8.5116,8.5338,8.5299,8.5104,8.4941,8.4888,8.4224,8.367,8.3644,8.302,8.2543,8.2543,8.2504,8.2767,8.3488,8.3516,8.3816,8.4533,8.4676,8.4338,8.3633,8.3851,8.4576,7.7974,7.8046,7.8053,7.765,7.7052,7.6846,7.543,7.3335,7.3355,7.281,7.1847,7.0293,6.9678,6.9708,6.9059,6.9565,7.0992,7.1004,7.1977,7.3742,7.4412,7.4828,7.512,7.5876,7.5856,7.5196,7.5232,7.49,7.4217,7.4911,7.5658,7.6416,7.7131,7.7969,7.8846,0.0,0.0,0.0,8.3789,8.5209,8.6553,8.5247,8.4432,8.4241,8.1269,0.0,7.8115,7.6651,7.4995,7.3241,7.216,0.0,0.0,0.0,0.0,0.0,0.0,0.0,0.0,0.0,0.0,0.0,5.8817,5.8336,5.822,6.0695,6.2666,6.3539,6.5794,6.7324,6.7616,6.8275,6.9007,6.9875,7.0584,7.1445,7.2461,7.3164,7.4375,7.6211,7.6758,7.7812,7.9883,8.0762,8.163,8.3191,8.4089,8.4804,8.5292,8.5674,8.6181,8.6737,8.6762,8.6861,8.6939,8.6314,8.5846,8.5761,8.5137,8.4622,8.4529,8.4403,8.4278,8.423,8.4298,8.4298,8.4493,8.4512,8.4724,8.5582,8.5753,8.5494,8.4624,8.4585,8.4688,7.8915,0.0,7.8975,7.8766,0.0,7.8447,7.7711,7.6411,7.5171,7.4188,7.3392,7.2556,7.2219,7.2283,7.187,7.2157,7.2935,7.2928,7.3589,7.4771,7.5157,7.5565,7.5946,7.6418,7.642,7.5993,7.6478,7.6438,7.6107,7.6902,7.7593,7.8139,7.861,7.9104,7.9617,8.0493,8.1714,8.3299,8.4528,8.5715,8.6782,8.5568,8.4654,8.4178,0.0,0.0,0.0,0.0,0.0,0.0,0.0,0.0,0.0,0.0,0.0,6.5585,6.3923,6.2959,6.2924,6.2538,6.2695,6.3515,6.3945,6.3475,6.1811,6.4458,6.6219,6.627,6.82,6.9607,7.0025,7.0826,7.168,7.251,7.3029,7.3626,7.4492,7.5351,7.6406,7.7656,7.8555,7.9765,8.1406,8.2067,8.2949,8.4525,8.5221,8.5813,8.6572,8.678,8.7018,8.7357,8.742,8.7407,8.7368,8.7095,8.6744,8.6627,8.6041,8.5527,8.5442,8.509,8.481,8.4802,8.4802,8.4919,8.537,8.539,8.5604,8.6401,8.6611,8.6507,8.6001,8.5923,8.5923,7.9327,7.9353,7.9404,7.9313,7.9221,7.9207,7.9129,7.8834,0.0,0.0,0.0,7.4344,7.4324,7.4377,7.4256,7.435,7.4606,7.4611,7.5115,7.6009,7.5993,7.6355,7.7001,7.7014,7.7018,7.7056,7.7775,7.8106,7.8146,7.8865,7.9328,7.9586,7.9656,7.9897,8.0349,8.1831,8.3009,8.3767,8.5088,8.616,8.686,8.601,8.5188,8.4421,8.1988,7.999,7.8494,7.6838,7.5517,7.4625,7.3937,7.3191,7.2344,7.0887,6.9777,6.9015,6.742,6.6805,6.748,6.6742,6.6586,6.7289,6.8226,6.7767,6.5389,6.7451,6.8929,6.9082,7.0502,7.1675,7.2411,7.3075,7.3861,7.472,7.4954,7.5399,7.625,7.7109,7.7969,7.8906,8.0234,8.1562,8.2422,8.3281,8.4372,8.5708,8.6086,8.6483,8.7191,8.7375,8.7379,8.7401,8.7387,8.7414,8.7407,8.7368,8.7407,8.729,8.6783,8.6353,8.6236,8.5729,8.5338,8.541,8.526,8.5605,8.6176,8.6268,8.6473,8.7153,8.7234,8.7248,8.7365,8.7404,8.7404,8.0944,8.1053,8.1053,8.068,8.0034,8.0009,7.9661,7.8901,7.7805,7.6908,7.6101,7.5387,7.5059,7.512,7.4344,7.4829,7.6226,7.6245,7.704,0.0,7.8469,7.8557,7.8641,7.8634,7.8679,7.8679,7.8878,7.8938,7.8938,7.9116,7.9602,8.0357,8.0481,8.1299,8.2835,8.3816,8.4663,8.5517,8.5657,8.6065,8.6793,8.5909,8.5357,8.5125,8.2777,8.1043,8.0145,7.8515,7.6937,7.5448,7.5287,7.4872,7.4088,7.3183,7.2626,7.2392,7.0889,7.0035,7.0158,6.9338,6.8908,6.9098,7.0548,7.0635,6.8937,7.0384,7.1792,7.2496,7.3387,7.4119,7.4257,7.4369,7.4837,7.5579,7.632,7.7107,7.7898,7.8789,7.9609,8.0508,8.1523,8.2461,8.3398,8.4179,8.5075,8.5947,8.6321,8.6533,8.726,8.7421,8.7421,8.742,8.7414,8.7397,8.742,8.7407,8.7407,8.7407,8.729,8.7134,8.7134,8.6939,8.6822,8.6978,8.6822,8.6971,8.7166,8.7135,8.7146,8.7331,8.7376,8.7481,8.8144,8.8339,8.8378,8.2284,8.1986,8.2069,8.1594,8.0873,8.0898,8.0383,7.9571,7.9211,7.8626,7.7876,7.7395,7.7285,7.7306,7.6901,7.7194,7.7969,7.7888,7.8297,7.8977,7.9006,7.9013,7.9003,7.9013,7.8998,7.9037,7.9486,7.9703,7.9786,8.0317,8.0766,8.1271,8.1851,8.2832,8.4089,8.4922,8.574,8.6499,8.6405,8.6514,8.677,8.6364,8.5888,8.5346,8.3759,8.2375,8.1126,7.997,7.8787,7.7598,7.7657,7.7092,7.5845,7.5452,7.4879,7.3977,7.3172,7.2756,7.2768,7.2417,7.2177,7.221,7.2867,7.3264,7.289,7.3169,7.3564,7.3993,7.4774,7.5243,7.5266,7.6086,7.6828,7.7179,7.7999,7.8663,7.9098,7.9867,8.074,8.1601,8.2461,8.3515,8.4844,8.5351,8.5937,8.6708,8.6928,8.7084,8.7461,8.7461,8.7461,8.7461,8.7421,8.7418,8.7411,8.7387,8.7407,8.7407,8.7407,8.7407,8.7407,8.7407,8.7407,8.7407,8.7407,8.7407,8.7407,8.7386,8.7516,8.7965,8.7972,8.8287,8.8976,8.9547,8.9689,8.3303,8.2717,8.267,8.2212,8.1427,8.1453,8.1053,8.0404,8.0435,8.01,7.9545,7.9153,7.9021,7.9021,7.9067,7.9166,7.9338,7.9277,7.9393,7.9532,7.9579,7.9545,7.9559,7.9545,7.9569,7.9647,8.0227,8.0522,8.0648,8.1336,8.1871,8.2183,8.2995,8.3883,8.4988,8.5584,8.6373,8.7267,8.7228,8.7137,8.708,8.7191,8.6842,8.5913,8.5114,8.3938,8.253,8.1536,8.0689,7.9932,7.9748,7.8995,7.7598,7.7533,7.6916,7.5551,7.5179,7.4889,7.4525,7.4486,7.448,7.4499,7.4694,7.5163,7.5897,7.5716,7.5456,7.5534,7.6086,7.6477,7.6828,7.7843,7.8702,7.8741,7.9444,7.9912,8.0068,8.0914,8.1792,8.2578,8.3515,8.4765,8.582,8.6367,8.6758,8.7304,8.7486,8.7486,8.75,8.75,8.7539,8.7656,8.7578,8.7422,8.7422,8.7414,8.7387,8.7414,8.7407,8.7407,8.7407,8.7407,8.7407,8.7407,8.7407,8.7407,8.7407,8.7588,8.7915,8.8404,8.8685,8.9157,8.9936,9.0755,9.1013,8.3618,8.3449,8.2921,8.2146,8.144,8.1427,8.1269,8.1175,8.1175,8.1203,8.0856,7.9636,7.9067,7.8989,7.9091,7.9478,8.0097,8.0072,8.0498,8.118,8.1271,8.1271,8.1169,8.1233,8.1271,8.1233,8.131,8.131,8.1335,8.1608,8.2221,8.3077,8.3243,8.4178,8.5662,8.5852,8.6605,8.8147,8.807,8.7989,8.8011,8.8623,8.8544,8.7693,8.6803,8.5939,8.4906,8.3607,8.2372,8.1581,8.0901,8.0131,7.9306,7.9233,7.8858,7.7979,7.719,7.6123,7.4714,7.4486,7.4597,7.4538,7.5319,7.6092,7.6895,7.7614,7.8026,7.8032,7.8077,7.839,7.9209,7.9483,7.9561,7.9639,8.0341,8.0888,8.1128,8.2359,8.3391,8.3476,8.4883,8.6015,8.6289,8.6836,8.7344,8.7461,8.75,8.75,8.75,8.7617,8.7851,8.8242,8.8008,8.7617,8.7578,8.7422,8.7617,8.7582,8.7446,8.7525,8.7564,8.7486,8.7407,8.7407,8.7407,8.7407,8.7557,8.794,8.847,8.8813,8.9359,9.0054,9.0846,9.1612,9.1754,8.472,8.4324,8.4104,8.3277,8.2136,8.1567,8.1301,8.1253,8.1301,8.1263,8.1196,8.064,8.0448,8.0409,8.0473,8.0691,8.0962,8.0962,8.1155,8.1504,8.1504,8.1504,8.1504,8.1504,8.1504,8.1504,8.1504,8.1504,8.1644,8.2127,8.2997,8.397,8.4527,8.5198,8.593,8.6366,8.7133,8.8206,8.8628,8.9004,8.941,8.9306,8.8787,8.7963,8.7577,8.6687,8.5462,8.4746,8.4095,8.3247,8.2514,8.1787,8.098,8.0504,7.9897,7.911,7.8291,7.7301,7.6145,7.6035,7.6216,7.6708,7.7082,7.7619,7.8418,7.8896,7.9314,7.9736,7.9437,7.9326,7.9717,8.0146,8.0459,8.0576,8.1239,8.1942,8.2528,8.3164,8.3929,8.4961,8.5742,8.6445,8.6875,8.7265,8.75,8.75,8.75,8.75,8.7539,8.789,8.832,8.8633,8.8789,8.8984,8.8906,8.8945,8.8906,8.8828,8.8498,8.8173,8.8078,8.7642,8.7407,8.7407,8.7407,8.7407,8.7407,8.8103,8.8759,8.9329,9.054,9.1496,9.1807,9.2158,9.2143,8.5651,8.5109,8.501,8.4069,8.2509,8.1898,8.1445,8.1201,8.1214,8.1205,8.1184,8.1291,8.1374,8.1374,8.1453,8.1504,8.1504,8.1504,8.1504,8.1504,8.1504,8.1504,8.1504,8.1504,8.1504,8.1542,8.1774,8.1993,8.2249,8.2925,8.385,8.4825,8.5482,8.5944,8.6272,8.6839,8.7564,8.8515,8.9066,8.9784,9.0598,9.0207,8.9483,8.866,8.835,8.7538,8.6068,8.5691,8.5219,8.4583,8.3893,8.317,8.2403,8.1773,8.1013,8.0035,7.9179,7.8456,7.7809,7.7762,7.8026,7.8555,7.8652,7.8993,7.9723,7.9957,8.0339,8.1078,8.0946,8.0765,8.0498,8.1005,8.1396,8.1669,8.2293,8.2996,8.3777,8.4089,8.4814,8.5973,8.6367,8.6758,8.7304,8.75,8.75,8.75,8.75,8.7617,8.7812,8.8359,8.8828,8.9297,9.0,9.0156,9.0078,8.9844,9.0,8.9922,8.9371,8.8974,8.8797,8.8089,8.7525,8.7564,8.7486,8.7642,8.7993,8.8579,8.9469,9.05,9.1515,9.2327,9.2302,9.2405,9.2391,8.5996,8.5839,8.5273,8.4057,8.2459,8.24,8.1916,8.1285,8.117,8.1131,8.1201,8.1273,8.1291,8.1319,8.1504,8.1504,8.1542,8.1581,8.162,8.1658,8.162,8.1542,8.1504,8.1504,8.1581,8.1813,8.2432,8.3164,8.3995,8.4134,8.4704,8.5719,8.5834,8.6238,8.6878,8.7037,8.7817,8.9111,8.9353,9.0069,9.1395,9.1561,9.1058,9.0246,8.9511,8.8621,8.7654,8.6272,8.5491,8.5458,8.4766,8.397,8.3248,8.3143,8.2401,8.0959,8.0023,7.9528,7.9413,7.9335,7.9432,7.9539,7.9539,7.9879,8.0674,8.0881,8.1304,8.2036,8.2764,8.2858,8.2293,8.2293,8.2606,8.3191,8.3386,8.3855,8.4675,8.5338,8.5903,8.6276,8.6873,8.7383,8.7539,8.75,8.7617,8.7656,8.7617,8.7851,8.8515,8.875,8.9492,9.0547,9.1054,9.0976,9.0234,9.0429,9.0312,9.0234,9.0273,8.9765,8.9101,8.8541,8.8173,8.7837,8.7876,8.811,8.8657,8.9469,9.0562,9.1406,9.1964,9.2479,9.2393,9.2405,9.2391,8.5958,8.5983,8.5247,8.4549,8.4003,8.3394,8.2971,8.2638,8.2093,8.1862,8.1778,8.1445,8.1273,8.133,8.198,8.2265,8.2316,8.2316,8.2625,8.3115,8.3167,8.3167,8.3167,8.3167,8.3167,8.3206,8.3476,8.4132,8.4948,8.5025,8.5557,8.6399,8.6573,8.6747,8.7078,8.7526,8.8321,8.926,8.9809,9.0585,9.1561,9.1716,9.1522,9.1213,8.9898,8.8814,8.7925,8.6842,8.6281,8.6311,8.5579,8.5058,8.4803,8.3859,8.2557,8.1064,8.0569,8.0191,7.9705,7.9588,7.9851,8.0357,8.0374,8.0752,8.1519,8.2155,8.2647,8.3118,8.38,8.413,8.4004,8.3894,8.4011,8.4245,8.4362,8.4675,8.5416,8.5924,8.6288,8.6862,8.7304,8.7656,8.8164,8.8281,8.8476,8.8984,8.9101,8.9219,8.9531,8.9961,9.0586,9.1172,9.1758,9.2031,9.1797,9.1719,9.1679,9.1484,9.1328,9.0898,9.0351,8.9687,8.9271,8.9015,8.8813,8.893,8.9594,9.0257,9.1343,9.1952,9.251,9.2479,9.2405,9.2419,9.2391,8.5923,8.6017,8.5517,8.5132,8.483,8.4286,8.3862,8.3555,8.2978,8.2554,8.2317,8.207,8.1899,8.1908,8.2687,8.3308,8.3515,8.336,8.354,8.4043,8.4095,8.4095,8.4134,8.4095,8.4095,8.4134,8.4405,8.4984,8.5816,8.5917,8.6295,8.6943,8.7021,8.7021,8.7137,8.7816,8.8529,8.929,9.0094,9.0895,9.16,9.1716,9.1716,9.1522,9.0323,8.9163,8.8312,8.7539,8.697,8.6731,8.6295,8.5931,8.5697,8.4482,8.3063,8.1805,8.1688,8.1321,8.058,8.0425,8.0814,8.1622,8.1688,8.2026,8.2844,8.3507,8.3816,8.4093,8.4688,8.5175,8.5286,8.5456,8.5534,8.5299,8.5221,8.5573,8.6353,8.651,8.6957,8.7609,8.789,8.8281,8.8906,8.9101,8.9375,8.9961,9.0,9.0039,9.0429,9.0859,9.1445,9.1719,9.2187,9.2461,9.2344,9.2226,9.2265,9.2148,9.2031,9.1758,9.1328,9.0742,9.0369,9.0153,9.0101,9.0179,9.0531,9.1155,9.1773,9.2381,9.252,9.249,9.2456,9.2419,9.2405,8.5923,8.6094,8.6094,8.5632,8.5055,8.4939,8.4401,8.3862,8.367,8.3247,8.2747,8.3226,8.3094,8.2912,8.3509,8.4364,8.4869,8.4482,8.4289,8.4366,8.4327,8.4301,8.434,8.4405,8.4366,8.4405,8.4985,8.5797,8.663,8.6654,8.6799,8.6961,8.6982,8.7001,8.702,8.7852,8.86,8.9329,9.0133,9.0946,9.1561,9.1716,9.1716,9.1638,9.0865,9.0014,8.9228,8.843,8.7642,8.6916,8.6871,8.6553,8.5834,8.4971,8.4108,8.3375,8.3338,8.2961,8.226,8.2116,8.2506,8.3091,8.3351,8.3585,8.4208,8.4598,8.474,8.4912,8.5507,8.6033,8.623,8.6705,8.6861,8.6275,8.6119,8.6471,8.7056,8.7407,8.7743,8.8476,8.875,8.9062,8.9726,9.0,9.0117,9.0273,9.0351,9.0547,9.1172,9.1445,9.1758,9.2265,9.2539,9.2578,9.2578,9.2578,9.2578,9.2539,9.2461,9.2265,9.1836,9.1322,9.1145,9.0928,9.0804,9.0882,9.1233,9.178,9.2053,9.2507,9.252,9.249,9.2456,9.2432,9.2405,8.646,8.6132,8.6094,8.5978,8.5747,8.5709,8.5555,8.5286,8.4753,8.433,8.4055,8.3779,8.3564,8.3654,8.4329,8.4955,8.5294,8.5604,8.5797,8.5836,8.5797,8.5797,8.5771,8.5797,8.5836,8.5836,8.6068,8.6416,8.6708,8.6809,8.6877,8.7,8.702,8.702,8.7059,8.8257,8.912,8.9421,9.0663,9.1473,9.1677,9.1716,9.1716,9.1677,9.1406,9.0903,9.0052,8.9267,8.8468,8.7628,8.7701,8.7131,8.6029,8.5555,8.5004,8.4348,8.426,8.4208,8.3935,8.3858,8.3935,8.4208,8.4286,8.4403,8.4754,8.526,8.5558,8.5692,8.6366,8.6931,8.7042,8.7212,8.7251,8.7017,8.7017,8.7056,8.7446,8.7972,8.8661,8.9414,8.9609,9.0,9.0625,9.0898,9.1094,9.1562,9.1679,9.1836,9.207,9.2109,9.2226,9.2578,9.2578,9.2578,9.2578,9.2578,9.2578,9.2578,9.2578,9.2578,9.2187,9.1945,9.1809,9.1669,9.1585,9.1624,9.1975,9.2209,9.2443,9.2507,9.252,9.249,9.2456,9.2432,9.2405,8.719,8.6594,8.6594,8.6401,8.6132,8.6094,8.6094,8.6017,8.556,8.5137,8.4863,8.467,8.4419,8.4503,8.5188,8.5854,8.63,8.688,8.7267,8.7383,8.6764,8.661,8.661,8.661,8.661,8.661,8.661,8.6687,8.6809,8.6809,8.6877,8.6961,8.702,8.6982,8.7117,8.8468,8.929,8.9474,9.0842,9.1716,9.1716,9.1716,9.1716,9.1716,9.1716,9.1406,9.0865,9.0362,8.9615,8.8623,8.8234,8.7614,8.6787,8.6454,8.5922,8.5253,8.5064,8.5013,8.4754,8.4598,8.4871,8.5104,8.5182,8.5338,8.5611,8.6235,8.6416,8.6579,8.6941,8.7321,8.7386,8.7401,8.7407,8.7407,8.7368,8.7564,8.7882,8.8646,8.9523,9.0234,9.0508,9.0898,9.1484,9.1797,9.1992,9.25,9.2578,9.2578,9.2578,9.2578,9.2578,9.2578,9.2578,9.2578,9.2578,9.2578,9.2578,9.2578,9.2578,9.2578,9.2422,9.2383,9.2278,9.2222,9.2131,9.2053,9.2326,9.2365,9.2522,9.2498,9.252,9.249,9.2468,9.2419,9.2391,8.8073,8.7517,8.7478,8.6978,8.6286,8.6247,8.6209,8.6094,8.6055,8.5632,8.5247,8.5632,8.5652,8.5428,8.6075,8.6896,8.7743,8.7925,8.8312,8.8455,8.7693,8.6958,8.6842,8.6687,8.661,8.661,8.661,8.6687,8.6809,8.6809,8.6877,8.6982,8.6982,8.7039,8.7347,8.8545,8.9329,8.9617,9.0931,9.1677,9.1716,9.1716,9.1716,9.1716,9.1716,9.1677,9.1561,9.1445,9.0826,8.9422,8.866,8.8251,8.8127,8.7526,8.6744,8.6077,8.6008,8.5609,8.5104,8.5104,8.5338,8.5962,8.6079,8.6351,8.6858,8.7131,8.73,8.7376,8.7565,8.7624,8.7729,8.7745,8.7759,8.7603,8.772,8.7954,8.8696,8.9544,9.0422,9.1133,9.1406,9.164,9.2383,9.2461,9.2539,9.2578,9.2578,9.2578,9.2578,9.2578,9.2578,9.2578,9.2578,9.2578,9.2578,9.2578,9.2578,9.2578,9.2578,9.2578,9.2578,9.2578,9.259,9.2574,9.2561,9.2522,9.2482,9.2482,9.2522,9.2507,9.249,9.25,9.2468,9.2419,9.243,8.8917,8.8363,8.8363,8.7863,8.7094,8.7055,8.6671,8.617,8.6094,8.5978,8.5863,8.6017,8.6043,8.6023,8.6855,8.7524,8.7997,8.8555,8.8931,8.9085,8.8814,8.8118,8.7499,8.6919,8.661,8.661,8.661,8.6687,8.6785,8.6809,8.6877,8.6982,8.7059,8.735,8.7946,8.8849,8.959,9.0198,9.1124,9.1716,9.1716,9.1716,9.1716,9.1716,9.1716,9.1716,9.1716,9.1716,9.1279,9.0249,8.9396,8.9042,8.9055,8.8439,8.7889,8.7634,8.7152,8.6806,8.6585,8.6507,8.6663,8.6819,8.6819,8.6975,8.717,8.7793,8.8118,8.835,8.8774,8.9145,8.9212,8.9228,8.9242,8.9242,8.8774,8.8774,8.9561,9.0442,9.1281,9.207,9.2187,9.2344,9.25,9.2578,9.2578,9.2578,9.2578,9.2578,9.2578,9.2578,9.2578,9.2578,9.2578,9.2578,9.2578,9.2578,9.2578,9.2578,9.2578,9.2578,9.2578,9.2578,9.2585,9.2574,9.2522,9.2522,9.2482,9.2482,9.2514,9.2507,9.249,9.25,9.2456,9.2419,9.2483,8.9799,8.921,8.921,8.8709,8.794,8.755,8.7127,8.6632,8.6247,8.6094,8.6094,8.6094,8.6319,8.6801,8.7326,8.8082,8.8798,8.9388,8.987,9.0168,8.9859,8.9047,8.8041,8.7306,8.6996,8.661,8.661,8.6649,8.6785,8.6809,8.6877,8.7078,8.737,8.7756,8.8135,8.9294,9.0017,9.0532,9.1279,9.1716,9.1716,9.1716,9.1716,9.1716,9.1716,9.1716,9.1716,9.1716,9.1473,9.0973,9.0288,8.9857,8.9887,8.9275,8.894,8.8918,8.8476,8.813,8.7793,8.7715,8.7559,8.7287,8.7209,8.7404,8.7715,8.8261,8.8586,8.9105,8.9621,8.9847,8.9905,8.9969,8.9984,8.9906,8.9867,8.9984,9.0531,9.133,9.1978,9.2461,9.2578,9.2578,9.2578,9.2578,9.2578,9.2578,9.2578,9.2578,9.2578,9.2578,9.2578,9.2578,9.2617,9.2617,9.2695,9.2695,9.2773,9.2734,9.2773,9.2734,9.2595,9.258,9.2574,9.2567,9.2522,9.2482,9.2482,9.2482,9.2522,9.2507,9.2481,9.25,9.2507,9.2588,9.26,9.0603,9.0017,9.0017,8.9556,8.8786,8.8012,8.7627,8.7209,8.6632,8.6209,8.617,8.6209,8.6704,8.7462,8.7879,8.8682,9.0126,9.0265,9.0856,9.1069,9.0759,8.982,8.8544,8.7925,8.7461,8.6919,8.6687,8.6687,8.6785,8.6809,8.6954,8.7311,8.7973,8.8339,8.8786,8.9901,9.0478,9.0749,9.1329,9.1677,9.1716,9.1716,9.1716,9.1716,9.1716,9.1716,9.1716,9.1716,9.1666,9.1759,9.1101,9.0788,9.0741,9.0149,8.9799,8.9735,8.959,8.9207,8.8728,8.8495,8.8144,8.7598,8.7404,8.7637,8.83,8.8767,8.9313,8.9897,9.0078,9.0384,9.0374,9.0282,9.0374,9.0531,9.096,9.1194,9.1546,9.2131,9.2585,9.2578,9.2578,9.2578,9.2578,9.2578,9.2578,9.2578,9.2578,9.2578,9.2578,9.2578,9.2578,9.2578,9.2617,9.2695,9.2773,9.2851,9.2929,9.2969,9.3047,9.2981,9.2658,9.2606,9.2606,9.2561,9.2522,9.2482,9.2482,9.2482,9.2482,9.2514,9.2498,9.2598,9.2646,9.2846,9.2938,9.0949,9.0902,9.0941,9.0441,8.971,8.9402,8.8594,8.744,8.7242,8.6786,8.6401,8.6824,8.7248,8.755,8.881,8.9806,9.0262,9.0789,9.1346,9.1513,9.1533,9.0865,8.9704,8.8698,8.7886,8.7461,8.688,8.6687,8.6785,8.6925,8.7265,8.7971,8.8341,8.8882,8.9988,9.0339,9.0914,9.1329,9.1638,9.1677,9.1716,9.1716,9.1716,9.1716,9.1716,9.1716,9.1716,9.1716,9.1716,9.1694,9.1657,9.15,9.1416,9.1024,9.0729,9.0608,9.0151,8.9767,8.9469,8.9001,8.8456,8.83,8.8222,8.83,8.8534,8.9781,9.0443,9.0963,9.1481,9.173,9.1679,9.1304,9.1311,9.1585,9.1546,9.1585,9.2092,9.2443,9.2574,9.259,9.2578,9.2617,9.2617,9.2695,9.2695,9.2617,9.2656,9.2617,9.2734,9.2851,9.2969,9.3164,9.3164,9.332,9.3554,9.3633,9.3633,9.3476,9.3437,9.3322,9.2997,9.2561,9.2561,9.2561,9.2522,9.2482,9.2482,9.2482,9.2482,9.2514,9.2546,9.2802,9.2969,9.317,9.3653,9.1136,9.121,9.121,9.0941,9.0479,9.0056,8.9402,8.8594,8.8166,8.7781,8.7478,8.7863,8.8209,8.8594,8.9552,9.0163,9.0625,9.1154,9.1445,9.157,9.1649,9.1445,9.0942,8.9704,8.8776,8.7963,8.6996,8.6726,8.6863,8.7235,8.773,8.838,8.9002,8.9814,9.057,9.0985,9.1367,9.16,9.1716,9.1716,9.1716,9.1716,9.1716,9.1716,9.1716,9.1716,9.1716,9.1716,9.1716,9.1705,9.1812,9.1888,9.1897,9.1685,9.1585,9.1465,9.1295,9.0755,9.0404,9.0014,8.9547,8.9118,8.9118,8.9391,8.9664,9.0638,9.1222,9.1665,9.2144,9.2471,9.2475,9.2209,9.217,9.2287,9.2131,9.2053,9.2404,9.2522,9.2561,9.2574,9.2578,9.289,9.3008,9.3125,9.3554,9.3828,9.3984,9.3984,9.4062,9.414,9.4062,9.414,9.4023,9.4101,9.4375,9.4492,9.4492,9.4258,9.3984,9.3762,9.3465,9.2997,9.2522,9.2522,9.2482,9.2482,9.2482,9.2482,9.2482,9.2522,9.2631,9.3006,9.3378,9.3582,9.434,9.121,9.121,9.121,9.121,9.1095,9.0441,9.0017,8.9748,8.9171,8.8709,8.8748,8.8786,8.9171,8.9787,9.0056,9.0594,9.1018,9.1318,9.149,9.157,9.1659,9.1638,9.1329,9.0555,8.9627,8.8273,8.7577,8.7307,8.7498,8.7894,8.8484,8.8903,8.9973,9.0669,9.0981,9.145,9.1754,9.1744,9.1948,9.187,9.1832,9.1832,9.1948,9.1716,9.1716,9.1716,9.1716,9.1716,9.1716,9.1716,9.1812,9.1863,9.1936,9.2092,9.2187,9.2187,9.2098,9.1832,9.1339,9.1028,9.0638,9.0014,9.0014,9.0287,9.0833,9.1222,9.169,9.2068,9.2468,9.252,9.2514,9.2404,9.2404,9.2482,9.2482,9.2482,9.2482,9.2482,9.2522,9.2613,9.289,9.3281,9.3633,9.3906,9.4492,9.5,9.5156,9.5234,9.5273,9.5195,9.4961,9.4804,9.4609,9.4922,9.5234,9.5742,9.5703,9.5195,9.4804,9.4439,9.4103,9.3504,9.3029,9.2561,9.2482,9.2482,9.2482,9.2482,9.2482,9.2482,9.2866,9.3404,9.3739,9.4032,9.5015,9.121,9.121,9.121,9.121,9.1171,9.1018,9.0556,8.9979,8.979,8.9325,8.8902,8.9402,8.9787,9.0094,9.071,9.1056,9.121,9.1352,9.1413,9.15,9.1591,9.1716,9.1522,9.0981,9.0246,8.9898,8.9163,8.8791,8.8674,8.9033,8.9454,9.0181,9.0651,9.1096,9.1548,9.1863,9.1926,9.2042,9.2363,9.2373,9.2064,9.2218,9.2335,9.187,9.187,9.187,9.1832,9.1793,9.1716,9.1716,9.1812,9.1902,9.2014,9.2148,9.2171,9.2226,9.2276,9.2206,9.1987,9.1495,9.1144,9.0911,9.0872,9.0872,9.1261,9.169,9.2093,9.2288,9.2451,9.2498,9.2522,9.2482,9.2482,9.2482,9.2482,9.2482,9.2482,9.2482,9.2522,9.2606,9.3125,9.375,9.4179,9.4648,9.5234,9.5625,9.5781,9.5781,9.5781,9.5625,9.539,9.5234,9.5117,9.5586,9.6133,9.6719,9.6992,9.6328,9.5859,9.5429,9.4938,9.4136,9.3576,9.3107,9.2678,9.2482,9.2482,9.2522,9.2639,9.2756,9.3263,9.3802,9.445,9.5056,9.5884,9.121,9.121,9.121,9.121,9.121,9.121,9.0979,9.0633,9.0594,9.0402,9.021,9.0402,9.0594,9.071,9.0941,9.121,9.1245,9.1347,9.1374,9.1431,9.1591,9.1716,9.1716,9.1213,9.1135,9.0981,9.0633,8.9925,8.9346,8.977,9.0206,9.0663,9.1156,9.17,9.1905,9.1902,9.2134,9.2444,9.2788,9.2876,9.2373,9.2528,9.2218,9.2412,9.2412,9.2567,9.2953,9.2992,9.2992,9.2982,9.2742,9.2599,9.2518,9.2299,9.2191,9.2247,9.226,9.2308,9.2377,9.1963,9.1807,9.1768,9.1768,9.1768,9.1846,9.2158,9.2419,9.2468,9.2461,9.2498,9.2522,9.2482,9.2482,9.2482,9.2482,9.2482,9.2482,9.2482,9.2561,9.2724,9.3359,9.4023,9.4726,9.5273,9.5937,9.625,9.6406,9.6367,9.6328,9.625,9.6133,9.6172,9.6133,9.6367,9.6836,9.7187,9.7617,9.7148,9.6719,9.6289,9.5809,9.5045,9.4214,9.3537,9.3146,9.2841,9.2522,9.2522,9.2756,9.3068,9.3615,9.4271,9.5317,9.6197,9.6831,9.121,9.121,9.121,9.121,9.121,9.121,9.121,9.121,9.1171,9.1133,9.121,9.1171,9.1133,9.1171,9.1171,9.121,9.1245,9.138,9.1406,9.147,9.1591,9.1716,9.1716,9.1716,9.1638,9.1522,9.1484,9.1008,9.0288,9.052,9.0826,9.1145,9.1795,9.2088,9.2022,9.2223,9.2599,9.2948,9.3446,9.3495,9.3302,9.2721,9.2489,9.3147,9.3224,9.3562,9.3921,9.3998,9.3998,9.39,9.371,9.3439,9.3308,9.2743,9.2384,9.2441,9.2377,9.2331,9.2377,9.2391,9.2274,9.2274,9.2352,9.2391,9.2352,9.2327,9.2444,9.249,9.2481,9.2507,9.2522,9.2482,9.2482,9.2482,9.2482,9.2482,9.2482,9.2561,9.2717,9.3048,9.3664,9.4297,9.5,9.6094,9.6797,9.6914,9.707,9.7109,9.707,9.7187,9.7187,9.7344,9.7383,9.7383,9.7461,9.7422,9.7656,9.75,9.7187,9.6875,9.6445,9.5958,9.5162,9.4448,9.3868,9.3561,9.3081,9.2717,9.3107,9.3537,9.4005,9.4739,9.5793,9.6518,9.7075,9.121,9.121,9.121,9.121,9.121,9.121,9.121,9.121,9.121,9.121,9.121,9.121,9.121,9.121,9.121,9.1206,9.1308,9.1374,9.1438,9.1539,9.1659,9.1716,9.1716,9.1716,9.1716,9.1716,9.1716,9.1638,9.1268,9.145,9.1655,9.1781,9.185,9.2148,9.2321,9.2658,9.3065,9.3426,9.4508,9.512,9.4926,9.4191,9.3921,9.3998,9.4075,9.422,9.4462,9.4539,9.4501,9.4375,9.433,9.4292,9.4162,9.3597,9.3356,9.3123,9.2749,9.2276,9.2416,9.243,9.243,9.243,9.243,9.243,9.2405,9.2444,9.2479,9.249,9.249,9.2514,9.2482,9.2482,9.2482,9.2482,9.2482,9.2482,9.2522,9.2873,9.3029,9.3615,9.427,9.4754,9.5312,9.6523,9.7578,9.7656,9.7695,9.7695,9.7695,9.7695,9.7695,9.7695,9.7695,9.7695,9.7695,9.7695,9.7695,9.7695,9.7539,9.7344,9.7031,9.6671,9.6348,9.5675,9.5016,9.423,9.3589,9.3419,9.3654,9.42,9.4903,9.5527,9.623,9.6839,9.7368,9.121,9.121,9.121,9.121,9.121,9.121,9.121,9.121,9.121,9.121,9.121,9.121,9.121,9.121,9.1206,9.1275,9.1341,9.1438,9.1539,9.1608,9.1659,9.1716,9.1716,9.1716,9.1716,9.1716,9.1716,9.1716,9.1771,9.1812,9.1888,9.1912,9.2083,9.242,9.2731,9.3092,9.3798,9.4499,9.5205,9.5468,9.5274,9.4772,9.4462,9.4888,9.4916,9.512,9.5468,9.5623,9.5661,9.5574,9.5454,9.5145,9.4976,9.4529,9.4133,9.4192,9.3938,9.3328,9.2572,9.2469,9.2508,9.243,9.243,9.243,9.2405,9.2495,9.2529,9.249,9.2498,9.2561,9.2561,9.2482,9.2482,9.2522,9.2756,9.2678,9.2834,9.3146,9.3537,9.42,9.4903,9.5402,9.5887,9.6797,9.7617,9.7656,9.7695,9.7695,9.7695,9.7695,9.7695,9.7695,9.7695,9.7695,9.7695,9.7695,9.7695,9.7695,9.7695,9.7539,9.7539,9.7302,9.6945,9.6587,9.5958,9.5129,9.4253,9.4246,9.4637,9.5215,9.5879,9.6386,9.6816,9.712,9.7533,9.121,9.121,9.121,9.121,9.121,9.121,9.121,9.121,9.121,9.121,9.121,9.121,9.121,9.121,9.1275,9.1308,9.1341,9.1539,9.16,9.1629,9.1659,9.1716,9.1716,9.1716,9.1716,9.1716,9.1716,9.1716,9.1732,9.1812,9.1888,9.1927,9.2355,9.2731,9.3314,9.3953,9.47,9.579,9.5902,9.5922,9.5777,9.5313,9.539,9.5623,9.5855,9.6057,9.6637,9.6676,9.6645,9.6551,9.6306,9.6036,9.5946,9.5383,9.5087,9.5009,9.4794,9.4167,9.3531,9.3249,9.3054,9.2976,9.282,9.2976,9.3146,9.2963,9.2997,9.327,9.3357,9.3295,9.3146,9.3263,9.338,9.3419,9.338,9.3185,9.3224,9.3771,9.4356,9.5098,9.5723,9.6191,9.673,9.7257,9.7617,9.7656,9.7695,9.7695,9.7695,9.7695,9.7695,9.7695,9.7695,9.7695,9.7695,9.7695,9.7695,9.7695,9.7695,9.7695,9.7656,9.7617,9.7381,9.7027,9.6719,9.6476,9.5845,9.5714,9.5613,9.5996,9.6386,9.6972,9.7401,9.7589,9.7659,9.121,9.121,9.121,9.121,9.121,9.121,9.121,9.121,9.121,9.121,9.121,9.121,9.121,9.1206,9.1275,9.1374,9.14,9.1531,9.1629,9.1687,9.1716,9.1716,9.1716,9.1716,9.1716,9.1716,9.1716,9.1716,9.1782,9.2044,9.1979,9.199,9.2765,9.3159,9.3935,9.4924,9.5723,9.6527,9.6627,9.6609,9.658,9.6435,9.6512,9.6521,9.6615,9.6661,9.6699,9.6699,9.6731,9.6723,9.6704,9.6695,9.6527,9.6159,9.5921,9.5904,9.5533,9.508,9.4793,9.4457,9.4613,9.4457,9.4145,9.3847,9.4184,9.386,9.4011,9.4451,9.4372,9.4552,9.4669,9.4864,9.4512,9.4395,9.4239,9.4278,9.4356,9.4669,9.5293,9.5996,9.6503,9.6894,9.7103,9.752,9.7654,9.7695,9.7695,9.7695,9.7695,9.7695,9.7695,9.7695,9.7695,9.7695,9.7695,9.7695,9.7695,9.7695,9.7695,9.7695,9.7695,9.7617,9.7578,9.7539,9.7265,9.7383,9.7381,9.6817,9.6439,9.655,9.6855,9.7323,9.7511,9.762,9.7641,9.121,9.121,9.121,9.121,9.121,9.121,9.121,9.121,9.121,9.121,9.121,9.121,9.121,9.1206,9.1308,9.1368,9.14,9.1591,9.1687,9.1716,9.1716,9.1716,9.1716,9.1716,9.1716,9.1716,9.1716,9.2064,9.2489,9.2483,9.3039,9.3347,9.3503,9.413,9.4984,9.5872,9.6616,9.6812,9.6926,9.687,9.6812,9.6822,9.6792,9.6731,9.6622,9.6629,9.6661,9.659,9.6661,9.6753,9.6926,9.6979,9.7031,9.6703,9.6698,9.6799,9.6389,9.6326,9.6078,9.5548,9.4924,9.49,9.4666,9.4679,9.5055,9.464,9.4624,9.4929,9.5191,9.5332,9.5137,9.5098,9.4981,9.5059,9.5176,9.5254,9.541,9.5723,9.5957,9.6503,9.6972,9.7362,9.7532,9.7667,9.7687,9.7695,9.7695,9.7695,9.7695,9.7695,9.7695,9.7695,9.7695,9.7695,9.7695,9.7695,9.7695,9.7695,9.7695,9.7695,9.7695,9.7695,9.7656,9.7695,9.7695,9.7617,9.75,9.7383,9.7265,9.7181,9.7291,9.7558,9.7659,9.765,9.7632,9.121,9.121,9.121,9.121,9.121,9.121,9.121,9.121,9.121,9.121,9.121,9.121,9.121,9.1245,9.1341,9.14,9.1431,9.1591,9.1687,9.1716,9.1716,9.1716,9.1716,9.1716,9.1716,9.1716,9.1793,9.2102,9.2876,9.3064,9.3736,9.4239,9.4451,9.5062,9.5645,9.6648,9.7106,9.7031,9.6979,9.6898,9.6841,9.6822,9.6792,9.6731,9.659,9.6558,9.6558,9.6558,9.659,9.6753,9.6898,9.6979,9.7057,9.713,9.7242,9.7363,9.742,9.7455,9.713,9.6614,9.5732,9.594,9.5511,9.555,9.5628,9.5576,9.5549,9.5923,9.5924,9.5832,9.5801,9.6074,9.6152,9.6308,9.6269,9.6347,9.6386,9.6582,9.6699,9.6972,9.7323,9.7597,9.7617,9.7695,9.7695,9.7695,9.7695,9.7695,9.7695,9.7695,9.7695,9.7695,9.7695,9.7695,9.7695,9.7695,9.7695,9.7695,9.7695,9.7695,9.7695,9.7695,9.7695,9.7695,9.7695,9.7695,9.7617,9.75,9.755,9.7617,9.7689,9.7675,9.7667,9.765,9.7632,9.121,9.121,9.121,9.121,9.121,9.121,9.121,9.121,9.121,9.121,9.121,9.121,9.121,9.1245,9.1341,9.14,9.1431,9.1591,9.1716,9.1716,9.1716,9.1716,9.1716,9.1716,9.1716,9.1716,9.1909,9.2373,9.3108,9.3517,9.4344,9.5311,9.5655,9.58,9.5994,9.6771,9.7153,9.7106,9.7031,9.6953,9.687,9.6851,9.6792,9.6661,9.6597,9.6525,9.6525,9.6525,9.6558,9.6723,9.6898,9.7006,9.7031,9.713,9.7242,9.7382,9.7401,9.7455,9.7457,9.7447,9.7292,9.707,9.6524,9.6499,9.7006,9.6889,9.6485,9.6859,9.7124,9.7308,9.7472,9.7479,9.7323,9.7245,9.7167,9.7167,9.7167,9.7167,9.7245,9.7245,9.7479,9.7682,9.7701,9.7695,9.7695,9.7695,9.7695,9.7695,9.7695,9.7695,9.7695,9.7695,9.7695,9.7695,9.7695,9.7695,9.7695,9.7695,9.7695,9.7695,9.7695,9.7695,9.7695,9.7695,9.7695,9.7695,9.7695,9.7656,9.7706,9.7689,9.7682,9.7675,9.7667,9.7659,9.7641,9.121,9.121,9.121,9.121,9.121,9.121,9.121,9.121,9.121,9.121,9.121,9.121,9.121,9.1241,9.1341,9.14,9.1431,9.1591,9.1716,9.1716,9.1716,9.1716,9.1716,9.1716,9.1716,9.187,9.218,9.2915,9.3843,9.4291,9.5338,9.6358,9.6571,9.6733,9.681,9.7121,9.7176,9.7106,9.7018,9.6967,9.6898,9.6812,9.6723,9.6597,9.6492,9.6492,9.6492,9.6492,9.6597,9.6723,9.6926,9.6979,9.7031,9.713,9.7242,9.7382,9.7401,9.7488,9.7525,9.7577,9.7589,9.7483,9.7355,9.7226,9.7474,9.7357,9.7409,9.7522,9.7583,9.765,9.7628,9.7636,9.7558,9.7558,9.7518,9.7518,9.7558,9.7558,9.7597,9.7558,9.7675,9.7689,9.7706,9.7695,9.7695,9.7695,9.7695,9.7695,9.7695,9.7695,9.7695,9.7695,9.7695,9.7695,9.7695,9.7695,9.7695,9.7695,9.7695,9.7695,9.7695,9.7695,9.7695,9.7695,9.7706,9.7672,9.7672,9.7706,9.7695,9.7682,9.7675,9.7675,9.7675,9.7667,9.765,9.121,9.121,9.121,9.121,9.121,9.121,9.121,9.121,9.121,9.121,9.121,9.121,9.121,9.1206,9.1308,9.1406,9.1438,9.1561,9.1716,9.1716,9.1716,9.1716,9.1716,9.1716,9.1716,9.1948,9.2605,9.3379,9.4114,9.5182,9.6075,9.6757,9.7153,9.7082,9.716,9.716,9.7176,9.7106,9.7043,9.6967,9.6898,9.6812,9.6692,9.6597,9.6564,9.6564,9.6564,9.6564,9.6629,9.6783,9.6898,9.6979,9.7031,9.7106,9.7242,9.7363,9.7455,9.7481,9.7565,9.7611,9.7611,9.7632,9.7611,9.7589,9.7604,9.7513,9.7526,9.755,9.7572,9.7641,9.7667,9.7675,9.7675,9.7675,9.7675,9.7675,9.7675,9.7675,9.7675,9.7675,9.7675,9.7695,9.7695,9.7695,9.7695,9.7695,9.7695,9.7695,9.7695,9.7695,9.7695,9.7695,9.7695,9.7695,9.7695,9.7695,9.7695,9.7695,9.7695,9.7695,9.7695,9.7695,9.7695,9.7706,9.7701,9.7701,9.7701,9.7695,9.7682,9.7682,9.7675,9.7675,9.7675,9.7667,9.7659,9.121,9.121,9.121,9.121,9.121,9.121,9.121,9.121,9.121,9.121,9.121,9.121,9.121,9.121,9.1275,9.1341,9.1438,9.157,9.1659,9.1649,9.1677,9.1716,9.1716,9.1716,9.1832,9.2102,9.2721,9.3727,9.4307,9.5426,9.6372,9.692,9.716,9.7199,9.7199,9.7199,9.7153,9.7067,9.7018,9.6967,9.6898,9.6812,9.6692,9.6629,9.6597,9.6597,9.6597,9.6629,9.6692,9.6783,9.687,9.6926,9.7006,9.7082,9.7221,9.7382,9.7488,9.7525,9.7589,9.7611,9.7641,9.765,9.7622,9.7611,9.7589,9.7552,9.7552,9.7577,9.76,9.7641,9.7659,9.7667,9.7675,9.7675,9.7675,9.7675,9.7675,9.7675,9.7675,9.7675,9.7675,9.7689,9.7695,9.7695,9.7695,9.7695,9.7695,9.7695,9.7695,9.7695,9.7695,9.7695,9.7695,9.7695,9.7695,9.7695,9.7695,9.7695,9.7695,9.7695,9.7695,9.7695,9.7695,9.7672,9.7695,9.7682,9.7689,9.7689,9.7682,9.7675,9.7675,9.7675,9.7675,9.7675,9.7667,9.121,9.121,9.121,9.121,9.121,9.121,9.121,9.121,9.121,9.121,9.121,9.121,9.121,9.121,9.1275,9.1308,9.1406,9.15,9.1591,9.1649,9.1677,9.1716,9.1716,9.1793,9.2064,9.2721,9.3456,9.4269,9.5149,9.6046,9.6605,9.706,9.716,9.7199,9.7199,9.7199,9.7153,9.7067,9.7018,9.6979,9.6898,9.6812,9.6723,9.6699,9.6661,9.6668,9.6668,9.6699,9.6761,9.6822,9.6898,9.6979,9.7006,9.7106,9.7242,9.7401,9.7449,9.7525,9.7589,9.7583,9.7641,9.7659,9.7632,9.7611,9.7589,9.7552,9.7525,9.7565,9.7589,9.7622,9.765,9.7659,9.7667,9.7675,9.7675,9.7675,9.7675,9.7675,9.7675,9.7675,9.7675,9.7675,9.7689,9.7695,9.7695,9.7695,9.7695,9.7695,9.7695,9.7695,9.7695,9.7695,9.7695,9.7695,9.7695,9.7695,9.7695,9.7695,9.7695,9.7695,9.7695,9.7695,9.7695,9.7676,9.7695,9.7682,9.7675,9.7675,9.7675,9.7675,9.7675,9.7675,9.7675,9.7714,9.7706,9.121,9.121,9.121,9.121,9.121,9.121,9.121,9.121,9.121,9.121,9.121,9.121,9.121,9.121,9.1279,9.1275,9.1308,9.1438,9.1522,9.161,9.1754,9.1716,9.1754,9.2102,9.2489,9.3263,9.4114,9.4965,9.5719,9.6422,9.7018,9.7067,9.7153,9.7199,9.7199,9.7199,9.7153,9.7082,9.7031,9.6953,9.6898,9.6812,9.6761,9.6731,9.6731,9.6731,9.6738,9.6731,9.6792,9.6822,9.6926,9.6979,9.7031,9.7176,9.7284,9.742,9.7449,9.7525,9.7577,9.7611,9.7632,9.7641,9.7622,9.76,9.7565,9.7539,9.7539,9.7591,9.7577,9.76,9.7632,9.765,9.7667,9.7675,9.7675,9.7675,9.7675,9.7675,9.7675,9.7675,9.7675,9.7675,9.7682,9.7701,9.7695,9.7695,9.7695,9.7695,9.7695,9.7695,9.7695,9.7695,9.7695,9.7695,9.7695,9.7695,9.7695,9.7695,9.7695,9.7695,9.7695,9.7691,9.7684,9.7706,9.7689,9.7682,9.7675,9.7675,9.7675,9.7714,9.7792,9.7987,9.7948,9.787,9.7784,9.121,9.121,9.121,9.121,9.121,9.121,9.121,9.121,9.121,9.121,9.121,9.121,9.121,9.1248,9.1364,9.151,9.1732,9.1869,9.1994,9.1765,9.2218,9.2218,9.2257,9.2644,9.3263,9.3804,9.4501,9.5429,9.5874,9.6499,9.7006,9.7031,9.7153,9.7199,9.7199,9.7176,9.713,9.7057,9.7006,9.6979,9.687,9.6812,9.6753,9.6761,9.6761,9.6753,9.6761,9.6761,9.6822,9.6812,9.687,9.6953,9.7106,9.7242,9.7363,9.7437,9.7449,9.755,9.7552,9.76,9.7611,9.7611,9.76,9.7577,9.7591,9.7525,9.7525,9.7578,9.7591,9.7589,9.7622,9.7602,9.762,9.7667,9.7675,9.7675,9.7675,9.7675,9.7675,9.7675,9.7675,9.7675,9.7675,9.7689,9.7701,9.7695,9.7695,9.7695,9.7695,9.7695,9.7773,9.7734,9.7695,9.7695,9.7695,9.7695,9.7695,9.7695,9.7734,9.7695,9.7695,9.768,9.7672,9.7701,9.7682,9.7682,9.7675,9.7714,9.7714,9.7753,9.7909,9.826,9.8299,9.8338,9.8487,9.121,9.121,9.121,9.121,9.121,9.121,9.121,9.121,9.121,9.121,9.121,9.121,9.1248,9.1364,9.1864,9.213,9.2319,9.2723,9.2898,9.2875,9.3012,9.2876,9.2953,9.3456,9.4153,9.4849,9.5429,9.5893,9.6348,9.6771,9.6993,9.7018,9.7114,9.7199,9.7199,9.7176,9.7106,9.7057,9.6993,9.6914,9.6841,9.6851,9.6822,9.6792,9.6783,9.6783,9.6792,9.6792,9.6822,9.6812,9.6926,9.7031,9.7153,9.7343,9.7401,9.742,9.7527,9.755,9.7578,9.7577,9.7589,9.7589,9.7577,9.7604,9.7578,9.7511,9.7511,9.7564,9.7578,9.7577,9.76,9.7583,9.7611,9.7659,9.7675,9.7675,9.7675,9.7675,9.7675,9.7675,9.7675,9.7675,9.7675,9.7682,9.7689,9.7695,9.7695,9.7695,9.7734,9.7773,9.7929,9.789,9.7734,9.7695,9.7695,9.7734,9.7773,9.7851,9.7929,9.7851,9.7773,9.7862,9.7979,9.7767,9.7675,9.7948,9.8026,9.7753,9.7753,9.7909,9.826,9.869,9.9197,9.9353,9.9588,9.121,9.121,9.121,9.121,9.121,9.121,9.121,9.121,9.121,9.121,9.121,9.121,9.1402,9.1672,9.2326,9.2787,9.3015,9.3649,9.329,9.3161,9.3639,9.3466,9.3698,9.423,9.481,9.5468,9.5971,9.6396,9.6774,9.6926,9.6993,9.7004,9.7114,9.7199,9.7199,9.713,9.7082,9.7057,9.6928,9.6887,9.6783,9.6822,9.6822,9.6822,9.6822,9.6822,9.6822,9.6822,9.6822,9.7006,9.7313,9.7613,9.7775,9.7945,9.7966,9.7887,9.7761,9.7511,9.7564,9.7591,9.7604,9.7552,9.7604,9.7591,9.7564,9.7496,9.7496,9.755,9.755,9.7539,9.7577,9.76,9.7593,9.7611,9.7667,9.7675,9.7675,9.7675,9.7675,9.7675,9.7675,9.7675,9.7682,9.7701,9.7706,9.7672,9.7693,9.7734,9.7773,9.8047,9.8164,9.8242,9.8164,9.7851,9.7695,9.7812,9.7929,9.8008,9.8281,9.8359,9.8437,9.8359,9.8281,9.8346,9.8455,9.869,9.8651,9.8385,9.826,9.8455,9.8807,9.9197,9.9783,10.0407,10.0712,9.121,9.121,9.121,9.121,9.121,9.121,9.121,9.121,9.121,9.121,9.121,9.121,9.171,9.2095,9.2672,9.3172,9.3708,9.4463,9.3913,9.3515,9.4219,9.4055,9.4278,9.4781,9.5506,9.5971,9.6396,9.659,9.6783,9.6926,9.6993,9.7043,9.7091,9.7199,9.7176,9.713,9.7057,9.7006,9.6914,9.6859,9.6841,9.6822,9.6783,9.6783,9.6783,9.6783,9.6783,9.6822,9.6822,9.7151,9.7623,9.804,9.8372,9.8486,9.853,9.8413,9.8056,9.7754,9.7589,9.7525,9.7525,9.7525,9.7578,9.7564,9.7511,9.7496,9.7496,9.7496,9.7496,9.7511,9.7552,9.7616,9.7611,9.7602,9.7659,9.7675,9.7675,9.7675,9.7675,9.7675,9.7714,9.7714,9.7728,9.7745,9.7754,9.7723,9.7773,9.7812,9.7969,9.8437,9.875,9.8867,9.8945,9.8554,9.8203,9.8281,9.8633,9.8867,9.9179,9.9179,9.9179,9.9179,9.9185,9.9243,9.9392,9.9509,9.9439,9.9211,9.9165,9.9165,9.9744,10.0212,10.0642,10.1266,10.1835,9.121,9.121,9.121,9.121,9.121,9.121,9.121,9.121,9.121,9.1245,9.1241,9.1245,9.1364,9.1556,9.2979,9.3672,9.4054,9.4968,9.4733,9.4145,9.5231,9.4914,9.479,9.5438,9.6319,9.659,9.6667,9.6783,9.7083,9.7081,9.7044,9.7187,9.7231,9.7215,9.7145,9.7057,9.7006,9.6953,9.7014,9.6996,9.6958,9.6929,9.6812,9.6812,9.6812,9.6841,9.6841,9.6851,9.6822,9.7083,9.7722,9.8259,9.8736,9.9102,9.9267,9.8997,9.8584,9.8128,9.7886,9.7628,9.7535,9.7496,9.755,9.755,9.7496,9.7496,9.7496,9.7496,9.7496,9.7511,9.7539,9.7591,9.7577,9.7632,9.7659,9.7667,9.7675,9.7675,9.7675,9.7753,9.7792,9.7831,9.787,9.7929,9.7984,9.7996,9.8084,9.8164,9.8515,9.8906,9.9375,9.9609,9.9804,9.9883,9.9844,9.9531,9.9687,9.9922,10.0039,10.0078,10.0078,10.0039,10.0093,10.0109,10.0173,10.0251,10.0141,10.0044,10.0049,10.0171,10.0851,10.1344,10.1696,10.1922,10.2343]},{"header":{"parameterUnit":"m.s-1","parameterCategory":1,"la1":31.0,"la2":29.5877,"lo1":-88.7671,"lo2":-86.6584,"dy":0.0162,"dx":0.0185,"nx":115,"ny":88,"refTime":"2024-03-09T06:00:00:Z","depth":0,"parameterNumber":3,"parameterNumberName":"V-component_of_WINDS"},"data":[0.0,0.0,0.0,0.0,0.0,0.0,0.0,0.0,0.0,0.0,0.0,0.0,0.0,0.0,0.0,0.0,0.0,0.0,0.0,0.0,0.0,0.0,0.0,0.0,0.0,0.0,0.0,0.0,0.0,0.0,0.0,0.0,0.0,0.0,0.0,0.0,0.0,0.0,0.0,0.0,0.0,0.0,0.0,0.0,0.0,0.0,0.0,0.0,0.0,0.0,0.0,0.0,0.0,0.0,0.0,0.0,0.0,0.0,0.0,0.0,0.0,0.0,0.0,0.0,0.0,0.0,0.0,0.0,0.0,0.0,0.0,0.0,0.0,0.0,0.0,0.0,0.0,0.0,0.0,0.0,0.0,0.0,0.0,0.0,0.0,0.0,0.0,0.0,0.0,0.0,0.0,0.0,0.0,0.0,0.0,0.0,0.0,0.0,0.0,0.0,0.0,0.0,0.0,0.0,0.0,0.0,0.0,0.0,0.0,0.0,0.0,0.0,0.0,0.0,0.0,0.0,0.0,0.0,0.0,0.0,0.0,0.0,0.0,0.0,0.0,0.0,0.0,0.0,0.0,0.0,0.0,0.0,0.0,0.0,0.0,0.0,0.0,0.0,0.0,0.0,0.0,0.0,0.0,0.0,0.0,0.0,0.0,0.0,0.0,0.0,0.0,0.0,0.0,0.0,0.0,0.0,0.0,0.0,0.0,0.0,0.0,0.0,0.0,0.0,0.0,0.0,0.0,0.0,0.0,0.0,0.0,0.0,0.0,0.0,0.0,0.0,0.0,0.0,0.0,0.0,0.0,0.0,0.0,0.0,0.0,0.0,0.0,0.0,0.0,0.0,0.0,0.0,0.0,0.0,0.0,0.0,0.0,0.0,0.0,0.0,0.0,0.0,0.0,0.0,0.0,0.0,0.0,0.0,0.0,0.0,0.0,0.0,0.0,0.0,0.0,0.0,0.0,0.0,0.0,0.0,0.0,0.0,0.0,0.0,0.0,0.0,0.0,0.0,0.0,0.0,0.0,0.0,0.0,0.0,0.0,0.0,0.0,0.0,0.0,0.0,0.0,0.0,0.0,0.0,0.0,0.0,0.0,0.0,0.0,0.0,0.0,0.0,0.0,0.0,0.0,0.0,0.0,0.0,0.0,0.0,0.0,0.0,0.0,0.0,0.0,0.0,0.0,0.0,0.0,0.0,0.0,0.0,0.0,0.0,0.0,0.0,0.0,0.0,0.0,0.0,0.0,0.0,0.0,0.0,0.0,0.0,0.0,0.0,0.0,0.0,0.0,0.0,0.0,0.0,0.0,0.0,0.0,0.0,0.0,0.0,0.0,0.0,0.0,0.0,0.0,0.0,0.0,0.0,0.0,0.0,0.0,0.0,0.0,0.0,0.0,0.0,0.0,0.0,0.0,0.0,0.0,0.0,0.0,0.0,0.0,0.0,0.0,0.0,0.0,0.0,0.0,0.0,0.0,0.0,0.0,0.0,0.0,0.0,0.0,0.0,0.0,0.0,0.0,0.0,0.0,0.0,0.0,0.0,0.0,0.0,0.0,0.0,0.0,0.0,0.0,0.0,0.0,0.0,0.0,0.0,0.0,0.0,0.0,0.0,0.0,0.0,0.0,0.0,0.0,0.0,0.0,0.0,0.0,0.0,0.0,0.0,0.0,0.0,0.0,0.0,0.0,0.0,0.0,0.0,0.0,0.0,0.0,0.0,0.0,0.0,0.0,0.0,0.0,0.0,0.0,0.0,0.0,0.0,0.0,0.0,0.0,0.0,0.0,0.0,0.0,0.0,0.0,0.0,0.0,0.0,0.0,0.0,0.0,0.0,0.0,0.0,0.0,0.0,0.0,0.0,0.0,0.0,0.0,0.0,0.0,0.0,0.0,0.0,0.0,0.0,0.0,0.0,0.0,0.0,0.0,0.0,0.0,0.0,0.0,0.0,0.0,0.0,0.0,0.0,0.0,0.0,0.0,0.0,0.0,0.0,0.0,0.0,0.0,0.0,0.0,0.0,0.0,0.0,0.0,0.0,0.0,0.0,0.0,0.0,0.0,0.0,0.0,0.0,0.0,0.0,0.0,0.0,0.0,0.0,0.0,0.0,0.0,0.0,0.0,0.0,0.0,0.0,0.0,0.0,0.0,0.0,0.0,0.0,0.0,0.0,0.0,0.0,0.0,0.0,0.0,0.0,0.0,0.0,0.0,0.0,0.0,0.0,0.0,0.0,0.0,0.0,0.0,0.0,0.0,0.0,0.0,0.0,0.0,0.0,0.0,0.0,0.0,0.0,0.0,0.0,0.0,0.0,0.0,0.0,0.0,0.0,0.0,0.0,0.0,0.0,0.0,0.0,0.0,0.0,0.0,0.0,0.0,0.0,0.0,0.0,0.0,0.0,0.0,0.0,0.0,0.0,0.0,0.0,0.0,0.0,0.0,0.0,0.0,0.0,0.0,0.0,0.0,0.0,0.0,0.0,0.0,0.0,0.0,0.0,0.0,0.0,0.0,0.0,0.0,0.0,0.0,0.0,0.0,0.0,0.0,0.0,0.0,0.0,0.0,0.0,0.0,0.0,0.0,0.0,0.0,0.0,0.0,0.0,0.0,0.0,0.0,0.0,0.0,0.0,0.0,0.0,0.0,0.0,0.0,0.0,0.0,0.0,0.0,0.0,0.0,0.0,0.0,0.0,0.0,0.0,0.0,0.0,0.0,0.0,0.0,0.0,0.0,0.0,0.0,0.0,0.0,0.0,0.0,0.0,0.0,0.0,0.0,0.0,0.0,0.0,0.0,0.0,0.0,0.0,0.0,0.0,0.0,0.0,0.0,0.0,0.0,0.0,0.0,0.0,0.0,0.0,0.0,0.0,0.0,0.0,0.0,0.0,0.0,0.0,0.0,0.0,0.0,0.0,0.0,0.0,0.0,0.0,0.0,0.0,0.0,0.0,0.0,0.0,0.0,0.0,0.0,0.0,0.0,0.0,0.0,0.0,0.0,0.0,0.0,0.0,0.0,0.0,0.0,0.0,0.0,0.0,0.0,0.0,0.0,0.0,0.0,0.0,0.0,0.0,0.0,0.0,0.0,0.0,0.0,0.0,0.0,0.0,0.0,0.0,0.0,0.0,0.0,0.0,0.0,0.0,0.0,0.0,0.0,0.0,0.0,0.0,0.0,0.0,0.0,0.0,0.0,0.0,0.0,0.0,0.0,0.0,0.0,0.0,0.0,0.0,0.0,0.0,0.0,0.0,0.0,0.0,0.0,0.0,0.0,0.0,0.0,0.0,0.0,0.0,0.0,0.0,0.0,0.0,0.0,0.0,0.0,0.0,0.0,0.0,0.0,0.0,0.0,0.0,0.0,0.0,0.0,0.0,0.0,0.0,0.0,0.0,0.0,0.0,0.0,0.0,0.0,0.0,0.0,0.0,0.0,0.0,0.0,0.0,0.0,0.0,0.0,0.0,0.0,0.0,0.0,0.0,0.0,0.0,0.0,0.0,0.0,0.0,0.0,0.0,0.0,0.0,0.0,0.0,0.0,0.0,0.0,0.0,0.0,0.0,0.0,0.0,0.0,0.0,0.0,0.0,0.0,0.0,0.0,0.0,0.0,0.0,0.0,0.0,0.0,0.0,0.0,0.0,0.0,0.0,0.0,0.0,0.0,0.0,0.0,0.0,0.0,0.0,0.0,0.0,0.0,0.0,0.0,0.0,0.0,0.0,0.0,0.0,0.0,0.0,0.0,0.0,0.0,0.0,0.0,0.0,0.0,0.0,0.0,0.0,0.0,0.0,0.0,0.0,0.0,0.0,0.0,0.0,0.0,0.0,0.0,0.0,0.0,0.0,0.0,0.0,0.0,0.0,0.0,0.0,0.0,0.0,0.0,0.0,0.0,0.0,0.0,0.0,0.0,0.0,0.0,0.0,0.0,0.0,0.0,0.0,0.0,0.0,0.0,0.0,0.0,0.0,0.0,0.0,0.0,0.0,0.0,0.0,0.0,0.0,0.0,0.0,0.0,0.0,0.0,0.0,0.0,0.0,0.0,0.0,0.0,0.0,0.0,0.0,0.0,0.0,0.0,0.0,0.0,0.0,0.0,0.0,0.0,0.0,0.0,0.0,0.0,0.0,0.0,0.0,0.0,0.0,0.0,0.0,0.0,0.0,0.0,0.0,0.0,0.0,0.0,0.0,0.0,0.0,0.0,0.0,0.0,0.0,0.0,0.0,0.0,0.0,0.0,0.0,0.0,0.0,0.0,0.0,0.0,0.0,0.0,0.0,-0.5734,0.0,0.0,0.0,0.0,0.0,0.0,0.0,0.0,0.0,0.0,0.0,0.0,0.0,0.0,0.0,0.0,0.0,0.0,0.0,0.0,0.0,0.0,0.0,0.0,0.0,0.0,0.0,0.0,0.0,0.0,0.0,0.0,0.0,0.0,0.0,0.0,0.0,0.0,0.0,0.0,0.0,0.0,0.0,0.0,0.0,0.0,0.0,0.0,0.0,0.0,0.0,0.0,0.0,0.0,0.0,0.0,0.0,0.0,0.0,0.0,0.0,0.0,0.0,0.0,0.0,0.0,0.0,0.0,0.0,0.0,0.0,0.0,0.0,0.0,0.0,0.0,0.0,0.0,0.0,0.0,0.0,0.0,0.0,0.0,0.0,0.0,0.0,0.0,0.0,0.0,0.0,0.0,0.0,0.0,0.0,0.0,0.0,0.0,0.0,0.0,0.0,0.0,0.0,0.0,0.0,0.0,0.0,0.0,0.0,0.0,-0.6073,-0.6083,-0.5924,-0.5898,-0.5989,0.0,0.0,0.0,0.0,0.0,0.0,0.0,0.0,0.0,0.0,0.0,0.0,0.0,0.0,0.0,0.0,0.0,0.0,0.0,0.0,0.0,0.0,0.0,0.0,0.0,0.0,0.0,0.0,0.0,0.0,0.0,0.0,0.0,0.0,0.0,0.0,0.0,0.0,0.0,0.0,0.0,0.0,0.0,0.0,0.0,0.0,0.0,0.0,0.0,0.0,0.0,0.0,0.0,0.0,0.0,0.0,0.0,0.0,0.0,0.0,0.0,0.0,0.0,0.0,0.0,0.0,0.0,0.0,0.0,0.0,0.0,0.0,0.0,0.0,0.0,0.0,0.0,0.0,0.0,0.0,0.0,0.0,0.0,0.0,0.0,0.0,0.0,0.0,0.0,0.0,0.0,0.0,0.0,0.0,0.0,0.0,0.0,0.0,0.0,0.0,0.0,0.0,0.0,0.0,0.0,0.0,0.0,0.0,0.0,0.0,0.0,0.0,-0.5712,-0.5802,-0.6119,0.0,0.0,0.0,0.0,0.0,0.0,0.0,0.0,0.0,0.0,0.0,0.0,0.0,0.0,0.0,0.0,0.0,0.0,0.0,0.0,0.0,0.0,0.0,0.0,0.0,0.0,0.0,0.0,0.0,0.0,0.0,0.0,0.0,0.0,0.0,0.0,0.0,0.0,0.0,0.0,0.0,0.0,0.0,0.0,0.0,0.0,0.0,0.0,0.0,0.0,0.0,0.0,0.0,0.0,0.0,0.0,0.0,0.0,0.0,0.0,0.0,0.0,0.0,0.0,0.0,0.0,0.0,0.0,0.0,0.0,0.0,0.0,0.0,0.0,0.0,0.0,0.0,0.0,0.0,0.0,0.0,0.0,0.0,0.0,0.0,0.0,0.0,0.0,0.0,0.0,0.0,0.0,0.0,0.0,0.0,0.0,0.0,0.0,0.0,0.0,0.0,0.0,0.0,0.0,0.0,0.0,0.0,0.0,0.0,0.0,-0.586,-0.5783,-0.5634,0.0,-0.564,0.0,0.0,0.0,0.0,0.0,0.0,0.0,0.0,0.0,0.0,0.0,0.0,0.0,0.0,0.0,0.0,0.0,0.0,0.0,0.0,0.0,0.0,0.0,0.0,0.0,0.0,0.0,0.0,0.0,0.0,0.0,0.0,0.0,0.0,0.0,0.0,0.0,0.0,0.0,0.0,0.0,0.0,0.0,0.0,0.0,0.0,0.0,0.0,0.0,0.0,0.0,0.0,0.0,0.0,0.0,0.0,0.0,0.0,0.0,0.0,0.0,0.0,0.0,0.0,0.0,0.0,0.0,0.0,0.0,0.0,0.0,0.0,0.0,0.0,0.0,0.0,0.0,0.0,0.0,0.0,0.0,0.0,0.0,0.0,0.0,0.0,0.0,0.0,0.0,0.0,0.0,0.0,0.0,0.0,0.0,0.0,0.0,0.0,0.0,0.0,0.0,0.0,0.0,0.0,0.0,0.0,0.0,0.0,0.0,0.0,-0.5787,-0.5711,-0.5394,-0.5274,0.0,0.0,0.0,0.0,0.0,0.0,0.0,0.0,0.0,0.0,0.0,0.0,0.0,0.0,0.0,0.0,0.0,0.0,0.0,0.0,0.0,0.0,0.0,0.0,0.0,0.0,0.0,0.0,0.0,0.0,0.0,0.0,0.0,0.0,0.0,0.0,0.0,0.0,0.0,0.0,0.0,0.0,0.0,0.0,0.0,0.0,0.0,0.0,0.0,0.0,0.0,0.0,0.0,0.0,0.0,0.0,0.0,0.0,0.0,0.0,0.0,0.0,0.0,0.0,0.0,0.0,0.0,0.0,0.0,0.0,0.0,0.0,0.0,0.0,0.0,0.0,0.0,0.0,0.0,0.0,0.0,0.0,0.0,0.0,0.0,0.0,0.0,0.0,0.0,0.0,0.0,0.0,0.0,0.0,0.0,0.0,0.0,0.0,0.0,0.0,0.0,0.0,0.0,0.0,0.0,0.0,0.0,0.0,0.0,0.0,-0.591,-0.5734,-0.5527,-0.5089,-0.4945,-0.5025,0.0,0.0,0.0,0.0,0.0,0.0,0.0,0.0,0.0,0.0,0.0,0.0,0.0,0.0,0.0,0.0,0.0,0.0,0.0,0.0,0.0,0.0,0.0,0.0,0.0,0.0,0.0,0.0,0.0,0.0,0.0,0.0,0.0,0.0,0.0,0.0,0.0,0.0,0.0,0.0,0.0,0.0,0.0,0.0,0.0,0.0,0.0,0.0,0.0,0.0,0.0,0.0,0.0,0.0,0.0,0.0,0.0,0.0,0.0,0.0,0.0,0.0,0.0,0.0,0.0,0.0,0.0,0.0,0.0,0.0,0.0,0.0,0.0,0.0,0.0,0.0,0.0,0.0,0.0,0.0,0.0,0.0,0.0,0.0,0.0,0.0,0.0,0.0,0.0,0.0,0.0,0.0,0.0,0.0,0.0,0.0,0.0,0.0,0.0,0.0,0.0,0.0,0.0,0.0,0.0,0.0,0.0,0.0,-0.6077,-0.5916,-0.5572,-0.5043,-0.4849,-0.4708,0.0,0.0,0.0,0.0,0.0,0.0,0.0,0.0,0.0,0.0,0.0,0.0,0.0,0.0,0.0,0.0,0.0,0.0,0.0,0.0,0.0,0.0,0.0,0.0,0.0,0.0,0.0,0.0,0.0,0.0,0.0,0.0,0.0,0.0,0.0,0.0,0.0,0.0,0.0,0.0,0.0,0.0,0.0,0.0,0.0,0.0,0.0,0.0,0.0,0.0,0.0,0.0,0.0,0.0,0.0,0.0,0.0,0.0,0.0,0.0,0.0,0.0,0.0,0.0,0.0,0.0,0.0,0.0,0.0,0.0,0.0,0.0,0.0,0.0,0.0,0.0,0.0,0.0,0.0,0.0,0.0,0.0,0.0,0.0,0.0,0.0,0.0,0.0,0.0,0.0,0.0,0.0,0.0,0.0,0.0,0.0,0.0,0.0,0.0,0.0,0.0,0.0,0.0,0.0,0.0,0.0,0.0,0.0,0.0,-0.617,-0.5746,-0.5297,-0.4816,-0.4889,-0.4801,0.0,0.0,0.0,0.0,0.0,0.0,0.0,0.0,0.0,0.0,0.0,0.0,0.0,0.0,0.0,0.0,0.0,0.0,0.0,0.0,0.0,0.0,0.0,0.0,0.0,0.0,0.0,0.0,0.0,0.0,0.0,0.0,0.0,0.0,0.0,0.0,0.0,0.0,0.0,0.0,0.0,0.0,0.0,0.0,0.0,0.0,0.0,0.0,0.0,0.0,0.0,0.0,0.0,0.0,0.0,0.0,0.0,0.0,0.0,0.0,0.0,0.0,0.0,0.0,0.0,0.0,0.0,0.0,0.0,0.0,0.0,0.0,0.0,0.0,0.0,0.0,0.0,0.0,0.0,0.0,0.0,0.0,0.0,0.0,0.0,0.0,0.0,0.0,0.0,0.0,0.0,0.0,0.0,0.0,0.0,0.0,0.0,0.0,0.0,0.0,0.0,0.0,0.0,0.0,0.0,0.0,0.0,0.0,0.0,-0.5975,0.0,-0.4961,-0.4567,-0.4687,-0.4692,0.0,0.0,0.0,0.0,0.0,0.0,0.0,0.0,0.0,0.0,0.0,0.0,0.0,0.0,0.0,0.0,0.0,0.0,0.0,0.0,0.0,0.0,0.0,0.0,0.0,0.0,0.0,0.0,0.0,0.0,0.0,0.0,0.0,0.0,0.0,0.0,0.0,0.0,0.0,0.0,0.0,0.0,0.0,0.0,0.0,0.0,0.0,0.0,0.0,0.0,0.0,0.0,0.0,0.0,0.0,0.0,0.0,0.0,0.0,0.0,0.0,0.0,0.0,0.0,0.0,0.0,0.0,0.0,0.0,0.0,0.0,0.0,0.0,0.0,0.0,0.0,0.0,0.0,0.0,0.0,0.0,0.0,0.0,0.0,0.0,0.0,0.0,0.0,0.0,0.0,0.0,0.0,0.0,0.0,0.0,0.0,0.0,0.0,0.0,0.0,0.0,0.0,0.0,0.0,0.0,0.0,0.0,0.0,-0.5864,-0.5475,-0.4795,-0.4398,-0.4308,-0.4308,-0.4263,0.0,0.0,0.0,0.0,0.0,0.0,0.0,0.0,0.0,0.0,0.0,0.0,0.0,0.0,0.0,0.0,0.0,0.0,0.0,0.0,0.0,0.0,0.0,0.0,0.0,0.0,0.0,0.0,0.0,0.0,0.0,0.0,0.0,0.0,0.0,0.0,0.0,0.0,0.0,0.0,0.0,0.0,0.0,0.0,0.0,0.0,0.0,0.0,0.0,0.0,0.0,0.0,0.0,0.0,0.0,0.0,0.0,0.0,0.0,0.0,0.0,0.0,0.0,0.0,0.0,0.0,0.0,0.0,0.0,0.0,0.0,0.0,0.0,0.0,0.0,0.0,0.0,0.0,0.0,0.0,0.0,0.0,0.0,0.0,0.0,0.0,0.0,0.0,0.0,0.0,0.0,0.0,0.0,0.0,0.0,0.0,0.0,0.0,0.0,0.0,0.0,0.0,0.0,0.0,0.0,0.0,0.0,0.0,0.0,-0.4989,-0.4374,-0.395,-0.3648,-0.3783,-0.3814,0.0,0.0,0.0,0.0,0.0,0.0,0.0,0.0,0.0,0.0,0.0,0.0,0.0,0.0,0.0,0.0,0.0,0.0,0.0,0.0,0.0,0.0,0.0,0.0,0.0,0.0,0.0,0.0,0.0,0.0,0.0,0.0,0.0,0.0,0.0,0.0,0.0,0.0,0.0,0.0,0.0,0.0,0.0,0.0,0.0,0.0,0.0,0.0,0.0,0.0,0.0,0.0,0.0,0.0,0.0,0.0,0.0,0.0,0.0,0.0,0.0,0.0,0.0,0.0,0.0,0.0,0.0,0.0,0.0,0.0,0.0,0.0,0.0,0.0,0.0,0.0,0.0,0.0,0.0,0.0,0.0,0.0,0.0,0.0,0.0,0.0,0.0,0.0,0.0,0.0,0.0,0.0,0.0,0.0,0.0,0.0,0.0,0.0,0.0,0.0,0.0,0.0,0.0,0.0,0.0,0.0,0.0,0.0,0.0,-0.4445,-0.3765,-0.3367,-0.3153,-0.3115,-0.3234,-0.3307,0.0,0.0,0.0,0.0,0.0,0.0,0.0,0.0,0.0,0.0,0.0,0.0,0.0,0.0,0.0,0.0,0.0,0.0,0.0,0.0,0.0,0.0,0.0,0.0,0.0,0.0,0.0,0.0,0.0,0.0,0.0,0.0,0.0,0.0,0.0,0.0,0.0,0.0,0.0,0.0,0.0,0.0,0.0,0.0,0.0,0.0,0.0,0.0,0.0,0.0,0.0,0.0,0.0,0.0,0.0,0.0,0.0,0.0,0.0,0.0,0.0,0.0,0.0,0.0,0.0,0.0,0.0,0.0,0.0,0.0,0.0,0.0,0.0,0.0,0.0,0.0,0.0,0.0,0.0,0.0,0.0,0.0,0.0,0.0,0.0,0.0,0.0,0.0,0.0,0.0,0.0,0.0,0.0,0.0,0.0,0.0,0.0,0.0,0.0,0.0,0.0,0.0,0.0,0.0,0.0,0.0,0.0,0.0,-0.4066,-0.3144,-0.256,-0.2715,-0.2498,-0.2536,0.0,0.0,0.0,0.0,0.0,0.0,0.0,0.0,0.0,0.0,0.0,0.0,0.0,0.0,0.0,0.0,0.0,0.0,0.0,0.0,0.0,0.0,0.0,0.0,0.0,0.0,0.0,0.0,0.0,0.0,0.0,0.0,0.0,0.0,0.0,0.0,0.0,0.0,0.0,0.0,0.0,0.0,0.0,0.0,0.0,0.0,0.0,0.0,0.0,0.0,0.0,0.0,0.0,0.0,0.0,0.0,0.0,0.0,0.0,0.0,0.0,0.0,0.0,0.0,0.0,0.0,0.0,0.0,0.0,0.0,0.0,0.0,0.0,0.0,0.0,0.0,0.0,0.0,0.0,0.0,0.0,0.0,0.0,0.0,0.0,0.0,0.0,0.0,0.0,0.0,0.0,0.0,0.0,0.0,0.0,0.0,0.0,0.0,0.0,0.0,0.0,0.0,0.0,0.0,0.0,0.0,0.0,0.0,0.0,-0.364,-0.2786,-0.2391,-0.236,-0.1969,-0.1905,0.0,0.0,0.0,0.0,0.0,0.0,0.0,0.0,0.0,0.0,0.0,0.0,0.0,0.0,0.0,0.0,0.0,0.0,0.0,0.0,0.0,0.0,0.0,0.0,0.0,0.0,0.0,0.0,0.0,0.0,0.0,0.0,0.0,0.0,0.0,0.0,0.0,0.0,0.0,0.0,0.0,0.0,0.0,0.0,0.0,0.0,0.0,0.0,0.0,0.0,0.0,0.0,0.0,0.0,0.0,0.0,0.0,0.0,0.0,0.0,0.0,0.0,0.0,0.0,0.0,0.0,0.0,0.0,0.0,0.0,0.0,0.0,0.0,0.0,0.0,0.0,0.0,0.0,0.0,0.0,0.0,0.0,0.0,0.0,0.0,0.0,0.0,0.0,0.0,0.0,0.0,0.0,0.0,0.0,0.0,0.0,0.0,0.0,0.0,0.0,0.0,0.0,0.0,0.0,0.0,0.0,0.0,0.0,-0.4591,-0.3628,-0.1439,-0.0918,-0.2264,-0.1903,-0.1686,0.0,0.0,0.0,0.0,0.0,0.0,0.0,0.0,0.0,0.0,0.0,0.0,0.0,0.0,0.0,0.0,0.0,0.0,0.0,0.0,0.0,0.0,0.0,0.0,0.0,0.0,0.0,0.0,0.0,0.0,0.0,0.0,0.0,0.0,0.0,0.0,0.0,0.0,0.0,0.0,0.0,0.0,0.0,0.0,0.0,0.0,0.0,0.0,0.0,0.0,0.0,0.0,0.0,0.0,0.0,0.0,0.0,0.0,0.0,0.0,0.0,0.0,0.0,0.0,0.0,0.0,0.0,0.0,0.0,0.0,0.0,0.0,0.0,0.0,0.0,0.0,0.0,0.0,0.0,0.0,0.0,0.0,0.0,0.0,0.0,0.0,0.0,0.0,0.0,0.0,0.0,0.0,0.0,0.0,0.0,0.0,0.0,0.0,0.0,0.0,0.0,0.0,0.0,0.0,0.0,0.0,0.0,0.0,-0.4108,-0.3699,0.0276,0.1128,-0.1549,-0.1826,-0.1683,0.0,0.0,0.0,0.0,0.0,0.0,0.0,0.0,0.0,0.0,0.0,0.0,0.0,0.0,0.0,0.0,0.0,0.0,0.0,0.0,0.0,0.0,0.0,0.0,0.0,0.0,0.0,0.0,0.0,0.0,0.0,0.0,0.0,0.0,0.0,0.0,0.0,0.0,0.0,0.0,0.0,0.0,0.0,0.0,0.0,0.0,0.0,0.0,0.0,0.0,0.0,0.0,0.0,0.0,0.0,0.0,0.0,0.0,0.0,0.0,0.0,0.0,0.0,0.0,0.0,0.0,0.0,0.0,0.0,0.0,0.0,0.0,0.0,0.0,0.0,0.0,0.0,0.0,0.0,0.0,0.0,0.0,0.0,0.0,0.0,0.0,0.0,0.0,0.0,0.0,0.0,0.0,0.0,0.0,0.0,0.0,0.0,0.0,0.0,0.0,0.0,0.0,0.0,0.0,0.0,0.0,0.0,0.0,-0.3939,-0.3127,0.0567,0.2183,0.1469,0.0275,-0.0639,0.0,0.0,0.0,0.0,0.0,0.0,0.0,0.0,0.0,0.0,0.0,0.0,0.0,0.0,0.0,0.0,0.0,0.0,0.0,0.0,0.0,0.0,0.0,0.0,0.0,0.0,0.0,0.0,0.0,0.0,0.0,0.0,0.0,0.0,0.0,0.0,0.0,0.0,0.0,0.0,0.0,0.0,0.0,0.0,0.0,0.0,0.0,0.0,-0.7674,0.0,0.0,0.0,0.0,0.0,0.0,0.0,0.0,0.0,0.0,0.0,0.0,0.0,0.0,0.0,0.0,0.0,0.0,0.0,0.0,0.0,0.0,0.0,0.0,0.0,0.0,0.0,0.0,0.0,0.0,0.0,0.0,0.0,0.0,0.0,0.0,0.0,0.0,0.0,0.0,0.0,0.0,0.0,0.0,0.0,0.0,0.0,0.0,0.0,0.0,0.0,0.0,0.0,0.0,0.0,0.0,0.0,0.0,0.0,-0.3703,-0.1818,0.0589,0.2119,0.2418,0.1593,0.0678,0.0,0.0,0.0,0.0,0.0,0.0,0.0,0.0,0.0,0.0,0.0,0.0,0.0,0.0,0.0,0.0,0.0,0.0,0.0,0.0,0.0,0.0,0.0,0.0,0.0,0.0,0.0,0.0,0.0,0.0,0.0,0.0,0.0,0.0,0.0,0.0,0.0,0.0,0.0,0.0,0.0,0.0,0.0,0.0,0.0,0.0,0.0,0.0,0.0,0.0,0.0,0.0,0.0,0.0,0.0,0.0,0.0,0.0,0.0,0.0,0.0,0.0,0.0,0.0,0.0,0.0,0.0,0.0,0.0,0.0,0.0,0.0,0.0,0.0,0.0,0.0,0.0,0.0,0.0,0.0,0.0,0.0,0.0,0.0,0.0,0.0,0.0,0.0,0.0,0.0,0.0,0.0,0.0,0.0,0.0,0.0,0.0,0.0,0.0,0.0,0.0,0.0,0.0,0.0,0.0,0.0,0.0,-0.4365,-0.3304,-0.0577,0.0763,0.1877,0.2482,0.2565,0.1848,0.0514,0.0,0.0,0.0,0.0,0.0,0.0,0.0,0.0,0.0,0.0,0.0,0.0,0.0,0.0,0.0,0.0,0.0,0.0,0.0,0.0,0.0,0.0,0.0,0.0,0.0,0.0,0.0,0.0,0.0,0.0,0.0,0.0,0.0,0.0,0.0,0.0,0.0,0.0,-0.8827,-0.8769,0.0,0.0,0.0,0.0,0.0,0.0,0.0,0.0,-0.7699,0.0,0.0,0.0,0.0,0.0,0.0,0.0,0.0,0.0,0.0,0.0,0.0,0.0,0.0,0.0,0.0,0.0,0.0,0.0,0.0,0.0,0.0,0.0,0.0,0.0,0.0,0.0,0.0,0.0,0.0,0.0,0.0,0.0,0.0,0.0,0.0,0.0,0.0,0.0,0.0,0.0,0.0,0.0,0.0,0.0,0.0,0.0,0.0,0.0,0.0,0.0,0.0,0.0,0.0,0.0,0.0,-0.4143,-0.4039,-0.2791,-0.0599,0.1392,0.2523,0.2541,0.2436,0.2023,0.1086,0.0,0.0,0.0,0.0,0.0,0.0,0.0,0.0,0.0,0.0,0.0,0.0,0.0,0.0,0.0,0.0,0.0,0.0,0.0,0.0,0.0,0.0,0.0,0.0,0.0,0.0,0.0,0.0,0.0,0.0,0.0,0.0,0.0,0.0,0.0,0.0,0.0,0.0,0.0,-0.8862,-0.854,0.0,0.0,0.0,0.0,0.0,0.0,0.0,0.0,-0.7865,0.0,0.0,0.0,0.0,0.0,0.0,0.0,0.0,0.0,0.0,0.0,0.0,0.0,0.0,0.0,0.0,0.0,0.0,0.0,0.0,0.0,0.0,0.0,0.0,0.0,0.0,0.0,0.0,0.0,0.0,0.0,0.0,0.0,0.0,0.0,0.0,0.0,0.0,0.0,0.0,0.0,0.0,0.0,0.0,0.0,0.0,0.0,0.0,0.0,0.0,0.0,0.0,0.0,0.0,0.0,-0.3946,-0.3633,-0.2303,-0.0151,0.1738,0.2577,0.2559,0.2472,0.2214,0.0,0.0,0.0,0.0,0.0,0.0,0.0,0.0,0.0,0.0,0.0,0.0,0.0,0.0,0.0,0.0,0.0,0.0,0.0,0.0,0.0,0.0,0.0,0.0,0.0,0.0,0.0,0.0,0.0,0.0,0.0,0.0,0.0,0.0,0.0,0.0,0.0,0.0,0.0,0.0,-0.8779,-0.8662,-0.8593,0.0,0.0,0.0,0.0,0.0,0.0,-0.7893,-0.7865,0.0,0.0,0.0,0.0,0.0,0.0,0.0,0.0,0.0,0.0,0.0,0.0,0.0,0.0,0.0,0.0,0.0,0.0,0.0,0.0,0.0,0.0,0.0,0.0,0.0,0.0,0.0,0.0,0.0,0.0,0.0,0.0,0.0,0.0,0.0,0.0,0.0,0.0,0.0,0.0,0.0,0.0,0.0,0.0,0.0,0.0,0.0,0.0,0.0,0.0,0.0,0.0,0.0,0.0,0.0,-0.3753,-0.3051,-0.1778,0.0153,0.1773,0.2623,0.257,0.2503,0.2398,0.0,0.0,0.0,0.0,0.0,0.0,0.0,0.0,0.0,0.0,0.0,0.0,0.0,0.0,0.0,0.0,0.0,0.0,0.0,0.0,0.0,0.0,0.0,0.0,0.0,0.0,0.0,0.0,0.0,0.0,0.0,0.0,0.0,0.0,0.0,0.0,0.0,0.0,0.0,0.0,0.0,-0.8745,-0.8654,-0.8353,0.0,0.0,0.0,0.0,-0.8094,-0.7961,0.0,0.0,0.0,0.0,0.0,0.0,0.0,0.0,0.0,0.0,0.0,0.0,0.0,0.0,0.0,0.0,0.0,0.0,0.0,0.0,0.0,0.0,0.0,0.0,0.0,0.0,0.0,0.0,0.0,0.0,0.0,0.0,0.0,0.0,0.0,0.0,0.0,0.0,0.0,0.0,0.0,0.0,0.0,0.0,0.0,0.0,0.0,0.0,0.0,0.0,0.0,0.0,0.0,0.0,0.0,0.0,-0.3789,-0.2249,-0.09,0.0159,0.1795,0.2631,0.2597,0.2514,0.2399,0.0,0.0,0.0,0.0,0.0,0.0,0.0,0.0,0.0,0.0,0.0,0.0,0.0,0.0,0.0,0.0,0.0,0.0,0.0,0.0,0.0,0.0,0.0,0.0,0.0,0.0,0.0,0.0,0.0,0.0,0.0,0.0,0.0,0.0,0.0,0.0,0.0,0.0,0.0,0.0,0.0,-0.8684,-0.8231,-0.8228,-0.8297,0.0,0.0,-0.828,-0.828,-0.8313,0.0,0.0,0.0,0.0,0.0,0.0,0.0,0.0,0.0,0.0,0.0,0.0,0.0,0.0,0.0,0.0,0.0,0.0,0.0,0.0,0.0,0.0,0.0,0.0,0.0,0.0,0.0,0.0,0.0,0.0,0.0,0.0,0.0,0.0,0.0,0.0,0.0,0.0,0.0,0.0,0.0,0.0,0.0,0.0,0.0,0.0,0.0,0.0,0.0,0.0,0.0,0.0,0.0,0.0,0.0,-0.3786,-0.373,-0.1867,-0.0306,0.0645,0.2312,0.3168,0.2986,0.3027,0.2876,0.0,0.0,0.0,0.0,0.0,0.0,0.0,0.0,0.0,0.0,0.0,0.0,0.0,0.0,0.0,0.0,0.0,0.0,0.0,0.0,0.0,0.0,0.0,0.0,0.0,0.0,0.0,0.0,0.0,0.0,0.0,0.0,0.0,0.0,0.0,0.0,0.0,0.0,0.0,0.0,0.0,0.0,-0.8193,-0.7954,0.0,0.0,0.0,-0.777,-0.777,0.0,0.0,0.0,0.0,0.0,0.0,0.0,0.0,0.0,0.0,0.0,0.0,0.0,0.0,0.0,0.0,0.0,0.0,0.0,0.0,0.0,0.0,0.0,0.0,0.0,0.0,0.0,0.0,0.0,0.0,0.0,0.0,0.0,0.0,0.0,0.0,0.0,0.0,0.0,0.0,0.0,0.0,0.0,0.0,0.0,0.0,0.0,0.0,0.0,0.0,0.0,0.0,0.0,0.0,0.0,0.0,0.0,-0.3652,-0.1464,0.0467,0.1795,0.3007,0.3544,0.3532,0.355,0.0,0.0,0.0,0.0,0.0,0.0,0.0,0.0,0.0,0.0,0.0,0.0,0.0,0.0,0.0,0.0,0.0,0.0,0.0,0.0,0.0,0.0,0.0,0.0,0.0,0.0,0.0,-0.5777,0.0,0.0,0.0,0.0,0.0,0.0,0.0,0.0,0.0,0.0,0.0,0.0,0.0,0.0,-0.7838,-0.7928,-0.7694,-0.7514,0.0,0.0,-0.7538,-0.751,-0.7332,-0.7269,0.0,0.0,0.0,0.0,0.0,0.0,0.0,0.0,0.0,0.0,0.0,0.0,0.0,0.0,0.0,0.0,0.0,0.0,0.0,0.0,0.0,0.0,0.0,0.0,0.0,0.0,0.0,0.0,0.0,0.0,0.0,0.0,0.0,0.0,0.0,0.0,0.0,0.0,0.0,0.0,0.0,0.0,0.0,0.0,0.0,0.0,0.0,0.0,0.0,0.0,0.0,0.0,0.0,0.0,0.0,-0.2882,-0.089,0.142,0.3797,0.3718,0.3743,0.4036,0.374,0.326,0.0,0.0,0.0,0.0,0.0,0.0,0.0,0.0,0.0,0.0,0.0,0.0,0.0,0.0,0.0,0.0,0.0,0.0,0.0,0.0,0.0,0.0,0.0,0.0,0.0,0.0,0.0,0.0,0.0,0.0,0.0,0.0,0.0,0.0,0.0,0.0,0.0,0.0,0.0,0.0,0.0,-0.7821,-0.7206,-0.7553,-0.7709,0.0,0.0,-0.8074,-0.7832,-0.7645,-0.7541,-0.7245,0.0,0.0,0.0,0.0,0.0,0.0,0.0,0.0,0.0,0.0,0.0,0.0,0.0,0.0,0.0,0.0,0.0,0.0,0.0,0.0,0.0,0.0,0.0,0.0,0.0,0.0,0.0,0.0,0.0,0.0,0.0,0.0,0.0,0.0,0.0,0.0,0.0,0.0,0.0,0.0,0.0,0.0,0.0,0.0,0.0,0.0,0.0,0.0,0.0,0.0,0.0,0.0,0.0,-0.3211,-0.2955,-0.0905,0.1282,0.3203,0.3773,0.431,0.4977,0.4786,0.44,0.0,0.0,0.0,0.0,0.0,0.0,0.0,0.0,0.0,0.0,0.0,0.0,0.0,0.0,0.0,0.0,0.0,0.0,0.0,0.0,0.0,0.0,0.0,0.0,0.0,0.0,0.0,0.0,-0.529,-0.541,-0.5757,0.0,0.0,0.0,0.0,0.0,0.0,0.0,0.0,0.0,0.0,-0.7268,-0.6927,-0.6845,0.0,0.0,-0.6708,-0.6829,-0.7031,-0.6913,-0.6881,-0.7143,-0.7075,0.0,0.0,0.0,0.0,0.0,0.0,0.0,0.0,0.0,0.0,0.0,0.0,0.0,0.0,0.0,0.0,0.0,0.0,0.0,0.0,0.0,0.0,0.0,0.0,0.0,0.0,0.0,0.0,0.0,0.0,0.0,0.0,0.0,0.0,0.0,0.0,0.0,0.0,0.0,0.0,0.0,0.0,0.0,0.0,0.0,0.0,0.0,0.0,0.0,0.0,0.0,0.0,-0.2739,-0.2572,-0.0611,0.1297,0.3247,0.3989,0.4889,0.5755,0.5709,0.5445,0.0,0.0,0.0,0.0,0.0,0.0,0.0,0.0,0.0,0.0,0.0,0.0,0.0,0.0,0.0,0.0,0.0,0.0,0.0,0.0,0.0,0.0,0.0,0.0,0.0,0.0,0.0,0.0,-0.4926,-0.5119,-0.5509,0.0,0.0,0.0,0.0,0.0,0.0,0.0,0.0,0.0,0.0,-0.6647,-0.6547,-0.6291,-0.5942,-0.5965,-0.5969,-0.6094,-0.6316,-0.6371,-0.6372,-0.6705,0.0,0.0,0.0,0.0,0.0,0.0,0.0,0.0,0.0,0.0,0.0,0.0,0.0,0.0,0.0,0.0,0.0,0.0,0.0,0.0,0.0,0.0,0.0,0.0,0.0,0.0,0.0,0.0,0.0,0.0,0.0,0.0,0.0,0.0,0.0,0.0,0.0,0.0,0.0,0.0,0.0,0.0,0.0,0.0,0.0,0.0,0.0,0.0,0.0,0.0,0.0,0.0,0.0,-0.1711,-0.1286,-0.0308,0.1634,0.4442,0.4889,0.547,0.635,0.6328,0.6082,0.5327,0.0,0.0,0.0,0.0,0.0,0.0,0.0,0.0,0.0,0.0,0.0,0.0,0.0,0.0,0.0,0.0,0.0,0.0,0.0,0.0,0.0,0.0,0.0,0.0,0.0,0.0,-0.4561,-0.4647,-0.4835,0.0,0.0,0.0,0.0,0.0,0.0,0.0,0.0,0.0,0.0,-0.6753,-0.6386,-0.6054,-0.607,-0.6035,-0.5789,-0.5955,-0.624,-0.6169,-0.6036,-0.6033,0.0,0.0,0.0,0.0,0.0,0.0,0.0,0.0,0.0,0.0,0.0,0.0,0.0,0.0,0.0,0.0,0.0,0.0,0.0,0.0,0.0,0.0,0.0,0.0,0.0,0.0,0.0,-0.229,-0.2476,0.0,0.0,0.0,0.0,0.0,0.0,0.0,0.0,0.0,0.0,0.0,-0.0967,-0.0756,0.0,0.0,0.0,0.0,0.0,0.0,0.0,0.0,0.0,0.0,0.0,0.0,-0.1475,-0.0293,0.0783,0.2314,0.4316,0.512,0.6047,0.7064,0.6891,0.607,0.4704,0.0,0.0,0.0,0.0,0.0,0.0,0.0,0.0,0.0,0.0,0.0,0.0,0.0,0.0,0.0,0.0,0.0,0.0,0.0,0.0,0.0,0.0,0.0,0.0,0.0,-0.454,0.0,0.0,0.0,0.0,0.0,0.0,0.0,0.0,0.0,0.0,0.0,-0.7098,-0.666,-0.643,-0.6126,-0.5755,-0.5402,-0.5312,0.0,0.0,0.0,0.0,0.0,0.0,0.0,0.0,0.0,0.0,0.0,0.0,0.0,0.0,-0.7623,-0.7933,-0.7993,-0.8113,-0.8113,0.0,0.0,0.0,0.0,0.0,0.0,0.0,0.0,0.0,0.0,0.0,0.0,0.0,0.0,0.0,0.0,-0.1682,0.0,0.0,0.0,0.0,0.0,0.0,0.0,0.0,0.0109,0.0562,0.0116,0.0584,0.0937,0.0,0.082,0.0462,0.0,0.0,0.0,0.0,0.0,0.0,0.0,0.0,-0.1368,0.0148,0.1902,0.3338,0.4166,0.5345,0.6461,0.7279,0.7424,0.6578,0.4736,0.3584,0.2429,0.0,0.0,0.0,0.0,0.0,0.0,0.0,0.0,0.0,0.0,0.0,0.0,0.0,0.0,0.0,0.0,0.0,0.0,0.0,0.0,0.0,0.0,0.0,-0.413,0.0,0.0,0.0,0.0,0.0,0.0,0.0,0.0,0.0,-0.7057,-0.7016,-0.6891,-0.6493,-0.6195,-0.5829,-0.556,0.0,0.0,0.0,0.0,0.0,0.0,0.0,-0.5432,-0.5806,-0.6162,-0.6507,-0.672,-0.733,-0.7649,-0.7725,0.0,0.0,-0.7714,-0.7744,-0.7759,-0.7922,-0.8247,-0.8441,-0.8356,-0.8519,-0.8671,0.0,0.0,0.0,0.0,0.0,0.0,0.0,0.0,-0.0,-0.0216,0.0,-0.074,0.0,0.0,0.0,0.0,0.0,0.0,0.0,0.0,0.1631,0.1803,0.1114,0.1885,0.2152,0.2152,0.2151,0.2135,0.1975,0.0466,0.0,0.0,0.0,0.0,0.0,0.0,-0.1394,0.0298,0.2879,0.4208,0.4351,0.5739,0.6887,0.7349,0.7933,0.7301,0.5437,0.3472,0.2283,0.2165,0.115,0.0,0.0,0.0,0.0,0.0,0.0,0.0,0.0,0.0,0.0,0.0,0.0,0.0,0.0,0.0,0.0,0.0,0.0,0.0,0.0,-0.3865,0.0,0.0,0.0,0.0,0.0,0.0,0.0,0.0,0.0,0.0,-0.6575,-0.6511,-0.6425,-0.6551,0.0,0.0,0.0,0.0,-0.5139,-0.5199,-0.5045,-0.5045,-0.5207,-0.5158,-0.5123,-0.5602,0.0,0.0,-0.6838,-0.7423,-0.7862,-0.8163,-0.8145,-0.8131,-0.741,-0.7439,-0.7593,-0.8093,-0.8265,-0.8296,-0.8676,-0.8651,-0.8622,0.4279,0.0,0.0,0.0,0.0,0.1228,0.0896,0.0676,0.1368,0.1141,0.0453,0.0449,0.0,0.0,0.0,0.0,0.0,0.0,0.0,0.1344,0.2245,0.2811,0.3021,0.3035,0.2909,0.2909,0.2909,0.2901,0.2626,0.1808,0.1004,0.012,0.0,0.0,0.0,0.0,-0.0288,0.0309,0.2774,0.4442,0.4797,0.6323,0.7432,0.825,0.8391,0.7635,0.59,0.4245,0.3004,0.2286,0.1897,0.0,0.0,0.0,0.0,0.0,0.0,0.0,0.0,0.0,0.0,0.0,0.0,0.0,0.0,0.0,0.0,0.0,0.0,0.0,-0.3978,-0.3357,-0.2928,0.0,0.0,0.0,0.0,0.0,0.0,0.0,0.0,0.0,-0.5877,-0.6118,-0.6151,0.0,0.0,-0.5027,-0.4867,-0.4576,-0.4279,-0.4327,0.0,0.0,0.0,-0.4489,-0.448,-0.4477,-0.4913,-0.5653,-0.6383,-0.6645,-0.674,-0.684,-0.6829,-0.6777,-0.6653,-0.7404,-0.8061,-0.8236,-0.8293,-0.8503,-0.8542,-0.8629,-0.8711,0.6069,0.4875,0.3687,0.3013,0.2531,0.205,0.1815,0.1825,0.281,0.2676,0.1928,0.1796,0.1652,0.1271,0.1271,0.0,0.0,0.0,0.2004,0.3006,0.3446,0.3801,0.4195,0.406,0.392,0.392,0.392,0.3771,0.3334,0.3198,0.26,0.172,0.0,0.0,-0.027,0.0563,0.089,0.079,0.3147,0.4661,0.5196,0.6731,0.8038,0.8709,0.8719,0.7972,0.654,0.521,0.392,0.2989,0.2426,0.1899,0.0,0.0,0.0,0.0,0.0,0.0,0.0,0.0,0.0,0.0,0.0,-0.4069,-0.4279,0.0,0.0,0.0,-0.4111,-0.3723,-0.318,-0.284,0.0,0.0,0.0,0.0,0.0,0.0,0.0,-0.3978,-0.4445,-0.4794,-0.4982,-0.5078,-0.5164,-0.5266,-0.506,-0.469,-0.4316,0.0,-0.3871,-0.3915,-0.4093,-0.4093,-0.3922,-0.392,-0.392,-0.4263,-0.4917,-0.5558,-0.6186,-0.6473,-0.6591,-0.6554,-0.654,-0.654,-0.654,-0.7267,-0.7769,-0.792,-0.8265,-0.8498,-0.8697,-0.8795,-0.8714,0.7624,0.7135,0.5281,0.4316,0.3771,0.2602,0.249,0.3183,0.4327,0.4299,0.3375,0.3203,0.288,0.2193,0.2191,0.0,0.0,0.3466,0.3858,0.4707,0.4765,0.4889,0.5057,0.5063,0.5066,0.506,0.506,0.4733,0.4387,0.4241,0.3953,0.322,0.2517,0.1518,0.0283,0.1905,0.2295,0.1605,0.3692,0.5053,0.5396,0.7327,0.8504,0.8869,0.8693,0.8121,0.7021,0.5864,0.4867,0.3874,0.2836,0.2285,0.2166,0.0,0.0,0.0,0.0,0.0,0.0,0.0,0.0,0.0,0.0,0.0,0.0,0.0,0.0,0.0,-0.3342,0.0,-0.2598,-0.2483,0.0,0.0,0.0,-0.2128,-0.2539,-0.2576,-0.2775,-0.3441,0.0,0.0,-0.4008,0.0,-0.4048,-0.4754,-0.455,-0.4334,-0.4054,-0.3926,-0.3964,-0.4016,-0.402,-0.4018,-0.3851,-0.3496,-0.3318,-0.4368,-0.5053,-0.5385,-0.5903,-0.6413,-0.6592,-0.6745,-0.6769,-0.6762,-0.6769,-0.6735,-0.701,-0.7317,-0.7952,-0.8354,-0.8761,-0.868,-0.8429,0.8857,0.831,0.726,0.6133,0.4884,0.4045,0.3916,0.435,0.5376,0.5191,0.4261,0.3974,0.3503,0.3017,0.3017,0.3193,0.3543,0.3837,0.3935,0.4231,0.5025,0.5703,0.6263,0.6166,0.6012,0.5962,0.5955,0.5764,0.5556,0.5147,0.4715,0.4411,0.3035,0.2109,0.1937,0.2448,0.2859,0.316,0.4822,0.6255,0.7603,0.87,0.9237,0.8869,0.8628,0.8085,0.6925,0.593,0.4941,0.3969,0.3217,0.2787,0.2368,0.1971,0.0,0.0,0.0,0.0,0.0,0.0,0.0,0.0,0.0,-0.3155,-0.3526,0.0,-0.3003,0.0,-0.2934,-0.2675,-0.2592,-0.1835,0.0,0.0,-0.1199,-0.1477,-0.2157,-0.2202,-0.226,-0.2472,-0.2691,-0.293,-0.3518,-0.3781,-0.3846,-0.3856,-0.3716,-0.3773,-0.3696,-0.3367,-0.3039,-0.3267,-0.3279,-0.3283,-0.3277,-0.3079,-0.3062,-0.3786,-0.3913,-0.4224,-0.5103,-0.5242,-0.5388,-0.5732,-0.5906,-0.5906,-0.5911,-0.6079,-0.6432,-0.656,-0.7042,-0.7355,-0.7377,-0.7399,-0.7417,0.9765,0.9233,0.8753,0.7963,0.6808,0.569,0.5203,0.5477,0.6414,0.6194,0.5176,0.4858,0.4382,0.3909,0.3767,0.381,0.4028,0.4318,0.47,0.5173,0.5826,0.6519,0.726,0.7148,0.6986,0.6949,0.6941,0.6762,0.6566,0.6135,0.5682,0.5052,0.4132,0.3335,0.284,0.2703,0.3095,0.373,0.5478,0.6945,0.8248,0.8958,0.9279,0.8869,0.8828,0.8097,0.7073,0.5936,0.4799,0.4001,0.3572,0.3152,0.2452,0.2313,0.1682,0.0,0.0,0.0,0.0,0.0,0.0,0.0,0.0,0.0,0.0,0.0,-0.2698,0.0,-0.2586,-0.2411,-0.246,-0.1929,-0.1249,-0.0558,-0.0562,-0.0709,-0.1148,-0.1455,-0.1634,-0.1684,-0.1884,-0.225,-0.2964,-0.3384,-0.3455,-0.3144,-0.3162,-0.3185,-0.3224,-0.2713,-0.2194,-0.2402,-0.2776,-0.2962,-0.2962,-0.2947,-0.312,-0.3482,-0.3622,-0.3762,-0.4478,-0.462,-0.4763,-0.4936,-0.5112,-0.512,-0.5319,-0.5504,-0.57,-0.6108,-0.6281,-0.6605,-0.6928,-0.7126,-0.7149,1.0308,0.9983,0.9978,0.9647,0.9131,0.7358,0.6605,0.6674,0.7301,0.7205,0.6141,0.576,0.543,0.4994,0.4543,0.4722,0.4937,0.5089,0.5641,0.6612,0.6945,0.7505,0.8139,0.799,0.799,0.7977,0.7815,0.7645,0.7309,0.7321,0.6516,0.5389,0.5232,0.461,0.3494,0.2967,0.3171,0.4142,0.5963,0.7253,0.8462,0.9003,0.9136,0.9053,0.9041,0.8456,0.7014,0.574,0.4791,0.4163,0.3912,0.3515,0.2533,0.2249,0.1887,0.0,0.0622,0.0,0.0,0.0,0.0,0.0,0.0,0.0,0.0,-0.2641,-0.2605,-0.238,-0.2185,-0.2105,-0.1867,-0.1729,-0.116,0.0,0.0,0.0,0.0,-0.0611,-0.093,-0.1123,-0.0984,-0.1334,-0.22,-0.2607,-0.284,-0.2871,-0.29,-0.2912,-0.254,-0.2019,-0.1856,-0.2042,-0.2601,-0.298,-0.2979,-0.2972,-0.3152,-0.3521,-0.3493,-0.3653,-0.4201,-0.4169,-0.4326,-0.4326,-0.4324,-0.4519,-0.4924,-0.5108,-0.531,-0.5726,-0.5921,-0.6267,-0.6766,-0.6968,-0.7214,1.1306,1.0795,1.0449,1.0223,0.9973,0.9095,0.8761,0.8518,0.8682,0.8296,0.7393,0.7233,0.6709,0.5945,0.5738,0.578,0.6055,0.6368,0.6455,0.6452,0.7657,0.8526,0.9057,0.8645,0.8475,0.8401,0.8073,0.7872,0.7637,0.7378,0.6952,0.635,0.5732,0.494,0.396,0.0,0.0,0.0,0.6778,0.8017,0.9479,0.9901,0.9806,0.9412,0.9619,0.0,0.7522,0.5864,0.4915,0.48,0.4572,0.0,0.0,0.0,0.0,0.0,0.0,0.0,0.0,0.0,0.0,0.0,-0.1155,-0.1655,-0.2669,-0.2385,-0.1915,-0.1386,-0.1867,-0.1616,-0.0443,0.0894,0.1506,0.1067,0.0462,0.0,0.0,0.0,-0.0162,-0.0166,0.0,0.0,0.0,-0.1762,-0.2851,-0.2905,-0.2936,-0.2591,-0.1861,-0.2243,-0.2257,-0.1893,-0.2461,-0.3033,-0.3036,-0.3014,-0.2998,-0.3182,-0.3159,-0.3325,-0.3691,-0.387,-0.4048,-0.423,-0.4418,-0.4418,-0.4428,-0.4799,-0.5182,-0.5234,-0.5621,-0.5978,-0.6103,-0.61,-0.6293,1.1618,0.0,1.0923,1.072,0.0,1.0154,1.0058,1.006,0.9897,0.9273,0.8362,0.8106,0.7591,0.696,0.6762,0.663,0.6702,0.7183,0.7248,0.72,0.8397,0.9278,0.9998,0.9383,0.9045,0.8994,0.8883,0.854,0.8335,0.8252,0.7642,0.6836,0.6359,0.5531,0.4173,0.3866,0.4461,0.6007,0.6838,0.8065,0.9888,1.0506,1.0582,0.9963,0.0,0.0,0.0,0.0,0.0,0.0,0.0,0.0,0.0,0.0,0.0,0.229,0.1674,0.1099,0.0824,0.0409,0.0137,0.0139,0.014,-0.0415,-0.1754,-0.211,-0.2023,-0.1591,-0.0595,0.0607,0.1375,0.2164,0.2347,0.2057,0.1594,0.0964,0.0,0.0,0.0,0.0,0.0,0.0,0.0,-0.0716,-0.181,-0.2767,-0.2976,-0.2809,-0.2267,-0.1704,-0.1519,-0.2097,-0.2671,-0.3052,-0.3051,-0.3041,-0.3029,-0.3025,-0.3005,-0.3173,-0.3357,-0.3343,-0.3518,-0.3703,-0.3703,-0.3708,-0.4101,-0.4475,-0.4861,-0.5285,-0.5677,-0.6049,-0.6014,-0.6008,-0.6008,1.2032,1.1859,1.1513,1.1323,1.1134,1.0956,1.0945,1.1079,0.0,0.0,0.0,0.8964,0.8468,0.7981,0.7641,0.7487,0.7677,0.8006,0.8061,0.8157,0.8994,0.9883,1.0651,0.9968,0.9627,0.9632,0.955,0.9417,0.9076,0.8985,0.8338,0.7313,0.6969,0.5937,0.4387,0.4468,0.5077,0.6041,0.6697,0.7917,0.9896,1.0751,1.1026,1.0553,0.9523,0.876,0.8423,0.7737,0.6773,0.5709,0.5494,0.4958,0.4108,0.356,0.3047,0.2561,0.2354,0.2041,0.162,0.1456,0.1453,0.1468,0.1489,0.0887,-0.0428,-0.1177,-0.1504,-0.1658,0.0923,0.2503,0.2687,0.2711,0.2579,0.2609,0.2617,0.2139,0.0,0.0168,0.0,0.0,0.0,0.0,0.0,0.0,-0.0736,-0.2431,-0.2818,-0.2642,-0.2474,-0.1144,-0.0763,-0.1907,-0.2479,-0.2862,-0.3052,-0.3051,-0.3052,-0.3048,-0.3031,-0.3016,-0.3011,-0.2994,-0.298,-0.3169,-0.2977,-0.3176,-0.3574,-0.4144,-0.4721,-0.514,-0.5718,-0.6101,-0.6109,-0.6112,-0.6112,1.282,1.2113,1.2113,1.1698,1.1248,1.1423,1.1373,1.144,1.1108,1.0467,1.0019,0.9758,0.9549,0.9057,0.8964,0.8857,0.9022,0.9193,0.9118,0.0,0.9983,1.0517,1.1052,1.0527,1.0184,1.0184,0.986,0.9692,0.9692,0.9189,0.8718,0.8269,0.7395,0.6042,0.4704,0.531,0.6106,0.673,0.6929,0.8098,1.0465,1.0929,1.1237,1.1207,1.1082,1.049,0.9131,0.8599,0.7917,0.7099,0.6256,0.5564,0.5018,0.4476,0.3965,0.3161,0.263,0.2446,0.2297,0.227,0.2256,0.2413,0.231,0.2004,0.1053,0.0921,0.0783,0.0791,0.1281,0.1779,0.2431,0.2597,0.2613,0.2639,0.2665,0.2524,0.221,0.0,0.0,0.0,0.0,0.0,0.0,0.0,-0.0742,-0.2251,-0.2826,-0.2266,-0.0952,-0.0191,-0.0191,-0.0572,-0.1144,-0.2098,-0.2671,-0.3052,-0.3052,-0.3052,-0.3048,-0.3043,-0.3043,-0.3036,-0.3032,-0.3037,-0.3032,-0.3227,-0.3234,-0.3995,-0.4567,-0.4768,-0.5344,-0.6117,-0.6164,-0.6177,-0.618,1.3585,1.2985,1.2448,1.2194,1.1726,1.155,1.1834,1.2247,1.1485,1.0875,1.0598,1.0361,1.0003,0.9835,0.9613,0.9478,0.9573,0.9909,0.9787,0.9697,1.0401,1.0929,1.1279,1.0929,1.0751,1.0756,1.0641,1.0493,1.015,0.9684,0.9202,0.8542,0.6981,0.5974,0.5327,0.5752,0.6372,0.7187,0.737,0.833,1.0654,1.137,1.1689,1.1615,1.1399,1.0845,1.0141,0.9288,0.8629,0.7985,0.6965,0.6237,0.5636,0.5111,0.4252,0.3553,0.3195,0.2859,0.2541,0.2529,0.2678,0.2837,0.3022,0.2879,0.2386,0.2236,0.2087,0.2099,0.2121,0.2135,0.2628,0.2657,0.2683,0.2695,0.2724,0.2747,0.2589,0.1568,0.0528,0.0,0.0,0.0,0.0,0.0,0.0,-0.1324,-0.2087,-0.209,0.0,0.0,0.0,0.0,-0.0381,-0.0763,-0.1335,-0.2479,-0.3052,-0.3052,-0.3052,-0.3052,-0.3052,-0.3052,-0.3052,-0.3052,-0.3052,-0.3052,-0.3052,-0.3624,-0.4204,-0.461,-0.5188,-0.5787,-0.6027,-0.6262,-0.6468,1.4127,1.3842,1.2909,1.2287,1.1988,1.181,1.2113,1.2735,1.2021,1.1614,1.1356,1.0772,1.0579,1.0579,1.0234,1.0071,1.0269,1.0437,1.0452,1.0294,1.083,1.1356,1.1535,1.1356,1.1183,1.1194,1.1275,1.1138,1.0796,1.0347,0.9509,0.8457,0.6896,0.605,0.5943,0.636,0.6798,0.7827,0.7823,0.8774,1.0692,1.1672,1.2205,1.2074,1.1583,1.1237,1.0865,1.0011,0.9193,0.8577,0.7679,0.6911,0.6277,0.5592,0.4873,0.4125,0.3775,0.327,0.2602,0.2601,0.2764,0.3253,0.3261,0.3282,0.348,0.314,0.28,0.2803,0.2657,0.2671,0.2683,0.2718,0.2748,0.275,0.2774,0.2791,0.2796,0.1942,0.0892,0.0,0.0,0.0,0.0,0.0,0.0,0.0,-0.1527,-0.1527,0.0,0.0,0.0,0.0,0.0,0.0,0.0,-0.1144,-0.2479,-0.2862,-0.3052,-0.3052,-0.3052,-0.3052,-0.3052,-0.3052,-0.3052,-0.3052,-0.3052,-0.3441,-0.4031,-0.444,-0.5036,-0.5648,-0.6289,-0.6346,-0.6564,1.4368,1.3965,1.3319,1.246,1.1627,1.1988,1.2509,1.2857,1.2857,1.268,1.2626,1.1547,1.1112,1.1101,1.094,1.0993,1.1079,1.1253,1.1313,1.1229,1.1422,1.1422,1.1588,1.1417,1.1422,1.1417,1.1427,1.1427,1.125,1.0382,0.955,0.8549,0.7649,0.681,0.6366,0.6945,0.7767,0.8488,0.8868,0.9636,1.0806,1.1864,1.2444,1.2324,1.2199,1.1887,1.1367,1.0451,0.9932,0.9295,0.8325,0.7363,0.6938,0.641,0.5687,0.4769,0.4214,0.3656,0.2772,0.2601,0.2768,0.3254,0.3288,0.3489,0.3862,0.3558,0.3066,0.2895,0.2727,0.2737,0.2766,0.2776,0.2778,0.2781,0.2806,0.2825,0.2656,0.1977,0.1092,0.0,0.0,0.0,0.0,0.0,0.0,0.0,0.0,0.0,0.0,0.0,0.0,0.0,0.0,0.0,0.0,0.0,0.0,-0.2485,-0.3054,-0.3056,-0.3058,-0.3055,-0.3052,-0.3052,-0.3052,-0.3052,-0.3249,-0.3455,-0.3863,-0.4072,-0.4879,-0.5705,-0.6153,-0.6406,-0.6617,1.532,1.4869,1.4074,1.2818,1.1726,1.2372,1.3059,1.3597,1.3059,1.3053,1.3224,1.2232,1.1664,1.1659,1.1489,1.134,1.1378,1.1378,1.1406,1.1455,1.1455,1.1455,1.1455,1.1455,1.1455,1.1455,1.1455,1.1455,1.1293,1.063,0.964,0.864,0.7767,0.7267,0.6952,0.7366,0.8006,0.9076,0.9902,1.0731,1.1573,1.2352,1.2676,1.2362,1.2308,1.2183,1.1631,1.0781,1.0326,0.9853,0.8673,0.7695,0.7085,0.6689,0.5937,0.4839,0.4103,0.3544,0.3158,0.2987,0.3328,0.3685,0.404,0.4238,0.4625,0.448,0.3983,0.3307,0.2948,0.277,0.2784,0.2799,0.281,0.2814,0.2837,0.2861,0.2882,0.2541,0.1648,0.0,0.0,0.0,0.0,0.0,0.0,0.0,0.0,0.0,0.0,0.0,0.0,0.0,0.0,0.0,0.0,0.0,0.0,0.0,-0.1738,-0.2309,-0.2883,-0.3061,-0.3052,-0.3052,-0.3052,-0.3052,-0.3052,-0.3269,-0.3487,-0.39,-0.4745,-0.5797,-0.642,-0.6444,-0.6645,1.5874,1.5582,1.4798,1.3315,1.2147,1.2788,1.3629,1.4135,1.3591,1.3407,1.3768,1.2875,1.2343,1.2343,1.181,1.1455,1.1455,1.1455,1.1455,1.1455,1.1455,1.1455,1.1455,1.1455,1.1455,1.146,1.1493,1.1341,1.1194,1.0549,0.9739,0.8728,0.8043,0.7708,0.7548,0.7788,0.8431,0.9499,1.0542,1.1422,1.2129,1.2678,1.2775,1.246,1.2417,1.2303,1.2096,1.1091,1.0464,1.0198,0.9003,0.8008,0.7391,0.6974,0.6198,0.507,0.4323,0.394,0.3567,0.3735,0.3919,0.4289,0.4638,0.4831,0.5051,0.5065,0.4562,0.3894,0.3357,0.2997,0.2811,0.2829,0.2842,0.2852,0.2874,0.2898,0.2926,0.2936,0.2221,0.075,0.0,0.0,0.0,0.0,0.0,0.0,0.0,0.0,0.0,0.0,0.0,0.0,0.0,0.0,0.0,0.0,0.0,0.0,-0.078,-0.1359,-0.2325,-0.2499,-0.3056,-0.3058,-0.3055,-0.3061,-0.3073,-0.3093,-0.332,-0.3951,-0.4796,-0.5647,-0.605,-0.6259,-0.6461,1.5938,1.5716,1.4653,1.3878,1.3245,1.3604,1.3892,1.4333,1.4312,1.4306,1.4135,1.3236,1.2875,1.2698,1.1999,1.1455,1.146,1.1465,1.1471,1.1476,1.1471,1.146,1.1455,1.1455,1.1465,1.1498,1.1585,1.1133,1.0499,1.033,0.9838,0.882,0.8454,0.7924,0.7792,0.8189,0.9036,1.0153,1.0773,1.1658,1.2642,1.2868,1.2797,1.2683,1.258,1.2455,1.2319,1.1167,1.0497,1.0115,0.9283,0.864,0.8016,0.7457,0.6485,0.5306,0.5245,0.5038,0.4336,0.4331,0.4684,0.4865,0.4865,0.5061,0.5464,0.5301,0.4795,0.4299,0.3794,0.3437,0.2874,0.2874,0.2885,0.2905,0.2912,0.2928,0.2957,0.298,0.2437,0.1506,0.0569,0.0,0.0,0.0,0.0,0.0,0.0,0.0,0.0,0.0,0.0,0.0,0.0,0.0,0.0,0.0,0.0,0.0,0.0,0.0,0.0,-0.1545,-0.2309,-0.3067,-0.3069,-0.3077,-0.3096,-0.332,-0.336,-0.3791,-0.4417,-0.5049,-0.5853,-0.6259,-0.6461,1.5931,1.5355,1.5031,1.4718,1.4434,1.4517,1.4443,1.4757,1.4475,1.4434,1.4236,1.3629,1.3236,1.2881,1.2252,1.1928,1.1569,1.1569,1.1612,1.1496,1.1688,1.1688,1.1688,1.1688,1.1688,1.1694,1.1732,1.1263,1.043,1.044,0.9937,0.9081,0.8527,0.8353,0.8576,0.8813,0.9478,1.0565,1.1226,1.1926,1.2868,1.289,1.2863,1.2819,1.2634,1.2482,1.2357,1.1626,1.0785,1.0216,0.975,0.9128,0.8166,0.7337,0.6497,0.5491,0.5281,0.508,0.47,0.4694,0.4884,0.4915,0.5268,0.547,0.57,0.5565,0.5236,0.4538,0.4208,0.3857,0.3117,0.293,0.2934,0.2942,0.2946,0.2957,0.2983,0.3001,0.2636,0.1516,0.0,0.0,0.0,0.0,0.0,0.0,0.0,0.0,0.0,0.0,0.0,0.0,0.0,0.0,0.0,0.0,0.0,0.0,0.0,0.0,0.0,0.0,-0.2143,-0.2914,-0.3101,-0.3106,-0.3129,-0.3152,-0.3389,-0.3814,-0.4444,-0.5049,-0.5652,-0.6057,-0.6461,1.6119,1.5167,1.5079,1.5011,1.5149,1.4862,1.4787,1.4733,1.4631,1.4557,1.433,1.3918,1.3522,1.2973,1.2542,1.2079,1.1737,1.1716,1.1555,1.1625,1.1819,1.1819,1.1824,1.1819,1.1819,1.1824,1.1862,1.1377,1.0727,1.0549,1.0023,0.9138,0.8763,0.8763,0.9158,0.9424,1.0087,1.0963,1.1461,1.1967,1.2873,1.289,1.289,1.2863,1.2694,1.2531,1.2411,1.1719,1.1257,1.0649,1.0023,0.9411,0.8252,0.7391,0.6537,0.6079,0.5533,0.5152,0.5105,0.5095,0.512,0.535,0.5533,0.5736,0.5793,0.5839,0.531,0.4591,0.4438,0.4091,0.3351,0.2984,0.2987,0.2979,0.2976,0.2988,0.3016,0.3021,0.2467,0.1147,0.0383,0.0,0.0,0.0,0.0,0.0,0.0,0.0,0.0,0.0,0.0,0.0,0.0,0.0,0.0,0.0,0.0,0.0,0.0,0.0,0.0,0.0,-0.1972,-0.2754,-0.3146,-0.3149,-0.3161,-0.3183,-0.3405,-0.3832,-0.4242,-0.4847,-0.5452,-0.6057,-0.6259,1.6119,1.5181,1.5181,1.5099,1.4997,1.4977,1.4882,1.4787,1.4753,1.4679,1.459,1.4114,1.3719,1.3132,1.2853,1.242,1.1928,1.1873,1.1846,1.1857,1.1851,1.2035,1.2041,1.1862,1.1857,1.1862,1.1944,1.1486,1.0829,1.064,1.0081,0.9332,0.9142,0.8952,0.9146,0.9815,1.0487,1.0968,1.1466,1.2175,1.2868,1.289,1.289,1.2879,1.277,1.2651,1.2342,1.1838,1.1538,1.1057,1.0474,0.9479,0.8454,0.7621,0.7174,0.6562,0.601,0.5801,0.5752,0.5562,0.5589,0.5628,0.5828,0.5845,0.5888,0.5916,0.5554,0.4636,0.4481,0.4132,0.32,0.3028,0.3033,0.3013,0.3007,0.302,0.304,0.3052,0.2298,0.0,0.0,0.0,0.0,0.0,0.0,0.0,0.0,0.0,0.0,0.0,0.0,0.0,0.0,0.0,0.0,0.0,0.0,0.0,0.0,0.0,0.0,-0.0996,-0.2188,-0.2977,-0.3171,-0.3174,-0.3186,-0.3205,-0.3215,-0.3635,-0.4242,-0.4847,-0.5452,-0.5856,-0.6259,1.622,1.5187,1.5181,1.516,1.512,1.5113,1.5086,1.5038,1.5135,1.5059,1.4821,1.4584,1.3984,1.3437,1.3168,1.2697,1.1987,1.2031,1.2058,1.2063,1.2058,1.2058,1.2245,1.2058,1.2063,1.2063,1.2096,1.1569,1.0838,1.0659,1.009,0.9336,0.9146,0.9146,0.915,1.0056,1.0745,1.1178,1.1936,1.2652,1.2884,1.289,1.289,1.2884,1.2846,1.2776,1.2656,1.2347,1.1843,1.1342,1.0768,0.9927,0.8473,0.7673,0.725,0.6638,0.6262,0.5888,0.5869,0.5864,0.5869,0.5888,0.5894,0.5902,0.5927,0.5962,0.5608,0.4678,0.4526,0.4176,0.342,0.3046,0.3047,0.3039,0.3039,0.304,0.3054,0.2496,0.1354,0.0,0.0,0.0,0.0,0.0,0.0,0.0,0.0,0.0,0.0,0.0,0.0,0.0,0.0,0.0,0.0,0.0,0.0,0.0,0.0,0.0,0.0,-0.1204,-0.2204,-0.3001,-0.3198,-0.32,-0.3212,-0.322,-0.3228,-0.3635,-0.4242,-0.4847,-0.5452,-0.5856,-0.6259,1.6357,1.5269,1.5269,1.5235,1.5187,1.5181,1.5181,1.5167,1.5279,1.5204,1.4964,1.493,1.4316,1.3573,1.3492,1.3022,1.2129,1.221,1.2265,1.2281,1.2194,1.2172,1.2172,1.2172,1.2172,1.2172,1.2172,1.1605,1.0659,1.0659,1.009,0.9332,0.9146,0.9142,0.9349,1.0275,1.0963,1.1383,1.2363,1.289,1.289,1.289,1.289,1.289,1.289,1.2846,1.277,1.27,1.2395,1.1864,1.1225,1.0176,0.8739,0.8134,0.7517,0.7084,0.6508,0.6131,0.5927,0.5916,0.5935,0.5951,0.5957,0.5967,0.5987,0.603,0.5664,0.4916,0.4747,0.4194,0.3624,0.3243,0.3052,0.3052,0.3051,0.3058,0.2877,0.2128,0.1172,0.0,0.0,0.0,0.0,0.0,0.0,0.0,0.0,0.0,0.0,0.0,0.0,0.0,0.0,0.0,0.0,0.0,0.0,0.0,0.0,0.0,0.0,0.0,-0.2215,-0.2818,-0.3217,-0.3215,-0.3224,-0.3225,-0.3231,-0.3836,-0.4242,-0.4847,-0.5251,-0.6057,-0.6461,1.6522,1.5432,1.5425,1.5337,1.5215,1.5208,1.5201,1.5181,1.5174,1.5099,1.5031,1.5099,1.4525,1.3722,1.3633,1.3181,1.2527,1.2357,1.2411,1.2235,1.2324,1.2221,1.2205,1.2183,1.2172,1.2172,1.2172,1.1605,1.0659,1.0659,1.009,0.9142,0.9142,0.934,0.9759,1.0284,1.0968,1.1798,1.2577,1.2884,1.289,1.289,1.289,1.289,1.289,1.2884,1.2868,1.2852,1.2765,1.2369,1.1279,1.0445,0.9457,0.8813,0.7971,0.7531,0.6958,0.655,0.5951,0.5951,0.5967,0.6011,0.6019,0.6038,0.6074,0.6093,0.5913,0.5344,0.4781,0.44,0.383,0.3447,0.3065,0.3059,0.3063,0.3071,0.3097,0.2149,0.1184,0.0,0.0,0.0,0.0,0.0,0.0,0.0,0.0,0.0,0.0,0.0,0.0,0.0,0.0,0.0,0.0,0.0,0.0,0.0,0.0,0.0,0.0,0.0,-0.2222,-0.2828,-0.3232,-0.3231,-0.323,-0.323,-0.3231,-0.3635,-0.4038,-0.4645,-0.5251,-0.6057,-0.6463,1.6681,1.5581,1.5581,1.5493,1.5357,1.535,1.5282,1.5194,1.5181,1.516,1.514,1.5167,1.4785,1.4202,1.3951,1.3471,1.2955,1.2643,1.2498,1.252,1.2482,1.2384,1.2297,1.2216,1.2172,1.2172,1.2172,1.1605,1.0848,1.0659,1.009,0.9142,0.915,0.9374,1.002,1.0713,1.1397,1.1875,1.2604,1.289,1.289,1.289,1.289,1.289,1.289,1.289,1.289,1.289,1.2625,1.2082,1.1373,1.0736,0.995,0.871,0.7883,0.7667,0.6859,0.626,0.6055,0.6049,0.606,0.6071,0.6071,0.6082,0.6096,0.6139,0.5969,0.5404,0.4847,0.4477,0.3895,0.3506,0.3116,0.3116,0.31,0.31,0.2932,0.2171,0.1195,0.0,0.0,0.0,0.0,0.0,0.0,0.0,0.0,0.0,0.0,0.0,0.0,0.0,0.0,0.0,0.0,0.0,0.0,0.0,0.0,0.0,0.0,0.0,-0.2424,-0.2828,-0.3231,-0.3231,-0.323,-0.323,-0.3433,-0.3635,-0.4038,-0.4645,-0.5452,-0.6057,-0.6264,1.6643,1.573,1.573,1.5642,1.5506,1.5241,1.5167,1.5276,1.5208,1.5181,1.5181,1.5181,1.5026,1.4525,1.4222,1.3951,1.3667,1.316,1.283,1.2672,1.2629,1.2515,1.2373,1.227,1.2227,1.2172,1.2172,1.16,1.0848,1.0659,1.009,0.9344,0.9183,0.9611,1.0431,1.1558,1.2051,1.2321,1.2625,1.289,1.289,1.289,1.289,1.289,1.289,1.289,1.289,1.289,1.2652,1.1977,1.1486,1.0834,1.0241,0.899,0.7977,0.7779,0.6963,0.6356,0.6139,0.6134,0.6123,0.6104,0.6098,0.6112,0.6134,0.6172,0.6,0.584,0.5089,0.4512,0.4122,0.3535,0.3142,0.314,0.3138,0.3142,0.3161,0.2591,0.1605,0.0,0.0,0.0,0.0,0.0,0.0,0.0,0.0,0.0,0.0,0.0,0.0,0.0,0.0,0.0,0.0,0.0,0.0,0.0,0.0,0.0,-0.202,-0.2626,-0.2828,-0.303,-0.3231,-0.323,-0.323,-0.323,-0.3231,-0.3635,-0.424,-0.4645,-0.5253,-0.5866,-0.6272,1.6588,1.5872,1.5872,1.5791,1.5655,1.5321,1.5254,1.5377,1.5276,1.5201,1.5194,1.5201,1.5093,1.4832,1.4706,1.4641,1.4275,1.3893,1.3376,1.3002,1.2957,1.2623,1.2444,1.2357,1.2292,1.2216,1.2183,1.1605,1.0848,1.0659,1.0099,0.9369,0.9052,0.9675,1.0902,1.2035,1.2716,1.2754,1.2835,1.2884,1.289,1.289,1.289,1.289,1.289,1.289,1.289,1.289,1.2679,1.2284,1.159,1.0946,1.0339,0.9276,0.8449,0.7851,0.7248,0.6629,0.6204,0.6188,0.6164,0.6125,0.6112,0.6128,0.6175,0.6207,0.6245,0.6286,0.5312,0.4737,0.4143,0.3547,0.3156,0.3161,0.3176,0.3185,0.3197,0.3217,0.2424,0.0,0.0,0.0,0.0,0.0,0.0,0.0,0.0,0.0,0.0,0.0,0.0,0.0,0.0,0.0,0.0,0.0,0.0,0.0,0.0,-0.2232,-0.2629,-0.3032,-0.3032,-0.3232,-0.3231,-0.323,-0.323,-0.323,-0.323,-0.3433,-0.3836,-0.4245,-0.4855,-0.5475,-0.5888,1.6651,1.6029,1.6035,1.5947,1.5818,1.5764,1.5622,1.5418,1.5187,1.5303,1.5235,1.5309,1.5384,1.5241,1.5061,1.5028,1.4902,1.4583,1.4059,1.3473,1.3068,1.277,1.2607,1.2466,1.2352,1.2292,1.221,1.1605,1.0848,1.0673,1.0135,0.944,0.9285,0.9734,1.1049,1.2295,1.2979,1.2835,1.2879,1.2884,1.289,1.289,1.289,1.289,1.289,1.289,1.289,1.289,1.289,1.2479,1.1864,1.1235,1.0618,0.9166,0.8137,0.7728,0.7095,0.6474,0.6256,0.6224,0.6185,0.6175,0.6169,0.6175,0.6191,0.6278,0.6324,0.6161,0.5395,0.4406,0.3802,0.3388,0.3189,0.3198,0.3197,0.3198,0.3216,0.3228,0.2828,0.2222,0.0,0.0,0.0,0.0,0.0,0.0,0.0,0.0,0.0,0.0,0.0,0.0,0.0,0.0,0.0,0.0,0.0,0.0,0.0,-0.2647,-0.3044,-0.3232,-0.3232,-0.3232,-0.3231,-0.323,-0.323,-0.323,-0.323,-0.3433,-0.3636,-0.4052,-0.4669,-0.5291,-0.5728,1.6275,1.6083,1.6083,1.6035,1.5954,1.5879,1.5764,1.5622,1.5348,1.5281,1.5425,1.5493,1.5554,1.5622,1.5589,1.5493,1.5572,1.5254,1.4688,1.3889,1.3084,1.2852,1.2781,1.2607,1.2477,1.2362,1.2227,1.161,1.0858,1.0711,1.019,0.9289,0.9354,0.9836,1.1121,1.218,1.2841,1.2873,1.289,1.289,1.289,1.289,1.289,1.289,1.289,1.289,1.289,1.289,1.289,1.2684,1.1884,1.1282,1.0877,0.9232,0.8214,0.7801,0.6985,0.6346,0.6322,0.6294,0.6262,0.6232,0.6232,0.6251,0.627,0.6338,0.6379,0.6209,0.5434,0.4442,0.3431,0.322,0.3219,0.3223,0.3217,0.3215,0.3227,0.3231,0.3232,0.2828,0.0,0.0,0.0,0.0,0.0,0.0,0.0,0.0,0.0,0.0,0.0,0.0,0.0,0.0,0.0,0.0,0.0,0.0,0.0,-0.2251,-0.306,-0.3044,-0.3231,-0.3231,-0.323,-0.323,-0.323,-0.323,-0.323,-0.3231,-0.3437,-0.3857,-0.4281,-0.4904,-0.5357,1.6083,1.6083,1.6083,1.6083,1.6062,1.5947,1.5872,1.5825,1.5723,1.5642,1.5649,1.5655,1.5723,1.5832,1.5879,1.5974,1.6049,1.5691,1.49,1.3889,1.329,1.2879,1.2835,1.2727,1.2596,1.2406,1.2308,1.1688,1.1131,1.0792,1.0473,0.954,0.9457,0.993,1.097,1.2243,1.2895,1.269,1.2922,1.2912,1.2906,1.2906,1.2922,1.289,1.289,1.289,1.289,1.289,1.289,1.289,1.1884,1.1483,1.0881,0.9476,0.8065,0.8065,0.7248,0.6623,0.6387,0.6365,0.6338,0.6294,0.6294,0.6313,0.6352,0.6379,0.6412,0.6034,0.5251,0.4242,0.3433,0.3227,0.3227,0.323,0.323,0.323,0.323,0.323,0.3231,0.283,0.0,0.0,0.0,0.0,0.0,0.0,0.0,0.0,0.0,0.0,0.0,0.0,0.0,0.0,0.0,0.0,0.0,0.0,0.0,-0.1648,-0.267,-0.3061,-0.3249,-0.3232,-0.323,-0.323,-0.323,-0.323,-0.323,-0.323,-0.3446,-0.367,-0.4093,-0.4517,-0.5187,1.6083,1.6083,1.6083,1.6083,1.6076,1.6049,1.5967,1.5866,1.6035,1.575,1.5676,1.5764,1.5832,1.5886,1.5995,1.6056,1.6083,1.5492,1.4887,1.4083,1.3484,1.289,1.2863,1.2786,1.2683,1.2634,1.2531,1.2084,1.1477,1.1129,1.0588,1.0076,0.9728,0.9977,1.0835,1.2094,1.2511,1.2526,1.2775,1.2982,1.2939,1.296,1.2977,1.2912,1.2912,1.2912,1.2906,1.2901,1.289,1.289,1.1884,1.1488,1.0891,0.9685,0.8672,0.8069,0.7465,0.6852,0.6634,0.6398,0.6373,0.6357,0.6354,0.6354,0.6382,0.6412,0.6238,0.5645,0.4845,0.3836,0.3231,0.323,0.323,0.323,0.323,0.323,0.323,0.323,0.3231,0.3032,0.0,0.0,0.0,0.0,0.0,0.0,0.0,0.0,0.0,0.0,0.0,0.0,0.0,0.0,0.0,0.0,0.0,0.0,0.0,0.0,-0.2072,-0.2876,-0.3268,-0.3251,-0.3236,-0.323,-0.323,-0.3231,-0.3235,-0.3239,-0.3257,-0.3481,-0.3917,-0.4358,-0.5025,1.6083,1.6083,1.6083,1.6083,1.6083,1.6083,1.6042,1.5981,1.5974,1.594,1.5906,1.594,1.5974,1.5995,1.6035,1.6083,1.5884,1.5286,1.4881,1.4277,1.3484,1.289,1.289,1.2819,1.2808,1.2786,1.2738,1.2438,1.1763,1.1221,1.0876,1.033,0.9782,0.984,1.0471,1.1488,1.213,1.2171,1.2834,1.3053,1.2982,1.3004,1.296,1.2988,1.2988,1.3009,1.3064,1.3069,1.3069,1.2861,1.2004,1.1575,1.095,1.0108,0.8877,0.8273,0.7666,0.7062,0.6662,0.6431,0.642,0.6417,0.6417,0.6417,0.6422,0.6444,0.6057,0.5251,0.4643,0.3836,0.3231,0.323,0.323,0.323,0.323,0.323,0.323,0.323,0.3232,0.3035,0.0,0.0,0.0,0.0,0.0,0.0,0.0,0.0,0.0,0.0,0.0,0.0,0.0,0.0,0.0,0.0,0.0,0.0,0.0,0.0,-0.1463,-0.2489,-0.2878,-0.3266,-0.3253,-0.3039,-0.3231,-0.3231,-0.3239,-0.325,-0.3269,-0.3498,-0.3745,-0.42,-0.4863,1.6083,1.6083,1.6083,1.6083,1.6083,1.6083,1.6083,1.6083,1.6076,1.6069,1.6083,1.6076,1.6069,1.6076,1.6076,1.6083,1.5884,1.5087,1.4682,1.4283,1.3484,1.289,1.289,1.289,1.2879,1.2863,1.2857,1.2588,1.2087,1.1516,1.0951,1.0586,1.0053,0.9882,1.0485,1.1119,1.1575,1.2237,1.2925,1.314,1.3113,1.3031,1.2999,1.3091,1.3102,1.2941,1.32,1.3211,1.3211,1.2779,1.2129,1.1473,1.125,1.0362,0.9303,0.8291,0.7676,0.7267,0.6662,0.6461,0.6452,0.6452,0.6458,0.6461,0.6458,0.6254,0.5654,0.4847,0.424,0.3635,0.3231,0.323,0.323,0.323,0.323,0.323,0.323,0.3232,0.3238,0.264,0.1226,0.0,0.0,0.0,0.0,0.0,0.0,0.0,0.0,0.0,0.0,0.0,0.0,0.0,0.0,0.0,0.0,0.0,0.0,0.0,0.0,-0.1884,-0.2492,-0.2886,-0.2663,-0.245,-0.2844,-0.3238,-0.3251,-0.3266,-0.3283,-0.3515,-0.3554,-0.4003,-0.4663,1.6083,1.6083,1.6083,1.6083,1.6083,1.6083,1.6083,1.6083,1.6083,1.6083,1.6083,1.6083,1.6083,1.6083,1.6083,1.5877,1.528,1.4881,1.4482,1.4089,1.329,1.289,1.289,1.289,1.289,1.289,1.289,1.2879,1.2421,1.1634,1.1254,1.0863,1.0262,0.9685,0.9907,1.0762,1.1633,1.1885,1.2652,1.3368,1.3341,1.3238,1.32,1.3211,1.3221,1.3032,1.3276,1.3287,1.3281,1.3054,1.2209,1.1578,1.1353,1.0457,0.94,0.8557,0.7911,0.7465,0.6665,0.6463,0.6463,0.6463,0.6463,0.6463,0.6259,0.5654,0.5049,0.4847,0.4038,0.3433,0.323,0.323,0.323,0.323,0.323,0.323,0.3231,0.3243,0.3249,0.3269,0.2263,0.1447,0.0,0.0,0.0,0.0,0.0,0.0,0.0,0.0,0.0,0.0,0.0,0.0,0.0,0.0,0.0,0.0,0.0,0.0,0.0,-0.1265,-0.1892,-0.2296,-0.2073,-0.2262,-0.2859,-0.3262,-0.327,-0.329,-0.3314,-0.3336,-0.336,-0.3805,-0.4251,1.6083,1.6083,1.6083,1.6083,1.6083,1.6083,1.6083,1.6083,1.6083,1.6083,1.6083,1.6083,1.6083,1.6083,1.5877,1.5479,1.5081,1.4482,1.4089,1.3895,1.329,1.289,1.289,1.289,1.289,1.289,1.289,1.289,1.2489,1.1884,1.1282,1.1082,1.0288,0.9714,0.9746,1.0401,1.1102,1.1812,1.2745,1.3417,1.339,1.3319,1.3276,1.3336,1.3129,1.3368,1.3417,1.3439,1.3444,1.322,1.2355,1.1682,1.1451,1.0561,0.9479,0.8448,0.8218,0.755,0.6676,0.6466,0.6469,0.6463,0.6463,0.6463,0.6259,0.5455,0.4849,0.4847,0.3836,0.3232,0.3232,0.323,0.323,0.3231,0.3239,0.3236,0.3242,0.3253,0.3266,0.329,0.3314,0.229,0.1464,0.0,0.0,0.0,0.0,0.0,0.0,0.0,0.0,0.0,0.0,0.0,0.0,0.0,0.0,0.0,0.0,0.0,0.0,-0.0637,-0.1269,-0.1686,-0.1884,-0.2283,-0.288,-0.3085,-0.3098,-0.3325,-0.3348,-0.3366,-0.3381,-0.3604,-0.4045,1.6083,1.6083,1.6083,1.6083,1.6083,1.6083,1.6083,1.6083,1.6083,1.6083,1.6083,1.6083,1.6083,1.6083,1.5479,1.528,1.5081,1.4089,1.369,1.349,1.329,1.289,1.289,1.289,1.289,1.289,1.289,1.289,1.2484,1.1884,1.1282,1.1287,1.0318,0.9746,0.9808,1.0082,1.079,1.2186,1.2839,1.3268,1.3461,1.3395,1.3406,1.3439,1.3471,1.3714,1.3797,1.3802,1.4013,1.3569,1.2465,1.1792,1.1568,1.0657,0.9365,0.8521,0.8293,0.7825,0.6951,0.6521,0.6507,0.6502,0.6491,0.6502,0.6309,0.5482,0.4874,0.4888,0.3872,0.3462,0.3253,0.3257,0.3261,0.3262,0.3261,0.3254,0.3255,0.3275,0.3295,0.3321,0.3343,0.3359,0.2322,0.1273,0.0,0.0,0.0,0.0,0.0,0.0,0.0,0.0,0.0,0.0,0.0,0.0,0.0,0.0,0.0,0.0,0.0,0.0,-0.0637,-0.0847,0.0,-0.1263,-0.1673,-0.2297,-0.313,-0.3352,-0.3366,-0.3386,-0.3401,-0.3621,-0.3837,1.6083,1.6083,1.6083,1.6083,1.6083,1.6083,1.6083,1.6083,1.6083,1.6083,1.6083,1.6083,1.6083,1.5877,1.5479,1.4881,1.4476,1.3884,1.349,1.309,1.289,1.289,1.289,1.289,1.289,1.289,1.289,1.289,1.2695,1.1914,1.1497,1.1091,1.0159,0.9791,0.9873,1.0186,1.1118,1.228,1.2721,1.3148,1.3359,1.3553,1.3564,1.378,1.4224,1.4446,1.4452,1.4452,1.4241,1.4024,1.2731,1.1873,1.1638,1.0744,0.9659,0.8601,0.8358,0.7692,0.6836,0.6605,0.6616,0.6605,0.6583,0.6357,0.6586,0.5535,0.4927,0.4743,0.3914,0.3302,0.3306,0.3313,0.33,0.3296,0.3291,0.3292,0.3295,0.3306,0.3328,0.3352,0.337,0.3384,0.2967,0.1915,0.0639,0.0,0.0,0.0,0.0,0.0,0.0,0.0,0.0,0.0,0.0,0.0,0.0,0.0,0.0,0.0,0.0,0.0,0.0,0.0,0.0,0.0,-0.0637,-0.1901,-0.2946,-0.3161,-0.3382,-0.3399,-0.3618,-0.3835,-0.4263,1.6083,1.6083,1.6083,1.6083,1.6083,1.6083,1.6083,1.6083,1.6083,1.6083,1.6083,1.6083,1.6083,1.5877,1.528,1.4676,1.4476,1.3484,1.309,1.289,1.289,1.289,1.289,1.289,1.289,1.289,1.289,1.2939,1.2999,1.2176,1.1836,1.1255,1.024,0.9893,0.9983,1.05,1.1222,1.1887,1.2545,1.2968,1.3391,1.3607,1.3819,1.4241,1.444,1.4657,1.4446,1.4651,1.4446,1.3813,1.2545,1.2122,1.1699,1.0804,0.9737,0.8682,0.8433,0.7792,0.6929,0.6681,0.6638,0.6428,0.6412,0.6206,0.6439,0.5581,0.5166,0.456,0.3948,0.3329,0.3322,0.3321,0.3317,0.332,0.3324,0.3326,0.3332,0.3343,0.3351,0.337,0.3386,0.34,0.298,0.2344,0.1279,0.0,0.0,0.0,0.0,0.0,0.0,0.0,0.0,0.0,0.0,0.0,0.0,0.0,0.0,0.0,0.0,0.0,0.0,0.0,0.0,0.0,0.0,0.0,-0.2759,-0.2969,-0.3185,-0.3407,-0.3837,-0.405,-0.4476,1.6083,1.6083,1.6083,1.6083,1.6083,1.6083,1.6083,1.6083,1.6083,1.6083,1.6083,1.6083,1.6083,1.5884,1.5081,1.4476,1.4277,1.3484,1.309,1.289,1.289,1.289,1.289,1.289,1.289,1.289,1.2901,1.2944,1.3053,1.2252,1.1925,1.1362,1.0553,0.9991,1.0053,1.0585,1.1064,1.1699,1.2122,1.2757,1.318,1.3607,1.3819,1.4241,1.4651,1.4862,1.4862,1.4862,1.4651,1.3813,1.2757,1.2122,1.1487,1.0852,0.9792,0.8946,0.8309,0.7884,0.7005,0.6544,0.6275,0.6078,0.6051,0.6053,0.6058,0.5636,0.5426,0.5027,0.4188,0.3556,0.3345,0.3355,0.3358,0.3363,0.3362,0.3365,0.3366,0.3373,0.3377,0.3386,0.3399,0.3408,0.2769,0.0,0.0,0.0,0.0,0.0,0.0,0.0,0.0,0.0,0.0,0.0,0.0,0.0,0.0,0.0,0.0,0.0,0.0,0.0,0.0,0.0,0.0,0.0,0.0,0.0,-0.2341,-0.2769,-0.2985,-0.3411,-0.3624,-0.405,-0.4476,1.6083,1.6083,1.6083,1.6083,1.6083,1.6083,1.6083,1.6083,1.6083,1.6083,1.6083,1.6083,1.6083,1.5884,1.5081,1.4476,1.4277,1.3484,1.289,1.289,1.289,1.289,1.289,1.289,1.289,1.289,1.2917,1.2982,1.3086,1.2104,1.1793,1.1281,1.0687,1.0069,1.0089,1.0171,1.064,1.1064,1.1699,1.2334,1.2968,1.3396,1.3819,1.4446,1.4868,1.5072,1.5072,1.5072,1.4862,1.4024,1.2757,1.1911,1.1699,1.0852,0.9792,0.8734,0.8521,0.7884,0.6815,0.6387,0.5738,0.5512,0.5481,0.5902,0.5933,0.5926,0.5479,0.5076,0.4453,0.3823,0.3617,0.3404,0.3399,0.3396,0.3393,0.3393,0.3393,0.3393,0.3396,0.3396,0.3404,0.3198,0.2558,0.0,0.0,0.0,0.0,0.0,0.0,0.0,0.0,0.0,0.0,0.0,0.0,0.0,0.0,0.0,0.0,0.0,0.0,0.0,0.0,0.0,0.0,0.0,0.0,0.0,-0.2345,-0.2985,-0.3198,-0.3411,-0.3624,-0.3837,-0.4263,1.6083,1.6083,1.6083,1.6083,1.6083,1.6083,1.6083,1.6083,1.6083,1.6083,1.6083,1.6083,1.6083,1.5678,1.5081,1.4476,1.4277,1.3484,1.289,1.289,1.289,1.289,1.289,1.289,1.289,1.2912,1.2955,1.3058,1.3189,1.2204,1.1706,1.1405,1.0576,1.0167,1.0175,1.0208,1.0428,1.1064,1.1483,1.1906,1.2757,1.3391,1.4024,1.4868,1.5283,1.5283,1.5283,1.5283,1.4868,1.4024,1.2545,1.2122,1.1699,1.0852,0.9792,0.8734,0.8521,0.7459,0.6392,0.5541,0.5328,0.5109,0.5315,0.5521,0.5962,0.5955,0.5744,0.5111,0.4687,0.405,0.3623,0.341,0.3407,0.3407,0.3405,0.3405,0.3407,0.3407,0.3408,0.3407,0.3411,0.2985,0.2345,0.0,0.0,0.0,0.0,0.0,0.0,0.0,0.0,0.0,0.0,0.0,0.0,0.0,0.0,0.0,0.0,0.0,0.0,0.0,0.0,0.0,-0.2345,-0.2131,-0.2131,-0.2345,-0.2772,-0.3198,-0.3411,-0.3411,-0.3411,-0.3624,-0.405,1.6083,1.6083,1.6083,1.6083,1.6083,1.6083,1.6083,1.6083,1.6083,1.6083,1.6083,1.6083,1.6083,1.5877,1.528,1.4682,1.4482,1.3684,1.289,1.289,1.289,1.289,1.289,1.289,1.289,1.2922,1.3015,1.3124,1.3227,1.232,1.1797,1.1024,1.064,1.0204,1.0212,1.0212,1.0428,1.1064,1.1271,1.1906,1.2757,1.3391,1.4235,1.4868,1.5078,1.5078,1.5078,1.5078,1.4657,1.3602,1.2757,1.2122,1.1699,1.1064,0.9792,0.8946,0.7884,0.703,0.5754,0.4902,0.4902,0.4476,0.4902,0.5328,0.5756,0.5964,0.5751,0.5326,0.49,0.4263,0.3624,0.3411,0.3411,0.3411,0.3411,0.3411,0.3411,0.3411,0.3411,0.3411,0.3411,0.2772,0.0,0.0,0.0,0.0,0.0,0.0,0.0,0.0,0.0,0.0,0.0,0.0,0.0,0.0,0.0,0.0,0.0,0.0,0.0,0.0,0.0,-0.2345,-0.2558,-0.2558,-0.2558,-0.2772,-0.3198,-0.3198,-0.3411,-0.3411,-0.3411,-0.3624,-0.3837,1.6083,1.6083,1.6083,1.6083,1.6083,1.6083,1.6083,1.6083,1.6083,1.6083,1.6083,1.6083,1.6083,1.6083,1.5479,1.5081,1.4482,1.3889,1.329,1.3084,1.2884,1.289,1.289,1.289,1.2906,1.2944,1.3031,1.3172,1.3254,1.2563,1.162,1.0614,1.0212,1.0216,1.0216,1.0216,1.064,1.1059,1.1483,1.1906,1.2757,1.3391,1.4235,1.4657,1.4868,1.4868,1.4868,1.4657,1.4235,1.3602,1.2968,1.2545,1.1911,1.1276,1.0004,0.8734,0.7459,0.6392,0.5328,0.4902,0.4263,0.405,0.4689,0.4902,0.5328,0.5967,0.5967,0.5541,0.5115,0.4263,0.3837,0.3624,0.3411,0.3411,0.3411,0.3411,0.3411,0.3411,0.3411,0.3411,0.3411,0.2985,0.2772,0.0,0.0,0.0,0.0,0.0,0.0,0.0,0.0,0.0,0.0,0.0,0.0,0.0,0.0,0.0,0.0,0.0,0.0,0.0,0.0,-0.2131,-0.2772,-0.3198,-0.2985,-0.2985,-0.3198,-0.3411,-0.3411,-0.3411,-0.3411,-0.3411,-0.3624,1.6083,1.6083,1.6083,1.6083,1.6083,1.6083,1.6083,1.6083,1.6083,1.6083,1.6083,1.6083,1.6083,1.6083,1.5479,1.528,1.4682,1.4083,1.3484,1.3084,1.2884,1.289,1.289,1.2901,1.2939,1.3031,1.3134,1.3249,1.3161,1.2645,1.1648,1.0416,1.0212,1.0216,1.0216,1.0216,1.064,1.1059,1.1483,1.2122,1.2757,1.3391,1.4024,1.4452,1.4446,1.4663,1.4663,1.4452,1.403,1.3607,1.2757,1.2122,1.1911,1.1064,0.9792,0.8521,0.7456,0.6392,0.5328,0.4687,0.4263,0.3837,0.4476,0.4902,0.5328,0.5967,0.6392,0.5754,0.5328,0.4689,0.405,0.3837,0.3624,0.3411,0.3411,0.3411,0.3411,0.3411,0.3411,0.3411,0.3411,0.3411,0.2985,0.0,0.0,0.0,0.0,0.0,0.0,0.0,0.0,0.0,0.0,0.0,0.0,0.0,0.0,0.0,0.0,0.0,0.0,0.0,0.0,-0.1918,-0.2772,-0.3198,-0.3411,-0.3411,-0.3411,-0.3411,-0.3411,-0.3411,-0.3411,-0.3412,-0.3625,1.6083,1.6083,1.6083,1.6083,1.6083,1.6083,1.6083,1.6083,1.6083,1.6083,1.6083,1.6083,1.6083,1.6083,1.5685,1.5479,1.528,1.4482,1.3678,1.3079,1.2895,1.289,1.2895,1.2944,1.2999,1.3107,1.3227,1.3346,1.3027,1.248,1.1483,1.1059,1.064,1.0216,1.0216,1.0216,1.064,1.1276,1.1699,1.2334,1.2757,1.3391,1.403,1.4241,1.4241,1.4241,1.4458,1.4241,1.3819,1.3607,1.2545,1.2122,1.1699,1.0428,0.9367,0.8309,0.7456,0.6392,0.5541,0.4902,0.4476,0.4263,0.4689,0.5115,0.5754,0.6179,0.6179,0.5969,0.5541,0.5115,0.4476,0.405,0.3624,0.3411,0.3411,0.3411,0.3411,0.3411,0.3411,0.3411,0.3411,0.3411,0.3198,0.2558,0.0,0.0,0.0,0.0,0.0,0.0,0.0,0.0,0.0,0.0,0.0,0.0,0.0,0.0,0.0,0.0,0.0,-0.0853,-0.1492,-0.2345,-0.2985,-0.3198,-0.3411,-0.3411,-0.3411,-0.3412,-0.3415,-0.3422,-0.342,-0.3418,-0.3628,1.6083,1.6083,1.6083,1.6083,1.6083,1.6083,1.6083,1.6083,1.6083,1.6083,1.6083,1.6083,1.6083,1.609,1.611,1.5724,1.5351,1.4756,1.3954,1.3101,1.296,1.296,1.2966,1.302,1.3107,1.3183,1.3281,1.3412,1.3048,1.249,1.1911,1.1699,1.064,1.0216,1.0216,1.0428,1.0852,1.1487,1.1911,1.2122,1.2968,1.3391,1.3813,1.403,1.403,1.3813,1.403,1.403,1.3607,1.3391,1.2968,1.2334,1.1064,0.9792,0.8946,0.8096,0.7456,0.6608,0.5967,0.5115,0.4902,0.4902,0.5115,0.5541,0.5969,0.6392,0.6392,0.6182,0.5969,0.5328,0.4689,0.4261,0.3835,0.3624,0.3411,0.3411,0.3411,0.3411,0.3411,0.3411,0.3411,0.3411,0.3411,0.2985,0.2558,0.0,0.0,0.0,0.0,0.0,0.0,0.0,0.0,0.0,0.0,0.0,0.0,0.0,0.0,0.0,0.0,-0.1705,-0.2131,-0.2558,-0.3198,-0.3198,-0.3411,-0.3412,-0.3412,-0.3414,-0.3419,-0.3431,-0.3433,-0.3434,-0.3654,1.6083,1.6083,1.6083,1.6083,1.6083,1.6083,1.6083,1.6083,1.6083,1.6083,1.6083,1.6083,1.609,1.611,1.6198,1.6038,1.5863,1.5101,1.4506,1.388,1.3486,1.3053,1.3064,1.3134,1.3232,1.333,1.3412,1.3477,1.3327,1.2525,1.1694,1.1483,1.0636,1.0216,1.0216,1.0428,1.1064,1.1487,1.1694,1.2329,1.318,1.3396,1.3607,1.3819,1.3602,1.3602,1.3819,1.3819,1.3607,1.3391,1.2545,1.1699,1.064,0.9159,0.8521,0.8309,0.7462,0.6608,0.6182,0.5541,0.5328,0.5328,0.5541,0.5756,0.6182,0.6605,0.6605,0.6395,0.6182,0.5541,0.5115,0.4687,0.4048,0.3837,0.3411,0.3411,0.3411,0.3411,0.3411,0.3411,0.3411,0.3411,0.3411,0.3198,0.2985,0.0,0.0,0.0,0.0,0.0,0.0,0.0,0.0,0.0,0.0,0.0,0.0,0.0,0.0,0.0,0.0,-0.2349,-0.2352,-0.2987,-0.3411,-0.342,-0.3423,-0.3414,-0.3414,-0.3419,-0.3431,-0.3446,-0.3464,-0.3469,-0.3478,1.6083,1.6083,1.6083,1.6083,1.6083,1.6083,1.6083,1.6083,1.6083,1.6083,1.6083,1.6083,1.6117,1.6164,1.6279,1.6361,1.6192,1.5252,1.4776,1.4339,1.3786,1.3344,1.3377,1.3243,1.3325,1.3417,1.3488,1.3548,1.3385,1.2545,1.1694,1.1267,1.0636,1.0216,1.0216,1.0852,1.1276,1.1487,1.1901,1.254,1.3602,1.3607,1.3607,1.3607,1.3607,1.3607,1.3607,1.3607,1.3607,1.3418,1.2596,1.1769,1.0708,0.9431,0.8786,0.8349,0.7479,0.6605,0.6395,0.5969,0.5756,0.5967,0.5756,0.5969,0.6395,0.6818,0.6818,0.6608,0.6608,0.6179,0.5541,0.5115,0.4474,0.4048,0.3624,0.3411,0.3411,0.3411,0.3411,0.3411,0.3411,0.3411,0.3198,0.2558,0.2345,0.2131,0.0639,0.0,0.0,0.0,0.0,0.0,0.0,0.0,0.0,0.0,0.0,0.0,0.0,0.0,0.0,0.0,-0.2788,-0.3219,-0.3438,-0.3446,-0.3445,-0.3221,-0.3431,-0.3438,-0.345,-0.3464,-0.3484,-0.3506,-0.3737,1.6083,1.6083,1.6083,1.6083,1.6083,1.6083,1.6083,1.6083,1.6083,1.6083,1.6083,1.6083,1.6171,1.6239,1.6341,1.6429,1.6312,1.5596,1.5084,1.4602,1.3871,1.3637,1.346,1.3532,1.3423,1.3488,1.3548,1.3575,1.3602,1.2545,1.1694,1.1271,1.0848,1.0216,1.0428,1.0852,1.1487,1.1911,1.2329,1.2752,1.318,1.3607,1.3602,1.3602,1.3602,1.3602,1.3602,1.3607,1.3607,1.3222,1.2636,1.1821,1.0991,0.9917,0.9054,0.861,0.7717,0.705,0.661,0.6392,0.6392,0.6392,0.6182,0.6395,0.6605,0.6818,0.6818,0.6818,0.6818,0.6605,0.5967,0.5543,0.4902,0.4261,0.3837,0.3411,0.3411,0.3411,0.3411,0.3411,0.3412,0.3412,0.2986,0.2346,0.192,0.1493,0.0,0.0,0.0,0.0,0.0,0.0,0.0,0.0,0.0,0.0,0.0,0.0,0.0,0.0,0.0,0.0,-0.2597,-0.3249,-0.3471,-0.3475,-0.3255,-0.3031,-0.3246,-0.3246,-0.3483,-0.3499,-0.3514,-0.3536,-0.4001,1.6083,1.6083,1.6083,1.6083,1.6083,1.6083,1.6083,1.6083,1.6083,1.5884,1.5678,1.5884,1.611,1.6144,1.6395,1.6517,1.6373,1.5892,1.564,1.5122,1.4232,1.3973,1.3744,1.3625,1.3537,1.3575,1.3586,1.3602,1.3428,1.2565,1.1916,1.1718,1.0649,1.0432,1.1068,1.1487,1.1911,1.2334,1.2772,1.3201,1.3195,1.3407,1.3391,1.3391,1.3391,1.318,1.318,1.3396,1.3607,1.3428,1.3082,1.2282,1.125,1.0416,0.9558,0.8661,0.7975,0.7292,0.6845,0.6613,0.682,0.6818,0.6608,0.6608,0.6818,0.6818,0.6818,0.6818,0.6818,0.6605,0.6179,0.5969,0.5541,0.4476,0.3837,0.3624,0.3411,0.3411,0.3411,0.3414,0.3415,0.3416,0.3418,0.2778,0.2138,0.1497,0.0642,0.0,0.0,0.0,0.0,0.0,0.0,0.0,0.0,0.0,0.0,0.0,0.0,0.0,0.0,0.0,-0.2184,-0.3059,-0.3498,-0.3501,-0.3278,-0.262,-0.2401,-0.2186,-0.3081,-0.3539,-0.3551,-0.3782,-0.4021]}]]